GFSGBSN_con_mlcape_000.txt.gz
CAPE
6 8 0 0 0 1 1 2 0 0 0 0 0 8 18 18 10 22 122 105 83 96 68 62 54 30 20 9 0 0 0 0 0 73 53 10 0 0 0 0 0 0 0 0 0 0 0
0 12 10 0 0 0 1 1 0 0 0 6 25 56 40 27 12 9 84 122 181 163 105 92 60 66 23 0 0 0 0 0 0 42 81 21 0 0 0 0 0 0 0 0 0 0 0
11 9 14 0 0 0 0 0 0 8 7 6 19 32 25 26 13 19 89 113 186 211 169 131 117 45 32 0 0 0 0 4 2 29 53 13 1 2 0 0 0 0 0 0 0 0 0
14 10 17 0 0 0 0 0 0 9 22 14 31 17 21 12 21 41 90 223 187 127 169 169 150 52 8 0 0 0 0 0 11 55 102 41 17 0 0 0 0 0 0 0 0 0 0
10 5 4 3 0 0 0 0 0 0 24 23 25 25 16 0 0 16 51 89 172 233 225 218 37 29 0 13 0 0 0 0 0 23 100 35 19 1 0 0 0 0 0 0 0 0 0
4 3 5 17 8 0 0 0 0 0 1 12 14 19 33 12 2 13 36 75 66 151 104 117 50 15 0 0 0 0 0 0 7 8 77 77 36 2 0 0 0 0 0 0 0 0 0
12 4 0 4 19 0 1 0 0 0 0 0 0 6 4 26 34 19 5 0 8 2 62 4 0 3 5 0 28 1 1 1 36 53 32 49 5 5 0 0 0 0 0 0 0 0 0
20 9 0 0 12 1 0 0 0 0 5 5 9 3 0 23 33 38 0 34 1 0 9 0 0 4 71 23 2 37 51 37 22 7 44 38 7 0 0 0 0 0 0 0 0 0 0
9 19 0 0 0 1 0 0 0 0 0 12 6 1 1 3 8 36 17 14 9 1 2 2 5 0 58 34 21 30 56 16 1 22 24 3 9 1 0 0 0 0 0 0 0 0 0
5 16 0 0 0 1 0 0 0 0 0 0 8 4 1 0 0 16 18 0 6 26 8 6 10 9 30 21 24 31 18 6 25 10 22 16 0 0 0 0 0 0 0 0 0 0 0
3 5 11 0 0 0 0 0 0 0 0 0 0 0 2 1 25 1 6 31 34 0 2 0 1 38 24 27 2 1 0 2 4 9 7 1 0 0 0 0 0 0 0 0 0 0 0
5 5 9 1 0 0 0 0 0 0 0 0 1 0 1 2 8 14 21 34 7 0 0 3 11 26 0 12 3 0 1 5 11 0 0 0 0 0 0 0 0 0 0 0 0 0 0
11 5 5 4 0 0 0 0 0 0 0 0 0 3 0 2 0 16 18 26 1 0 1 4 5 7 5 1 3 10 1 5 0 1 2 0 0 0 0 0 0 0 0 0 0 0 0
11 12 6 8 0 0 0 0 0 0 0 0 0 4 0 0 0 0 6 3 0 2 3 0 6 3 2 1 1 0 0 0 0 0 0 0 0 0 0 0 0 0 0 0 0 0 0
9 21 11 4 6 0 0 0 0 0 0 0 0 0 0 0 0 1 2 3 4 9 1 2 2 2 4 3 2 0 0 0 0 0 0 0 0 0 0 0 0 0 0 0 0 0 0
2 10 17 9 7 0 0 0 0 0 0 0 0 0 0 0 0 2 3 4 7 7 0 8 1 3 5 0 0 0 0 0 0 0 1 0 0 0 0 0 0 0 0 0 0 0 0
1 1 23 8 2 0 0 0 0 0 0 0 0 0 0 0 0 2 4 2 16 2 11 29 21 3 0 0 0 0 13 15 0 1 1 0 0 0 0 0 0 0 0 0 0 0 0
3 3 14 11 0 0 0 0 0 0 0 0 0 0 0 0 0 0 5 12 25 13 3 4 0 0 0 12 5 8 0 0 0 0 0 0 0 0 0 0 0 0 0 0 0 0 0
4 3 3 9 3 0 0 0 0 0 0 0 0 0 0 0 0 0 0 2 0 0 0 16 16 17 22 18 11 0 0 0 0 0 0 0 0 0 0 0 0 0 0 0 0 0 0
2 2 2 4 3 0 0 0 0 0 0 0 0 0 0 0 0 0 0 0 0 0 0 2 0 9 6 4 0 1 0 0 0 0 0 0 0 0 0 0 0 0 0 0 0 0 0
1 1 1 2 5 1 2 0 0 0 0 0 0 0 0 0 0 0 0 0 0 0 0 0 0 2 3 0 0 0 0 0 0 0 0 0 0 0 0 0 0 0 0 0 0 0 0
0 1 1 1 2 2 0 0 0 0 0 0 0 0 0 0 0 0 0 0 0 0 0 0 0 0 0 0 0 0 0 0 0 0 0 0 0 0 0 0 0 0 0 0 0 0 0
1 0 2 1 1 3 1 1 0 0 0 0 0 0 0 0 0 0 0 0 0 0 0 0 0 0 0 0 0 0 0 0 0 0 0 0 0 0 0 0 0 0 0 0 0 0 0
1 1 1 1 1 2 1 2 1 0 0 0 0 0 0 0 0 0 0 0 0 0 0 0 0 0 0 0 0 0 0 0 0 0 0 0 0 0 0 0 0 0 0 0 0 0 0
1 0 1 0 1 2 1 0 1 0 0 0 0 0 0 0 0 0 0 0 0 0 0 0 0 0 0 0 0 0 0 0 0 0 0 0 0 0 0 0 0 0 0 0 0 0 0
1 0 2 2 3 2 0 0 1 1 0 0 0 0 0 0 0 0 0 0 0 0 0 0 0 0 0 0 0 0 0 0 0 0 0 0 0 0 0 0 0 0 0 0 0 0 0
1 2 0 2 3 1 0 0 0 0 0 0 0 0 0 0 0 0 0 0 0 0 0 0 0 0 0 0 0 0 0 0 0 0 0 0 0 0 0 0 0 0 0 0 0 0 0
0 1 1 2 1 1 0 0 0 1 0 0 0 0 0 0 0 0 0 0 0 0 0 0 0 0 0 0 0 0 0 0 0 0 0 0 0 0 0 0 0 0 0 0 0 0 0
1 1 0 1 1 1 1 0 0 1 0 0 0 0 0 0 0 0 0 0 0 0 0 0 0 0 0 0 0 0 0 0 0 0 0 0 0 0 0 0 0 0 0 0 0 0 0

GFSGBSN_con_mlcape_003.txt.gz
CAPE
11 19 10 0 0 0 4 11 2 0 2 1 2 3 0 0 0 0 34 77 181 197 161 132 93 65 26 10 0 0 0 0 0 0 6 4 0 0 0 0 0 0 0 0 0 0 0
24 20 20 9 1 0 1 9 6 1 5 6 1 13 18 7 1 11 10 58 162 271 254 169 103 92 10 0 0 0 0 0 0 0 40 36 0 0 0 0 0 0 0 0 0 0 0
10 23 20 23 0 0 0 2 15 2 13 25 13 13 20 0 18 27 13 47 167 272 210 121 169 18 12 0 0 0 0 0 0 0 52 35 0 1 0 0 0 0 0 0 0 0 0
3 12 15 20 0 0 0 1 14 10 14 42 16 19 18 6 15 20 42 59 136 198 230 169 240 47 6 0 0 0 0 0 0 0 67 61 22 2 4 0 0 0 0 0 0 0 0
7 2 13 18 14 0 2 0 8 12 1 31 27 14 12 35 19 4 2 33 113 216 269 158 61 33 15 0 0 0 0 0 0 0 29 44 34 1 26 18 4 0 0 0 0 0 0
19 3 4 21 15 20 9 0 0 8 14 7 0 4 15 16 32 23 15 45 58 75 74 40 26 33 20 0 0 0 0 0 1 0 46 90 25 10 1 1 5 0 0 0 0 0 0
16 15 4 16 9 16 6 0 0 7 0 14 13 9 6 4 32 45 25 3 0 6 13 3 11 5 0 0 0 0 0 0 11 9 12 39 7 9 0 0 0 0 0 0 0 0 0
9 13 10 6 9 6 7 0 0 0 3 9 13 4 3 9 23 9 8 0 0 3 10 13 2 0 1 18 0 0 0 1 7 4 5 36 3 0 1 0 0 0 0 0 0 0 0
8 12 10 1 0 4 5 0 0 0 1 14 11 4 2 13 9 21 0 0 19 24 16 9 0 5 4 53 30 7 0 24 0 15 21 3 0 1 0 1 0 0 0 0 0 0 0
10 7 10 6 0 1 1 0 0 0 0 0 3 0 0 6 5 1 8 19 14 30 0 1 2 6 0 13 6 41 22 29 0 0 7 16 0 1 0 0 1 4 0 0 0 0 0
13 10 10 6 6 0 0 0 0 0 0 0 0 4 1 6 7 3 1 1 18 42 0 0 1 68 11 15 20 11 19 67 0 0 27 1 0 7 18 0 0 0 0 0 0 0 0
14 13 12 7 6 4 0 0 0 0 0 0 0 0 2 3 8 11 26 25 5 1 0 0 9 0 12 14 11 27 17 3 0 0 4 3 3 19 0 0 0 0 0 0 0 0 0
16 10 13 15 4 6 4 1 0 0 0 0 0 0 3 5 2 24 40 31 1 0 0 1 0 13 18 36 5 24 9 17 1 9 24 0 0 0 0 0 0 0 0 0 0 0 0
16 10 9 20 8 5 6 3 0 0 0 0 0 3 1 2 8 25 39 5 0 0 1 5 13 4 2 6 7 37 10 8 7 0 0 2 0 0 0 0 0 0 0 0 0 0 0
9 2 4 10 20 7 7 2 1 0 0 0 0 0 1 1 8 3 14 0 1 2 8 3 3 2 6 19 5 1 1 0 0 0 2 0 0 0 0 0 0 0 0 0 0 0 0
7 1 0 5 25 7 0 1 3 0 0 0 0 0 0 0 3 4 7 4 5 0 2 0 1 2 6 6 0 5 3 0 0 0 0 0 0 0 0 0 0 0 0 0 0 0 0
2 3 2 1 16 5 0 0 2 2 0 0 0 0 1 4 4 2 6 6 0 0 8 5 1 2 0 0 0 2 0 0 0 0 0 0 0 0 0 0 0 0 0 0 0 0 0
3 5 4 0 14 4 0 0 1 3 0 0 0 0 1 0 1 0 1 18 0 0 9 14 0 0 0 0 0 1 0 0 0 0 6 0 0 0 0 0 0 0 0 0 0 0 0
2 4 4 1 6 2 1 0 1 1 0 0 0 0 1 1 0 0 1 0 11 10 17 3 0 0 0 0 0 0 0 0 0 0 0 0 0 0 0 0 0 0 0 0 0 0 0
1 3 2 0 3 1 3 1 1 0 0 0 0 0 0 1 0 0 0 6 1 0 2 11 6 2 15 14 0 0 0 0 0 0 0 0 0 0 0 0 0 0 0 0 0 0 0
0 3 3 0 2 2 1 1 0 0 0 0 0 0 0 0 0 0 0 0 0 1 1 0 16 2 10 5 0 0 0 0 0 0 0 0 0 0 0 0 0 0 0 0 0 0 0
1 2 3 1 4 0 1 1 0 0 0 0 0 0 0 0 0 0 0 0 0 0 0 0 0 0 0 0 0 0 0 0 0 0 0 0 0 0 0 0 0 0 0 0 0 0 0
2 3 2 1 2 1 1 1 1 0 0 0 0 0 0 0 0 0 0 0 0 0 0 0 0 0 0 0 0 0 0 0 0 0 0 0 0 0 0 0 0 0 0 0 0 0 0
1 2 1 0 1 0 1 1 1 0 0 0 0 0 0 0 0 0 0 0 0 0 0 0 0 0 0 0 0 0 0 0 0 0 0 0 0 0 0 0 0 0 0 0 0 0 0
1 2 1 0 1 1 1 1 1 0 0 0 0 0 0 0 0 0 0 0 0 0 0 0 0 0 0 0 0 0 0 0 0 0 0 0 0 0 0 0 0 0 0 0 0 0 0
1 1 0 0 1 1 1 0 0 1 0 0 0 0 0 0 0 0 0 0 0 0 0 0 0 0 0 0 0 0 0 0 0 0 0 0 0 0 0 0 0 0 0 0 0 0 0
1 1 0 0 2 3 2 0 0 0 0 0 0 0 0 0 0 0 0 0 0 0 0 0 0 0 0 0 0 0 0 0 0 0 0 0 0 0 0 0 0 0 0 0 0 0 0
0 1 1 0 2 1 1 0 0 0 0 0 0 0 0 0 0 0 0 0 0 0 0 0 0 0 0 0 0 0 0 0 0 0 0 0 0 0 0 0 0 0 0 0 0 0 0
0 0 1 1 2 1 1 1 0 0 0 0 0 0 0 0 0 0 0 0 0 0 0 0 0 0 0 0 0 0 0 0 0 0 0 0 0 0 0 0 0 0 0 0 0 0 0

GFSGBSN_con_mlcape_006.txt.gz
CAPE
21 23 15 21 11 2 3 7 5 5 5 3 1 8 6 3 1 1 0 0 15 53 61 49 103 46 46 8 0 0 0 0 0 0 3 25 0 0 0 0 0 0 0 0 0 0 0
14 8 27 19 18 16 4 3 5 8 3 9 18 7 1 0 1 1 2 0 0 33 26 92 262 126 27 0 0 0 0 0 0 0 0 34 3 0 0 0 0 0 0 0 0 0 0
15 3 17 12 11 13 3 0 2 1 2 2 24 18 13 5 0 1 4 0 0 42 75 104 125 73 6 0 0 0 0 0 0 1 0 17 17 0 0 5 0 0 0 0 0 0 0
10 9 4 3 1 15 1 0 1 0 9 9 31 28 10 5 1 0 0 14 12 23 51 184 168 45 0 0 0 0 0 0 0 0 0 48 50 6 7 0 0 1 0 0 0 0 0
17 16 5 0 0 14 19 12 1 3 0 7 5 5 12 25 24 26 11 9 22 42 94 82 52 9 3 0 0 0 0 0 3 0 8 19 36 24 9 9 4 0 3 0 0 0 0
14 18 22 7 1 11 8 18 4 4 0 0 21 18 0 2 11 12 34 3 8 15 12 10 14 3 0 0 0 0 0 0 19 1 6 79 43 30 14 28 10 0 0 0 0 0 0
12 16 18 15 3 11 0 13 6 1 2 0 0 13 2 1 1 19 38 19 0 1 6 0 0 0 0 0 0 0 0 0 15 0 9 60 48 21 4 0 0 4 0 0 0 0 0
8 11 17 16 7 4 0 2 4 0 3 1 2 34 8 1 7 31 6 0 0 3 0 0 10 0 4 10 20 0 0 7 15 0 23 63 18 1 0 0 7 1 0 0 0 0 0
13 10 15 13 14 4 0 1 3 0 0 0 0 2 2 4 23 18 1 0 32 26 5 0 0 2 8 0 11 0 0 21 6 0 4 11 8 3 0 0 0 0 0 0 0 0 0
22 13 13 17 14 9 3 1 0 2 0 0 0 0 0 28 18 16 1 1 14 6 0 0 2 0 3 19 9 16 0 14 1 0 0 26 7 3 2 0 0 2 0 0 0 0 0
29 19 16 20 9 12 9 4 1 0 0 0 0 0 8 28 27 19 15 0 17 25 0 0 3 1 1 2 14 9 0 0 0 0 17 19 9 23 3 0 0 0 0 4 1 0 0
21 24 21 21 20 13 9 9 1 2 0 0 0 0 3 6 23 10 6 10 14 1 0 0 1 0 1 0 18 18 16 24 11 0 15 3 1 6 5 0 0 0 0 0 0 0 0
36 25 21 22 19 23 8 8 2 10 0 0 0 0 2 15 12 50 18 1 0 1 0 1 1 2 1 1 29 1 0 1 3 1 9 0 6 0 0 1 0 0 0 0 0 0 0
29 22 15 10 10 20 13 5 6 9 1 0 0 2 9 2 18 8 28 0 0 0 0 1 1 0 1 0 17 19 8 9 4 0 0 0 1 0 0 0 0 0 0 0 0 0 0
21 17 12 9 3 16 25 6 3 5 4 0 2 0 3 4 18 5 4 0 0 0 1 18 10 0 0 9 10 16 6 4 3 1 0 4 0 0 0 0 0 0 0 0 0 0 0
32 14 9 5 2 8 29 6 0 4 3 1 1 0 0 1 21 9 2 0 4 1 0 3 0 3 12 13 4 3 4 9 4 2 0 0 0 0 0 0 0 0 0 0 0 0 0
31 12 9 4 4 5 27 5 0 6 1 0 0 0 1 3 34 15 1 0 4 0 0 2 1 0 2 0 5 0 0 0 0 0 0 0 0 0 0 0 0 0 0 0 0 0 0
31 11 9 6 5 2 26 2 0 6 0 0 0 0 5 8 7 12 5 18 0 0 12 1 2 3 1 2 2 2 2 0 0 0 0 0 0 0 0 0 0 0 0 0 0 0 0
31 15 7 5 3 1 15 5 1 5 0 0 0 1 3 2 1 5 11 4 3 0 10 11 0 0 0 9 1 2 1 0 0 0 0 0 0 0 0 0 0 0 0 0 0 0 0
29 12 5 2 3 0 5 4 1 3 2 0 0 0 1 3 1 0 1 0 9 7 7 4 0 0 0 25 0 0 1 0 0 0 0 0 0 0 0 0 0 0 0 0 0 0 0
46 13 3 0 3 0 1 1 1 1 1 0 0 0 0 0 0 0 0 0 7 5 0 10 8 0 0 5 0 0 0 0 0 0 0 0 0 0 0 0 0 0 0 0 0 0 0
37 13 3 0 3 2 2 0 0 2 0 0 0 0 0 0 0 0 0 0 0 0 0 7 5 5 9 2 0 0 0 0 0 0 0 0 0 0 0 0 0 0 0 0 0 0 0
35 12 1 0 3 2 1 0 1 1 0 0 0 0 0 0 0 0 0 0 0 0 0 0 0 0 0 0 0 0 0 0 0 0 0 0 0 0 0 0 0 0 0 0 0 0 0
40 13 0 1 1 1 1 0 3 1 0 0 0 0 0 0 0 0 0 0 0 0 0 0 0 0 0 0 0 0 0 0 0 0 0 0 0 0 0 0 0 0 0 0 0 0 0
26 11 0 2 1 0 1 1 2 0 0 0 0 0 0 0 0 0 0 0 0 0 0 0 0 0 0 0 0 0 0 0 0 0 0 0 0 0 0 0 0 0 0 0 0 0 0
10 29 1 2 0 0 1 2 2 1 0 0 0 0 0 0 0 0 0 0 0 0 0 0 0 0 0 0 0 0 1 0 0 0 0 0 0 0 0 0 0 0 0 0 0 0 0
29 26 1 0 0 0 4 3 2 0 0 0 0 0 0 0 0 0 0 0 0 0 0 0 0 0 0 0 0 0 0 0 0 0 0 0 0 0 0 0 0 0 0 0 0 0 0
3 14 0 0 0 1 7 4 1 0 0 0 0 0 0 0 0 0 0 0 0 0 0 0 0 0 0 0 0 0 0 0 0 0 0 0 0 0 0 0 0 0 0 0 0 0 0
4 12 0 0 0 2 4 4 2 0 0 0 0 0 0 0 0 0 0 0 0 0 0 0 0 0 0 0 0 0 0 0 0 0 0 0 0 0 0 0 0 0 0 0 0 0 0

GFSGBSN_con_mlcape_009.txt.gz
CAPE
29 16 17 25 22 21 12 0 1 1 1 4 2 0 1 0 9 2 3 0 2 10 35 47 50 9 5 12 0 0 0 0 0 9 0 10 41 9 10 0 0 0 0 0 0 0 0
24 14 8 20 14 32 24 0 0 0 0 0 1 0 0 0 0 21 4 0 0 3 42 42 51 15 0 0 0 0 0 0 0 6 2 3 31 3 3 0 0 0 0 0 0 0 0
23 10 9 1 0 10 21 2 0 0 1 1 2 18 3 0 16 15 1 3 1 1 32 53 17 17 8 0 0 0 0 0 0 0 2 0 20 1 3 3 0 0 0 0 0 0 0
13 13 13 6 0 0 14 12 0 0 3 4 3 10 14 2 24 16 8 3 6 3 2 58 1 14 3 0 0 0 0 0 0 0 0 2 1 28 5 3 1 5 1 0 0 0 0
12 12 28 17 5 2 6 17 20 0 0 1 3 3 0 0 15 30 29 8 19 37 44 34 1 19 3 0 0 0 0 0 1 7 0 0 1 47 29 21 14 2 0 0 0 0 0
11 13 14 20 18 8 13 0 25 3 1 0 0 16 10 0 10 4 31 30 12 12 16 16 9 12 0 1 0 0 0 0 3 32 45 18 22 58 31 22 18 1 2 0 0 0 0
11 15 9 18 26 11 2 1 9 5 2 1 0 11 14 0 0 1 19 1 0 3 5 0 0 0 6 0 3 0 0 0 0 51 0 1 47 26 7 16 9 0 0 0 0 0 0
17 12 11 11 15 18 7 3 2 2 1 1 0 1 18 0 0 4 32 0 0 0 0 0 0 0 3 33 88 6 0 0 2 2 0 26 23 21 3 10 3 0 0 0 0 0 0
19 16 19 13 13 16 20 8 1 0 4 0 0 0 11 0 1 18 6 0 0 16 1 1 0 1 8 0 8 12 0 0 17 0 0 1 16 20 3 13 17 1 0 0 0 0 0
26 25 27 20 13 17 17 15 5 0 0 0 0 0 0 0 6 9 7 0 1 2 0 1 0 0 4 16 0 12 0 0 43 0 0 33 5 7 20 0 1 0 0 0 0 0 0
16 22 20 19 17 24 18 13 13 11 0 0 0 0 0 0 9 8 3 0 0 4 0 0 1 9 0 0 3 0 0 7 12 0 2 17 22 3 7 0 0 1 0 0 2 0 0
22 28 31 21 28 29 16 14 17 13 2 0 0 0 1 0 11 7 13 4 25 1 0 0 6 5 4 9 18 20 0 32 20 0 0 11 16 12 1 0 0 0 0 0 0 0 0
18 26 38 31 25 19 17 20 15 15 11 2 0 1 4 1 12 24 6 10 0 0 0 1 3 10 2 0 2 3 0 3 2 0 0 4 33 9 26 0 0 0 5 0 0 0 0
27 16 27 29 16 13 12 23 12 12 11 12 8 12 9 5 21 5 20 1 0 0 0 0 0 7 2 0 4 13 0 2 6 0 0 0 21 1 1 0 0 1 0 0 0 0 0
15 18 30 27 14 9 5 11 27 5 3 7 6 0 4 2 34 21 3 0 0 2 0 5 4 2 5 1 14 22 6 3 2 4 0 0 0 0 0 0 0 0 0 0 0 0 0
16 13 23 30 13 8 4 9 27 3 5 5 1 0 1 2 18 1 0 0 1 0 2 0 0 0 0 1 0 1 2 7 21 0 0 0 0 0 0 0 0 0 0 0 0 0 0
20 20 28 21 13 8 6 8 16 2 6 0 1 0 2 16 4 4 0 0 2 18 1 0 1 1 0 0 1 1 0 11 14 0 0 0 0 0 0 0 0 0 0 0 0 0 0
14 22 31 22 13 7 6 13 13 1 0 0 0 1 2 0 1 3 2 3 4 0 6 5 0 5 0 0 0 20 1 0 2 0 0 0 0 0 0 0 0 0 0 0 0 0 0
19 10 28 22 10 5 5 7 13 0 2 0 0 1 11 5 1 3 1 4 6 0 1 12 0 4 0 0 1 18 2 0 0 0 0 0 0 0 0 0 0 0 0 0 0 0 0
2 30 12 26 11 4 2 2 5 0 1 0 0 1 7 5 2 2 9 5 4 10 21 12 0 0 0 0 0 0 2 0 0 0 0 0 0 0 0 0 0 0 0 0 0 0 0
1 27 24 30 9 4 2 1 4 0 2 0 0 0 0 0 1 1 7 2 6 4 0 0 1 0 0 0 9 0 0 0 0 0 0 0 0 0 0 0 0 0 0 0 0 0 0
3 2 40 33 10 2 1 3 0 0 2 0 0 0 0 0 0 0 2 7 3 7 0 17 0 0 9 4 1 0 0 0 0 0 0 0 0 0 0 0 0 0 0 0 0 0 0
10 6 41 33 8 3 1 3 0 3 0 0 0 0 0 0 0 0 0 0 2 1 0 0 0 0 6 0 0 0 0 0 0 0 0 1 0 0 0 0 0 0 0 0 0 0 0
16 9 5 26 6 0 0 2 0 6 0 0 0 0 0 0 0 0 0 0 0 0 0 0 0 0 0 0 0 0 0 0 0 0 0 0 0 0 0 0 0 0 0 0 0 0 0
5 12 3 29 0 1 0 0 0 5 1 0 0 0 0 0 0 0 0 0 0 0 0 0 0 0 0 0 0 0 0 0 0 0 0 0 0 0 0 0 0 0 0 0 0 0 0
3 6 2 23 1 2 0 0 0 4 2 0 0 0 0 0 0 0 0 0 0 0 0 0 0 0 0 0 0 0 0 0 0 0 0 0 0 0 0 0 0 0 0 0 0 0 0
8 15 2 8 0 0 0 0 1 5 1 0 0 0 0 0 0 0 0 0 0 0 0 0 0 0 0 0 0 0 0 0 0 0 0 0 0 0 0 0 0 0 0 0 0 0 0
6 3 3 4 0 0 0 0 3 5 1 0 0 0 0 0 0 0 0 0 0 0 0 0 0 0 0 0 0 0 0 0 0 0 0 0 0 0 0 0 0 0 0 0 0 0 0
10 6 2 3 0 0 0 2 3 2 1 0 0 0 0 0 0 0 0 0 0 0 0 0 0 0 0 0 0 0 0 0 0 0 0 0 0 0 0 0 0 0 0 0 0 0 0

GFSGBSN_con_mlcape_012.txt.gz
CAPE
21 29 15 8 22 19 25 14 0 0 4 2 1 0 0 0 0 0 0 0 0 11 22 24 36 27 31 17 5 16 0 0 0 3 6 0 31 30 31 34 18 0 0 0 0 0 0
17 26 16 9 3 11 15 30 2 0 1 0 7 0 0 0 0 0 0 0 0 0 22 36 41 21 7 5 0 0 0 0 0 0 13 0 26 23 44 57 26 1 0 0 0 0 0
9 21 18 16 11 1 0 19 8 0 0 0 12 2 2 0 0 0 0 0 1 14 16 37 40 18 24 0 0 0 0 0 0 0 1 4 11 72 18 38 39 21 5 0 0 0 0
20 22 22 18 14 7 0 0 15 0 0 0 5 15 2 0 0 0 0 0 20 34 10 32 25 17 7 0 0 0 0 0 0 0 0 1 5 24 44 49 46 32 35 28 0 1 0
20 35 22 24 19 16 10 2 11 22 9 0 4 19 12 0 0 0 0 11 28 28 28 40 5 13 3 0 0 0 0 0 0 0 0 0 18 24 101 4 38 47 19 11 4 0 0
11 22 15 11 19 20 18 13 8 0 27 0 2 11 19 10 0 0 0 14 44 30 23 25 25 8 0 0 0 0 0 0 0 119 15 33 26 38 85 17 7 22 14 9 10 0 0
18 0 9 11 12 11 14 14 8 0 19 1 0 6 6 14 0 0 0 2 2 5 16 0 0 0 0 0 0 0 0 0 6 72 4 17 16 1 19 21 19 12 0 9 2 0 0
13 3 1 19 15 15 21 14 10 0 0 0 0 6 7 7 17 3 8 0 0 0 2 0 1 0 16 0 29 5 11 0 2 0 2 13 11 1 9 15 12 15 7 4 4 0 0
12 13 3 20 30 19 21 24 17 4 0 0 0 1 2 12 4 1 12 13 0 0 2 4 0 3 9 0 10 54 36 0 0 0 1 2 0 5 7 21 17 27 7 1 1 0 0
18 16 20 8 12 13 12 24 23 11 2 0 1 0 0 7 1 3 10 2 0 0 0 0 5 1 19 32 3 5 28 0 34 1 5 3 7 6 36 10 11 18 15 1 0 15 19
36 20 24 8 7 15 15 14 15 15 9 0 0 0 0 0 11 2 0 0 0 0 0 0 3 0 3 5 19 0 70 0 3 28 2 0 0 15 25 2 0 25 11 1 17 2 0
10 28 21 21 8 9 16 21 16 9 14 6 0 0 0 4 17 1 2 1 0 0 0 1 4 4 13 14 1 68 77 5 39 39 2 0 17 0 21 0 8 0 0 0 0 0 1
18 18 25 24 22 19 16 12 12 16 12 12 5 0 0 3 2 24 3 1 0 0 0 0 0 6 5 5 13 9 12 6 6 0 0 0 8 0 43 24 0 15 6 1 1 1 0
27 15 30 31 26 17 12 11 12 23 16 12 18 1 1 7 16 46 2 1 0 0 0 2 3 4 6 10 11 13 16 17 14 4 0 0 1 23 13 9 0 0 4 3 1 0 0
8 47 18 20 24 21 7 8 5 28 10 4 10 1 3 7 44 20 2 0 0 1 0 1 8 5 2 12 0 16 6 6 2 2 0 0 0 0 7 0 0 0 1 0 0 0 0
7 2 17 14 24 26 10 6 3 26 1 12 0 0 1 0 27 12 0 0 3 3 0 5 0 0 1 11 0 10 5 0 0 1 7 0 0 0 0 0 0 0 0 0 0 0 0
15 8 40 24 10 29 16 9 4 18 8 1 0 0 0 1 4 2 0 0 4 6 0 5 1 1 2 4 0 13 1 0 0 0 10 2 0 0 0 0 1 2 1 0 0 0 0
25 7 47 21 15 31 15 10 9 13 0 0 0 0 2 0 0 2 0 2 5 4 1 0 5 0 0 1 0 23 0 0 0 14 7 0 0 0 0 0 0 0 0 0 3 0 0
8 8 8 33 33 27 13 6 7 18 0 0 0 2 2 0 3 2 3 4 3 5 1 0 4 1 0 0 0 2 3 0 0 2 5 0 0 0 1 0 0 0 0 0 0 0 0
10 10 8 30 31 34 15 2 2 13 4 0 0 1 7 11 7 3 4 3 2 4 1 2 5 14 0 0 0 0 12 0 0 0 0 0 0 0 0 0 0 0 0 0 0 0 0
45 6 18 2 35 39 17 1 0 4 1 0 0 0 0 1 2 1 6 4 5 11 18 25 6 1 0 0 3 8 7 1 0 0 0 0 3 0 0 0 0 0 0 0 0 0 0
31 27 25 5 3 47 18 1 1 2 1 0 0 0 0 1 3 1 0 6 5 5 1 6 6 0 0 0 0 0 3 0 0 0 0 0 7 0 0 0 0 0 0 0 0 0 0
23 17 15 9 2 44 18 0 2 1 0 0 0 0 0 0 0 0 1 0 2 6 1 0 1 0 0 2 0 3 0 0 0 0 0 1 0 0 0 0 0 0 0 0 0 0 0
16 33 15 5 3 11 16 0 1 0 0 0 0 0 0 0 0 0 0 2 0 0 4 0 0 0 0 0 0 0 0 0 0 0 0 0 0 0 0 0 0 0 0 0 0 0 0
17 17 17 11 2 4 10 0 0 1 0 0 0 0 0 0 0 0 0 0 0 0 0 0 0 0 0 0 0 0 0 0 0 0 0 0 0 0 0 0 0 0 0 0 0 0 0
23 31 5 3 2 4 1 1 0 0 2 0 0 0 0 0 0 0 0 0 0 0 0 0 0 0 0 0 1 0 0 0 0 0 0 0 0 1 0 0 0 0 0 0 0 0 0
21 23 16 2 3 4 9 0 0 0 1 0 0 0 0 0 0 0 0 0 0 0 0 0 0 0 0 0 0 0 0 0 0 0 0 0 0 0 0 0 0 0 0 0 0 0 0
17 21 23 10 8 3 9 0 0 0 1 0 0 0 0 0 0 0 0 0 0 0 0 0 0 0 0 0 0 0 0 0 0 0 0 0 0 0 0 0 0 0 0 0 0 0 0
17 18 19 3 2 3 1 0 0 2 2 0 0 0 0 0 0 0 0 0 0 0 0 0 0 0 0 0 0 0 0 0 0 0 0 0 0 0 0 0 0 0 0 0 0 0 0

GFSGBSN_con_mlcape_015.txt.gz
CAPE
7 4 10 16 12 6 19 22 0 0 0 1 2 6 3 0 4 4 0 0 0 0 1 23 31 21 23 27 5 32 0 0 0 2 3 0 0 0 5 13 66 23 10 1 0 2 0
8 2 6 19 12 6 5 11 27 0 0 0 2 7 3 0 0 0 0 0 0 0 0 1 41 31 21 13 0 5 19 0 0 0 2 20 1 0 3 2 23 24 15 9 13 1 0
35 3 2 7 13 16 11 3 16 8 0 0 1 6 1 0 0 12 0 0 0 0 0 0 32 24 27 0 0 0 0 0 0 0 6 9 19 25 21 13 10 28 23 7 9 17 0
22 15 10 10 12 9 16 12 3 14 0 0 0 0 12 6 10 21 20 2 0 0 0 0 2 26 27 0 0 0 0 0 0 0 0 11 32 13 26 40 6 20 46 14 8 11 0
23 16 20 25 9 4 14 19 11 11 17 10 0 0 5 8 0 21 32 31 23 0 8 3 0 32 8 0 0 0 0 0 1 0 0 3 30 27 24 24 29 38 13 13 29 17 0
9 24 32 19 9 1 4 19 10 19 20 17 16 0 0 7 0 0 13 13 31 23 10 25 12 21 0 0 0 0 0 0 4 2 0 15 32 13 10 74 13 14 12 13 7 6 0
15 14 30 16 7 4 4 2 6 20 16 0 16 0 0 0 1 13 3 8 1 1 15 0 0 0 0 0 0 0 0 1 2 13 19 11 19 7 0 0 2 24 47 16 5 10 12
15 16 22 21 18 15 9 3 6 17 15 0 17 1 0 0 0 21 13 5 0 0 1 0 0 1 3 0 0 0 0 7 12 7 9 79 75 10 0 0 7 61 19 24 19 21 0
20 10 15 21 17 24 24 9 0 10 17 5 4 0 0 0 8 7 4 2 0 0 0 2 0 2 0 16 2 11 3 7 3 11 8 78 25 39 5 2 29 27 15 10 10 6 0
57 21 12 16 26 10 13 8 3 5 23 13 1 1 0 7 0 0 12 2 0 0 0 1 0 0 3 10 6 5 41 24 13 15 5 17 26 1 49 2 3 50 46 22 18 3 3
11 51 12 17 24 10 5 15 13 4 5 15 2 0 0 0 20 32 3 1 0 0 0 0 3 0 5 4 9 1 0 64 13 18 3 0 0 3 29 3 26 4 5 17 22 20 5
8 15 57 20 26 22 5 19 18 14 11 10 18 0 1 14 3 19 0 1 0 0 0 1 2 3 6 10 1 23 0 29 32 15 3 1 0 5 11 26 3 5 43 49 12 8 1
0 12 20 59 10 19 9 15 22 9 17 11 27 2 1 0 2 9 0 0 0 0 0 0 0 4 3 4 7 14 6 20 25 2 0 2 0 0 22 22 13 24 19 6 8 6 0
17 36 22 3 40 7 24 22 28 8 13 20 23 18 2 0 21 2 2 1 0 0 0 2 2 1 0 4 13 17 18 15 14 0 0 0 1 2 4 8 2 6 2 0 0 0 0
19 33 30 2 1 22 9 31 20 10 8 21 19 23 2 0 23 1 1 0 1 4 0 1 2 0 1 7 11 15 3 4 7 0 0 0 0 1 6 12 3 0 7 1 0 0 12
19 54 29 16 3 26 13 37 16 10 13 20 1 1 0 0 14 4 2 0 3 4 3 2 0 1 5 1 0 7 4 0 1 0 0 0 0 0 4 0 0 2 17 0 0 0 3
35 34 16 29 6 10 8 44 11 12 32 8 0 0 7 1 9 0 0 0 5 16 2 2 0 8 9 2 4 3 0 0 0 0 0 5 0 0 1 5 2 2 1 0 1 0 14
44 26 61 32 2 18 19 20 15 18 31 0 1 0 1 4 2 2 0 0 5 10 3 3 6 12 7 4 5 6 0 0 0 0 6 10 5 0 0 0 0 0 0 1 2 0 0
47 14 20 11 7 1 34 18 14 30 0 0 0 12 2 1 0 2 2 2 4 2 0 4 4 6 5 2 8 5 6 0 0 0 16 1 0 0 1 0 0 1 0 2 0 6 1
27 26 30 18 14 1 33 10 11 27 0 0 1 6 1 3 1 2 2 1 1 3 2 3 4 5 4 5 0 0 0 1 1 0 1 4 0 0 1 0 0 0 0 0 0 0 0
33 35 20 13 5 10 3 10 10 14 4 0 0 6 0 0 2 1 4 4 5 6 1 0 7 5 2 0 0 4 0 7 3 0 0 13 5 5 1 0 0 0 0 0 0 0 0
39 44 21 11 1 5 5 9 8 7 8 0 0 0 24 9 0 1 1 2 3 1 0 8 2 8 0 0 0 1 3 14 10 25 16 5 8 0 0 0 0 0 0 0 0 0 0
39 35 23 18 26 4 3 16 11 7 0 1 0 0 0 8 18 8 3 0 1 2 3 3 14 16 14 1 0 35 5 7 8 1 4 7 13 4 6 0 0 0 0 0 0 0 0
30 38 23 17 2 7 2 3 8 7 0 0 0 0 3 0 0 4 5 6 1 1 5 0 1 0 7 0 0 30 0 0 1 1 1 0 9 1 0 0 0 0 0 0 0 0 0
20 29 18 32 14 3 4 2 7 5 3 0 0 0 7 0 0 0 0 6 3 2 2 0 0 0 0 0 17 11 0 0 0 0 2 1 10 9 0 0 0 0 0 0 0 0 0
17 36 23 26 12 10 2 3 11 4 7 1 0 0 0 0 0 0 0 0 0 0 0 0 0 0 0 2 19 1 0 1 0 3 0 0 4 17 1 1 0 0 0 0 0 0 0
7 28 19 27 15 7 4 3 18 0 4 0 0 0 0 1 0 0 0 0 0 0 0 0 0 0 0 2 4 7 4 0 0 0 0 0 7 0 0 0 0 0 0 0 0 0 0
6 25 17 19 18 7 1 0 6 1 5 0 0 0 1 8 0 0 0 0 0 0 0 0 0 0 7 6 0 1 0 0 0 2 1 0 0 0 1 0 0 0 0 0 0 0 0
6 25 14 16 10 2 2 0 5 1 3 1 0 0 1 3 2 0 0 0 0 0 0 0 0 0 0 0 0 0 0 0 0 0 0 0 0 0 0 0 0 0 0 0 0 0 0

GFSGBSN_con_mlcape_018.txt.gz
CAPE
18 19 6 8 24 14 10 13 21 7 1 0 0 1 1 0 0 0 0 0 0 0 4 20 14 0 0 6 1 7 0 0 0 0 1 1 4 0 0 9 18 22 31 12 1 0 0
7 20 21 5 10 22 15 11 8 9 13 2 0 1 3 0 1 1 0 0 0 3 0 13 38 21 1 2 0 4 15 1 0 5 29 41 17 2 0 5 1 22 27 21 19 2 2
4 1 23 13 4 15 15 16 11 3 20 9 0 0 3 0 0 1 0 0 0 4 13 1 45 1 13 0 0 0 5 0 0 0 0 20 15 34 17 6 4 5 14 48 2 4 10
8 5 7 22 14 19 21 16 14 9 5 1 0 0 0 17 0 8 0 0 0 1 31 29 43 35 10 0 0 0 0 0 0 0 0 0 5 14 24 9 31 42 25 1 0 9 6
11 8 3 16 8 13 25 18 17 16 7 7 1 9 0 12 13 12 0 0 0 8 22 29 0 35 1 0 0 0 0 0 0 0 0 0 0 24 20 15 5 21 0 0 0 2 8
38 7 2 10 24 19 18 17 17 10 19 8 5 14 14 7 25 13 0 0 0 0 9 16 3 13 0 0 0 0 0 1 1 3 4 0 5 7 21 14 0 0 10 0 0 0 9
10 49 0 7 19 25 12 17 20 16 8 11 2 2 17 4 12 24 2 0 0 0 3 0 0 0 0 0 0 0 0 1 6 10 5 6 8 0 0 0 0 0 1 24 0 19 13
6 7 52 15 2 15 26 17 21 12 9 18 5 0 8 0 10 15 18 3 1 0 0 0 0 0 0 1 1 0 0 8 10 8 8 16 4 0 0 1 0 8 3 2 19 24 15
14 20 16 47 23 1 32 18 24 8 10 6 11 0 0 0 15 8 3 0 0 0 0 3 0 0 0 0 4 4 0 0 1 1 3 4 0 0 0 0 13 4 5 1 1 27 13
35 30 25 3 41 13 7 19 13 14 11 16 13 0 4 1 1 0 4 1 1 0 0 0 1 0 0 0 0 0 2 2 4 1 2 13 0 0 17 6 12 6 1 3 82 0 13
35 47 9 8 4 34 11 21 17 18 25 21 20 1 5 0 8 15 3 0 0 0 0 0 3 0 2 0 1 0 0 9 15 0 19 0 0 0 6 0 6 0 22 0 0 7 12
42 51 34 3 5 3 24 38 23 25 42 26 30 12 8 1 0 6 1 0 0 0 0 0 0 1 4 3 4 2 0 20 10 6 12 0 24 12 0 0 0 0 31 10 15 5 8
60 58 52 24 1 2 3 50 25 30 41 34 36 21 1 1 0 0 0 0 0 0 0 0 1 2 2 3 3 2 3 8 8 6 0 2 0 0 11 8 0 11 38 1 5 4 0
69 82 73 38 5 0 11 58 25 22 51 36 43 28 3 0 3 0 0 0 0 3 0 1 1 1 0 2 2 0 3 7 5 0 0 1 0 0 0 0 24 17 0 0 1 0 0
84 81 77 48 0 0 12 2 37 28 50 40 55 23 2 3 3 0 0 0 0 6 0 1 1 0 1 4 10 3 9 1 0 1 11 0 0 1 0 0 14 5 0 0 8 0 0
66 80 88 28 33 29 21 55 25 36 28 42 43 10 1 1 5 1 1 1 3 5 1 2 0 1 0 1 2 7 2 0 0 0 0 0 0 0 2 0 2 10 0 1 6 0 2
70 72 40 49 31 19 19 1 24 35 27 51 1 2 0 2 2 3 0 0 1 6 3 1 0 2 1 0 1 4 0 0 0 0 0 1 0 0 3 6 0 5 3 3 0 2 21
25 48 25 31 19 5 8 2 32 49 39 16 1 2 1 3 3 1 1 0 2 3 7 3 4 7 7 10 0 5 0 9 0 0 0 1 0 0 0 0 0 0 1 0 10 0 0
20 29 29 33 24 27 8 5 29 56 23 0 1 1 9 7 1 1 2 1 4 6 3 3 1 0 4 10 4 0 0 9 0 0 0 1 0 0 2 0 13 6 0 0 0 0 0
14 19 34 25 38 18 21 3 4 40 11 3 0 1 2 2 2 1 1 0 1 3 2 8 1 6 3 8 10 0 0 0 0 0 2 9 3 0 0 0 0 1 0 0 0 0 0
10 16 22 23 19 33 21 3 4 36 3 1 0 1 0 1 1 1 0 4 1 1 1 1 4 1 3 8 8 0 0 23 0 0 0 1 1 3 0 0 0 0 0 0 0 0 0
6 10 24 28 23 5 3 7 2 41 5 4 0 0 0 2 0 0 1 1 1 1 3 2 0 7 1 0 1 0 0 4 4 0 0 0 0 0 0 0 0 0 0 0 0 0 0
4 5 19 36 16 10 11 1 2 12 1 1 0 0 0 3 5 4 2 0 1 3 1 0 0 0 6 0 1 0 4 22 3 0 0 3 0 9 0 0 0 0 0 0 0 0 0
6 5 14 29 19 7 7 2 1 11 17 0 0 0 2 0 0 1 22 7 3 1 4 6 11 3 14 1 23 17 2 5 7 1 9 0 0 2 0 0 0 0 0 0 0 0 0
12 3 13 17 29 14 9 4 3 24 19 0 0 0 1 1 0 0 3 0 5 7 8 1 0 0 0 0 20 15 1 10 1 0 1 6 19 11 0 0 0 0 0 0 0 0 0
12 6 10 11 20 17 12 3 2 2 19 1 0 0 0 1 0 0 0 0 4 3 0 0 0 0 0 0 18 1 0 0 0 0 0 2 12 4 0 0 0 0 0 0 0 0 0
12 9 11 19 16 22 12 0 1 2 22 2 0 0 0 1 0 0 0 0 14 0 0 0 0 0 0 0 12 2 0 0 0 0 0 2 8 1 1 0 0 0 0 0 0 0 0
14 9 7 20 19 21 6 0 7 3 20 6 0 0 0 2 1 0 0 0 0 0 0 0 0 0 3 10 0 8 2 0 0 0 0 0 1 1 0 1 0 0 0 0 0 0 0
12 7 7 20 16 21 7 5 0 3 13 8 2 0 1 0 2 0 0 0 0 0 0 0 0 0 9 3 1 0 0 0 0 0 0 0 0 0 0 0 0 0 0 0 0 0 0

GFSGBSN_con_mlcape_021.txt.gz
CAPE
9 0 1 2 23 9 17 14 16 17 16 0 0 0 4 3 0 0 0 0 0 0 0 9 17 13 4 1 0 0 0 0 0 0 16 10 1 0 0 0 0 0 0 6 0 0 0
25 6 2 0 6 11 5 20 19 12 17 19 6 0 1 5 0 0 0 0 0 0 0 0 5 26 2 0 0 0 0 0 0 0 0 15 2 5 6 0 0 1 5 0 0 3 0
17 57 6 2 0 14 7 9 19 23 13 21 26 1 0 0 0 0 0 8 0 0 0 0 0 6 2 0 0 0 0 0 0 0 0 3 23 46 21 1 0 0 0 0 0 0 4
31 23 70 13 1 3 17 12 19 25 18 17 23 2 0 0 9 0 14 0 1 1 0 0 0 2 0 0 0 0 0 0 0 0 0 0 0 0 6 10 0 1 7 0 0 0 2
8 11 23 76 20 0 6 21 25 24 35 28 21 3 0 0 0 7 0 0 0 0 21 7 0 0 0 0 0 0 0 0 0 0 0 0 0 0 0 7 0 9 0 6 1 0 5
8 7 8 17 58 18 10 10 16 11 34 23 22 11 2 2 0 16 2 0 0 0 16 16 3 6 0 0 0 0 0 0 0 0 2 0 0 0 0 19 1 0 0 0 0 0 1
8 9 6 6 9 69 32 19 18 13 11 23 26 10 10 11 0 7 0 0 0 0 9 0 0 0 0 0 0 0 0 0 0 1 2 0 0 1 0 0 0 0 0 0 0 5 0
21 8 16 15 33 18 87 23 7 9 15 14 22 30 17 15 0 7 1 0 1 0 0 1 0 0 0 0 0 0 0 0 5 4 0 2 1 0 0 0 8 0 0 0 0 0 5
22 24 16 12 23 1 11 60 13 8 13 17 29 23 19 4 1 2 1 0 0 2 8 3 0 0 0 0 1 0 0 0 0 2 0 0 0 0 0 0 0 0 0 0 0 0 0
14 23 27 16 33 9 25 28 28 16 24 38 43 26 15 3 0 0 1 0 0 2 7 0 0 2 3 0 0 1 2 0 10 2 0 1 0 0 0 0 2 0 0 0 0 10 3
15 16 28 36 46 38 39 6 1 44 30 57 65 35 8 0 0 0 0 0 2 10 0 0 2 0 7 5 0 0 0 2 3 1 0 0 0 0 0 0 2 0 0 0 8 3 5
20 22 36 55 95 58 61 0 9 52 51 58 73 59 9 0 0 0 0 0 0 3 0 0 0 0 1 6 8 9 0 4 7 5 1 0 2 2 0 0 2 0 0 0 16 23 14
23 34 63 76 104 63 51 3 28 14 53 56 59 45 9 0 0 0 0 0 0 0 0 0 1 1 1 4 2 3 7 3 1 0 0 0 0 1 0 0 4 15 3 1 3 9 0
28 31 58 71 53 85 63 8 34 48 41 42 93 59 3 0 0 0 0 0 0 0 0 0 1 0 2 0 3 2 5 0 9 0 1 0 0 0 0 0 0 0 0 0 0 0 0
17 31 48 44 25 34 84 6 11 7 48 25 95 57 4 2 0 0 1 1 0 0 0 1 1 1 0 3 1 2 0 0 1 0 0 0 0 0 0 0 0 0 0 0 1 0 6
29 21 26 23 41 45 10 4 7 16 45 20 63 64 24 0 0 1 1 0 0 0 1 1 0 0 0 1 1 2 0 0 0 0 0 0 0 0 0 1 1 20 5 0 0 0 1
36 22 20 25 34 39 29 3 0 40 36 100 11 48 2 1 3 3 0 0 1 3 1 1 0 0 0 0 0 0 0 0 0 0 0 0 0 0 0 0 0 4 0 26 8 0 1
39 30 17 23 29 32 21 28 8 17 83 64 4 8 1 2 4 3 0 1 1 2 6 2 3 2 3 1 0 0 0 0 0 0 0 0 0 0 0 7 11 0 0 0 0 0 0
38 35 18 29 24 45 19 27 17 1 37 2 3 7 2 0 1 0 2 0 0 2 3 3 2 2 0 6 0 0 0 0 0 0 0 0 0 0 0 1 6 0 2 4 4 2 0
35 32 18 17 24 45 18 5 4 5 3 4 1 1 14 6 2 1 1 0 1 2 4 8 4 0 0 7 0 0 0 0 0 0 0 0 0 0 0 3 2 1 0 2 4 0 0
38 20 20 13 24 33 13 20 10 2 23 0 0 1 1 0 0 1 1 1 0 0 3 4 1 1 0 0 0 0 0 0 0 0 4 1 0 1 0 1 1 1 0 1 2 0 0
31 15 19 10 21 26 30 11 12 2 19 4 0 0 0 0 1 1 1 0 0 2 2 3 0 0 0 0 0 0 0 0 2 0 0 0 0 4 0 0 1 0 0 0 0 0 1
26 9 16 10 22 21 26 26 10 4 2 5 0 0 0 1 0 2 1 0 0 1 1 0 0 0 0 0 4 3 2 0 9 0 0 0 1 1 0 2 1 0 0 0 0 0 0
36 13 12 9 17 25 42 19 1 6 1 0 0 2 0 2 0 1 4 9 0 1 0 1 0 1 0 11 6 16 12 1 7 1 0 0 0 0 0 0 0 0 0 0 0 0 0
28 20 7 11 11 9 21 20 6 2 2 1 0 7 2 1 2 0 1 0 17 4 3 1 2 0 0 1 5 12 1 1 0 0 0 0 0 5 0 0 0 0 0 0 0 0 0
34 26 10 7 13 29 24 18 11 2 3 0 0 0 0 0 0 0 0 5 0 3 1 2 0 0 0 0 8 0 0 0 1 1 0 0 7 9 4 0 0 0 0 0 0 0 0
42 27 11 6 16 29 33 24 7 2 2 1 1 0 0 0 0 0 2 0 3 3 3 0 0 0 1 2 2 0 0 0 0 0 0 0 12 3 0 3 0 0 0 0 0 0 0
28 27 12 8 13 17 19 10 3 1 1 1 1 0 1 0 0 0 0 0 2 6 1 0 0 0 2 3 4 7 6 0 0 0 0 0 0 1 3 0 0 0 0 0 0 0 0
31 16 14 4 11 15 18 12 7 2 1 1 0 0 0 0 1 0 0 0 0 5 1 0 0 0 4 2 0 0 0 0 0 0 0 0 0 0 0 0 0 0 0 0 0 0 0

GFSGBSN_con_mlcape_024.txt.gz
CAPE
5 28 72 41 0 3 31 23 12 27 37 28 11 0 2 5 1 0 0 0 0 0 0 0 1 1 0 0 0 0 0 0 0 20 15 6 0 0 0 0 0 0 0 0 0 1 0
5 6 17 26 49 0 0 30 22 29 33 35 22 7 0 1 5 0 0 0 0 0 0 0 0 4 0 0 0 0 0 0 0 0 12 10 0 0 0 0 0 0 0 0 0 0 0
4 1 0 6 25 39 3 9 17 20 29 35 35 19 0 0 5 0 0 0 0 0 0 0 0 0 0 0 0 0 0 0 0 1 0 1 2 21 21 0 0 0 0 0 0 0 0
12 15 11 1 4 5 55 7 11 11 16 47 31 35 13 0 0 2 14 0 0 0 0 0 0 1 0 0 0 0 0 0 0 0 0 0 0 0 0 1 0 0 0 0 0 0 0
7 9 13 11 3 3 11 48 14 5 5 42 43 33 21 0 0 17 10 0 0 0 3 11 0 0 0 0 0 0 0 0 0 0 0 0 0 0 0 7 7 1 0 0 0 0 0
9 7 3 3 7 9 24 20 79 11 4 46 40 39 33 6 0 5 14 0 0 0 0 28 5 0 0 0 0 0 0 0 0 0 0 0 0 0 0 4 0 1 0 0 0 0 0
18 14 10 27 18 15 3 11 1 89 12 9 20 39 23 15 10 4 6 0 0 0 8 0 0 0 0 0 0 0 0 0 0 0 0 0 0 0 0 0 0 0 0 0 0 0 0
36 42 43 21 25 17 15 11 8 14 25 18 12 50 50 19 33 4 0 0 0 0 0 0 0 0 0 1 0 0 0 0 0 0 0 1 3 0 0 0 0 0 0 0 0 0 0
11 38 35 20 34 16 25 26 7 1 67 32 7 39 56 18 48 11 0 0 0 0 3 1 0 2 2 9 3 0 0 0 0 0 0 0 0 0 0 0 0 0 0 1 2 0 0
35 14 36 22 31 31 39 33 13 1 29 27 22 42 67 44 1 0 3 0 0 6 0 0 0 0 3 22 10 4 1 0 4 1 0 1 0 0 0 0 0 0 0 0 9 4 0
49 30 37 21 23 36 52 46 10 15 31 28 48 62 42 0 0 0 0 0 1 12 0 0 1 0 10 5 0 0 0 3 2 1 0 0 0 0 0 0 0 0 0 0 0 1 7
29 22 37 17 63 62 75 86 47 13 43 36 43 85 9 0 0 0 0 0 11 0 0 0 0 0 3 4 9 2 0 11 9 6 1 0 0 0 0 0 0 2 5 0 0 8 1
45 29 24 30 71 59 20 57 21 51 24 6 1 106 5 0 0 0 0 0 0 0 0 0 0 0 0 2 0 2 5 2 1 3 0 0 1 0 1 1 1 14 17 0 1 3 0
46 15 38 19 26 40 15 18 58 56 9 1 1 79 4 0 0 0 0 2 0 0 0 1 0 1 0 0 0 2 11 1 1 0 0 0 0 1 0 0 0 0 0 0 0 0 0
33 32 34 15 23 47 10 33 47 34 1 0 1 64 4 1 0 0 0 1 0 0 0 0 2 2 2 2 1 3 5 2 1 1 0 0 0 0 0 0 2 0 19 0 0 0 1
46 35 22 19 14 31 26 49 37 25 8 20 13 68 9 0 0 0 1 0 0 0 0 0 0 0 0 1 3 2 0 0 1 0 0 0 0 0 0 0 0 8 2 1 0 0 0
41 41 28 14 19 19 30 37 35 30 12 36 14 16 6 1 1 4 0 0 0 0 0 0 0 0 0 0 1 0 0 0 0 0 0 0 0 0 0 0 0 1 0 8 1 0 3
27 52 34 11 18 14 28 8 7 16 12 39 29 2 4 2 3 2 0 0 0 0 2 1 1 1 1 3 0 0 0 0 0 0 0 0 0 0 0 0 0 1 1 2 7 0 4
37 34 29 14 16 18 24 38 25 22 10 29 19 11 3 0 0 0 2 0 0 1 2 2 1 1 0 7 0 0 0 0 0 0 0 1 0 0 0 0 2 1 2 0 10 1 0
41 28 23 15 16 14 26 38 17 11 6 7 1 0 4 5 4 0 1 2 1 0 3 4 2 6 5 2 1 0 0 0 0 0 0 3 0 0 0 0 2 1 2 0 5 3 0
33 31 26 16 19 15 34 26 29 17 4 3 6 2 0 1 1 0 0 0 1 1 1 5 1 4 1 0 0 0 0 0 0 0 3 2 0 0 0 0 2 6 0 0 0 0 0
34 39 30 21 24 10 21 28 34 3 1 20 9 0 0 2 1 0 0 0 0 1 1 1 1 0 6 0 0 0 0 0 0 1 1 4 0 0 0 0 4 1 4 3 0 1 0
32 20 30 22 14 9 11 8 9 21 3 27 13 0 0 0 0 1 1 0 1 0 1 1 1 1 1 0 0 0 0 2 0 0 1 2 0 0 0 1 2 1 3 0 0 0 0
32 26 33 28 9 6 15 32 15 6 6 3 3 0 3 2 1 0 0 0 0 0 0 4 1 3 0 0 4 21 9 13 0 0 0 0 0 2 0 1 0 0 0 0 0 0 0
28 26 21 27 4 4 12 26 14 7 7 2 0 0 0 0 5 3 1 0 0 0 5 5 2 0 0 29 17 7 0 2 0 1 0 0 0 1 0 0 0 0 0 0 0 0 0
34 30 14 27 5 4 9 33 18 4 2 2 0 2 8 2 0 4 0 3 0 0 2 10 0 0 0 26 10 0 0 0 0 0 0 0 0 2 0 0 0 0 0 0 0 0 0
36 34 12 14 9 10 9 22 23 7 1 4 0 3 1 14 0 0 0 1 0 0 3 4 2 0 1 3 1 0 0 0 0 0 1 2 5 1 0 0 0 0 0 0 0 0 0
35 32 21 6 16 9 4 20 20 7 1 4 1 0 8 1 0 0 0 0 2 1 1 0 3 0 2 11 3 10 2 0 0 0 0 0 0 0 0 0 0 0 0 0 0 0 0
33 26 17 5 13 4 6 27 18 7 3 4 1 0 0 5 1 0 0 0 0 0 1 6 0 0 3 4 0 0 2 0 0 0 0 0 0 0 0 0 0 0 0 0 0 0 0

GFSGBSN_con_mlcape_027.txt.gz
CAPE
1 0 1 0 1 16 70 17 7 14 4 41 27 27 12 0 6 6 3 0 0 0 0 0 0 0 0 0 0 0 0 0 0 31 15 9 0 0 0 0 0 0 0 0 0 0 0
12 11 3 4 4 2 3 12 33 25 8 9 46 35 20 4 1 9 1 0 0 0 0 0 0 7 0 0 0 0 0 0 0 3 20 25 0 0 0 0 0 0 0 0 0 0 0
11 18 9 6 7 6 1 1 13 23 1 11 32 37 24 11 0 8 6 6 1 0 0 0 0 0 0 0 0 0 0 0 0 0 1 22 36 16 13 1 0 0 0 0 0 0 0
7 15 15 21 27 8 4 0 15 14 32 5 6 36 42 24 2 4 12 21 17 2 0 0 0 0 0 0 0 0 0 0 0 0 0 0 25 0 0 0 1 1 0 0 0 0 0
10 8 18 20 15 22 20 10 3 7 19 34 0 13 32 25 8 0 8 30 11 0 8 14 0 0 0 0 0 0 0 0 0 0 0 0 0 0 0 7 3 0 0 0 0 0 0
6 5 7 5 15 23 26 29 13 4 2 16 12 6 36 34 16 0 15 28 2 0 3 36 2 0 0 0 0 0 0 0 0 0 0 0 0 0 2 8 0 0 0 0 0 0 0
14 6 9 16 30 16 16 35 39 9 7 1 31 8 37 49 9 9 20 0 0 0 4 0 0 0 0 0 0 0 0 0 0 0 0 0 0 0 0 0 0 0 0 0 0 0 0
33 43 39 13 24 28 19 19 29 19 5 2 13 16 37 62 27 10 0 0 0 0 0 0 0 0 0 0 0 0 0 0 0 0 0 1 0 0 0 0 0 0 0 0 0 0 0
25 38 29 42 52 38 18 27 33 37 33 8 0 34 31 79 37 15 0 0 0 0 0 0 0 1 0 5 11 0 0 0 0 0 0 0 0 0 0 0 0 0 0 2 0 0 0
44 30 43 33 44 32 27 26 48 43 52 23 2 69 39 79 37 5 2 1 0 3 0 0 0 0 4 16 0 0 0 0 0 0 0 0 0 0 0 0 0 0 0 0 0 0 0
33 44 43 30 29 46 35 60 40 59 53 24 3 2 31 65 0 0 0 0 0 1 0 0 1 0 12 4 0 0 0 3 2 0 0 0 0 0 0 0 0 3 0 1 7 0 0
40 31 50 29 56 26 49 106 69 31 10 17 37 3 57 0 0 0 0 0 1 0 0 0 0 1 2 6 2 3 2 13 9 5 1 0 0 0 0 0 0 2 2 4 9 3 0
46 32 66 53 58 42 75 67 15 5 15 9 20 12 48 0 0 0 0 0 0 0 0 0 0 1 0 0 0 2 0 10 6 1 0 0 0 0 0 0 0 2 1 0 0 0 0
39 35 63 52 31 34 31 11 19 93 62 18 19 36 33 0 0 1 0 0 0 0 0 0 0 0 0 0 0 0 6 1 4 6 0 0 0 1 0 0 0 0 0 0 0 0 0
43 50 48 34 34 25 31 27 29 57 19 22 28 19 36 7 0 10 0 0 0 0 0 0 0 1 1 0 0 3 5 1 0 0 0 0 0 0 0 0 0 0 0 0 0 0 0
30 45 60 46 34 29 19 46 56 35 22 9 23 6 28 4 0 1 1 0 0 0 0 0 0 0 0 1 2 2 0 0 0 0 1 0 0 0 0 1 0 0 0 5 1 0 0
23 45 54 33 21 25 18 44 39 27 31 22 15 3 8 15 1 2 0 0 0 0 0 0 0 0 1 0 1 0 0 0 0 0 0 2 0 0 1 1 0 0 0 2 1 0 0
27 36 51 27 14 21 17 20 51 35 25 26 9 0 6 2 1 1 0 0 0 0 0 0 0 2 3 2 0 1 0 0 0 0 0 0 0 0 0 0 0 0 0 2 1 0 0
36 34 35 32 11 24 15 22 39 32 30 23 0 5 10 19 0 0 1 0 0 0 0 1 1 1 1 4 0 0 0 0 0 0 0 0 0 0 0 0 2 0 0 2 0 4 0
35 33 46 33 21 20 27 18 26 13 20 5 4 0 10 4 2 0 2 2 2 0 3 3 1 3 3 4 1 0 0 0 0 0 0 0 0 0 0 0 0 0 3 3 2 0 0
37 32 44 28 30 11 22 14 14 3 3 1 15 1 0 1 1 0 0 1 1 1 1 5 1 1 1 0 0 2 0 0 0 0 2 0 0 0 0 0 0 0 0 2 1 1 0
35 31 45 32 28 10 15 16 16 2 1 20 8 3 4 4 2 1 0 2 0 2 0 1 1 2 2 3 1 0 0 0 0 0 2 4 0 0 0 0 3 1 2 2 0 0 0
29 37 45 25 25 10 9 10 7 16 11 2 3 0 2 2 1 2 1 1 0 1 1 0 1 0 3 3 1 0 0 0 0 0 2 1 0 0 0 3 0 1 0 1 1 0 1
28 34 47 21 22 3 3 12 16 18 16 4 2 4 8 2 2 2 0 0 0 1 1 0 0 1 1 4 0 0 0 0 1 0 0 1 0 0 0 0 0 0 2 1 3 1 1
26 38 36 23 12 3 7 6 17 21 9 3 2 0 4 7 0 0 0 3 3 2 1 1 5 2 0 1 6 2 6 3 0 0 0 0 0 0 0 0 0 0 0 0 1 0 0
26 32 38 29 7 3 5 4 18 12 5 1 0 1 2 8 1 11 3 3 3 1 0 0 0 0 0 2 14 0 1 1 1 1 0 1 0 0 1 0 0 0 0 0 0 0 0
27 31 33 25 8 3 4 3 20 19 5 4 0 1 1 1 4 0 3 0 0 1 1 1 3 0 2 7 4 2 0 0 0 0 1 0 2 0 1 1 0 0 0 0 0 0 0
38 38 27 27 14 3 6 3 19 13 4 6 0 0 6 5 2 0 0 0 2 0 1 1 1 1 1 11 1 1 1 0 0 0 0 0 0 0 0 0 0 0 0 0 0 0 0
34 48 31 31 20 5 5 2 20 16 5 2 1 3 4 7 2 0 0 0 0 0 0 0 0 0 1 2 0 1 9 0 0 0 0 0 0 0 0 0 0 0 0 0 0 0 0

GFSGBSN_con_mlcape_030.txt.gz
CAPE
12 6 9 8 7 4 4 1 1 5 52 23 19 32 50 26 12 2 2 6 1 1 0 0 9 5 2 0 0 0 0 0 0 20 7 7 0 0 0 0 0 0 0 0 0 0 0
6 16 11 8 2 3 1 5 6 0 7 39 11 6 26 30 24 7 6 2 0 0 0 0 2 11 0 0 0 0 0 0 0 11 31 29 6 0 0 0 0 0 0 0 0 0 0
8 6 8 6 9 16 2 4 15 0 4 16 40 10 26 31 26 14 4 9 10 1 0 0 0 0 0 0 0 0 0 0 0 5 16 25 19 7 12 0 0 0 0 0 0 0 0
9 4 9 9 11 20 30 27 22 30 2 6 3 25 7 37 33 22 14 9 23 9 0 0 9 0 0 0 0 0 0 0 0 0 0 0 12 3 5 0 0 5 1 0 0 0 0
16 5 13 3 16 7 30 45 36 28 22 2 8 6 24 26 46 16 13 27 31 16 8 14 0 0 0 0 0 0 0 0 0 0 0 0 0 0 0 3 2 1 0 0 0 0 0
9 9 6 7 24 16 21 46 43 40 23 32 4 13 18 23 65 15 20 31 29 1 5 22 0 0 0 0 0 0 0 0 0 0 0 0 0 2 3 2 0 0 0 0 0 0 0
12 9 26 16 19 26 28 33 33 33 16 28 31 9 0 29 55 15 15 0 0 0 3 0 1 0 0 0 0 0 0 0 0 0 0 0 0 0 0 0 0 0 0 1 0 0 0
39 49 44 37 33 17 24 27 43 40 37 33 32 16 2 17 59 13 0 0 0 0 0 0 0 0 0 0 0 0 0 0 0 0 0 0 0 0 0 0 0 0 1 0 0 0 0
43 28 24 27 27 32 21 32 39 43 39 58 37 19 18 8 51 5 0 0 0 0 0 0 0 0 0 2 0 0 0 0 0 0 0 0 0 0 0 0 0 0 0 0 0 0 0
16 17 36 33 36 34 41 59 55 51 62 59 22 2 10 3 61 1 4 0 0 0 0 0 0 0 0 8 1 0 0 0 0 0 0 0 0 0 0 0 0 0 0 0 0 0 0
15 26 33 53 41 42 32 74 70 51 41 26 22 6 4 11 2 1 0 0 0 0 0 0 1 8 16 0 0 0 0 4 5 0 0 0 0 0 0 0 0 0 0 0 0 0 0
24 26 25 63 60 66 75 43 36 27 19 15 62 17 15 0 12 0 0 0 0 0 0 0 0 3 4 2 3 3 11 16 3 4 1 0 0 0 0 0 0 2 3 4 0 1 1
28 20 27 50 40 41 45 39 16 52 31 98 115 47 49 8 3 0 0 0 0 0 0 0 1 1 1 1 0 2 4 9 2 1 0 1 1 0 0 0 0 2 1 0 0 0 0
26 27 29 44 39 43 20 35 62 36 95 78 45 62 13 11 2 0 0 0 0 0 0 0 0 0 0 0 0 0 4 2 13 5 0 0 0 1 0 0 0 0 0 0 0 0 0
21 37 32 45 47 24 15 22 67 88 20 45 22 21 5 18 4 0 2 0 0 0 0 0 1 0 0 0 0 5 3 0 1 1 0 0 0 0 0 0 0 1 0 0 0 0 0
46 35 33 46 43 28 12 16 29 64 24 11 22 50 1 34 26 7 0 0 0 0 0 0 0 0 0 0 0 1 0 0 2 1 2 0 0 0 0 0 1 2 0 1 0 0 0
33 32 38 55 47 24 12 18 14 52 37 8 17 15 20 39 30 7 0 0 0 0 0 0 0 0 0 0 0 2 0 0 0 0 0 2 1 0 1 0 0 2 2 0 0 0 0
30 34 44 53 44 24 11 18 23 34 22 7 22 6 32 46 1 1 2 0 0 0 0 0 0 0 0 0 1 1 0 0 0 0 0 0 1 0 0 0 0 0 0 1 0 0 0
27 36 51 57 35 29 13 16 27 36 44 24 26 36 38 0 0 0 0 0 0 0 0 0 0 0 0 2 0 1 0 0 0 0 0 0 1 0 0 0 0 0 0 2 0 0 0
31 38 46 53 43 35 13 8 22 33 5 4 0 0 5 3 2 0 0 2 0 0 0 0 1 2 3 3 2 0 0 0 0 0 0 0 1 0 0 0 0 0 0 0 0 1 0
43 46 46 48 48 25 10 1 15 28 6 2 0 0 0 0 0 1 0 0 1 1 2 5 2 3 2 0 0 5 0 0 0 0 0 0 1 1 0 0 0 0 0 0 0 0 0
30 40 53 56 28 29 7 8 12 30 0 14 0 2 1 0 2 0 0 1 0 0 0 0 2 2 2 1 0 0 0 0 0 0 0 2 0 0 0 1 1 1 2 1 0 1 2
26 39 49 51 27 11 7 6 8 28 21 3 4 18 5 4 7 2 1 0 0 0 0 0 0 1 1 0 0 1 0 0 0 1 3 1 0 0 0 0 0 0 0 1 2 2 1
29 38 51 54 22 6 4 5 8 18 26 8 6 6 13 1 1 1 1 0 0 0 0 0 0 3 2 4 5 5 0 0 0 0 0 0 0 0 0 0 0 0 9 4 2 4 0
25 40 43 39 23 7 3 2 2 16 23 3 2 2 6 4 4 6 4 0 1 4 4 4 4 0 2 3 4 1 0 0 0 0 0 0 2 0 0 0 0 0 0 0 0 0 0
31 38 34 30 27 16 3 3 1 15 14 2 1 1 3 2 0 3 1 2 1 2 1 5 2 8 2 5 3 0 0 0 0 0 0 0 1 1 0 0 0 0 0 0 0 0 0
27 18 31 27 33 20 8 4 3 19 15 3 1 1 2 3 1 0 1 0 0 0 1 3 1 0 1 6 2 0 0 0 0 0 0 1 2 0 1 0 0 0 0 0 0 0 0
18 32 35 31 25 20 10 3 2 15 14 3 1 0 4 1 0 0 0 1 0 0 0 1 0 2 3 10 0 1 0 1 0 0 0 0 0 0 0 0 0 0 0 0 0 0 0
20 27 30 29 23 12 6 4 4 22 17 0 2 0 4 4 1 0 0 0 0 2 0 4 3 5 7 8 0 3 3 0 0 0 0 0 0 0 0 0 0 0 0 0 0 0 0

GFSGBSN_con_mlcape_033.txt.gz
CAPE
11 9 8 8 5 4 5 8 9 3 4 3 9 23 40 8 52 14 1 0 0 0 0 0 10 0 0 1 1 0 0 0 0 4 8 1 0 0 0 0 0 0 0 0 0 0 0
10 11 8 10 9 14 8 1 6 15 14 5 5 11 11 4 35 19 8 0 0 0 0 0 0 2 0 0 0 0 0 0 0 8 14 7 0 0 0 0 0 0 0 0 0 0 0
5 11 7 5 20 4 9 8 4 4 10 22 6 9 10 28 13 36 24 2 0 0 0 0 0 0 0 0 0 0 0 0 0 6 4 10 1 0 0 0 0 0 0 0 0 0 0
3 4 5 6 5 14 21 6 21 39 16 13 14 9 9 2 18 33 41 17 0 7 7 2 12 0 0 0 0 0 0 0 0 0 0 4 13 19 8 0 0 1 1 0 0 0 0
6 7 11 6 16 18 16 25 50 40 26 33 29 19 4 10 13 35 35 46 30 28 29 21 0 0 0 0 0 0 0 0 0 0 0 0 2 0 1 0 0 0 0 0 0 0 0
26 27 51 49 30 2 11 22 45 35 30 38 26 38 16 15 0 26 30 24 33 7 16 15 3 0 0 0 0 0 0 0 0 0 0 0 0 2 1 0 0 0 0 0 0 0 0
63 46 19 38 50 39 27 9 16 34 35 47 37 35 30 21 2 21 14 7 0 0 0 0 0 0 0 0 0 0 0 0 0 0 0 0 0 0 0 0 0 0 0 0 0 0 0
44 10 30 20 39 39 34 37 34 47 48 53 61 45 35 13 20 4 0 1 0 0 0 0 0 0 0 0 0 0 0 0 0 0 0 0 0 0 0 0 0 2 2 0 0 0 0
23 33 33 33 27 18 30 35 29 40 57 58 50 38 43 7 28 3 1 0 0 0 0 0 0 0 0 0 0 0 0 0 0 0 0 0 0 0 0 0 0 0 0 0 0 0 0
26 42 40 26 25 29 38 33 42 62 73 24 47 16 7 15 3 19 3 0 0 0 0 0 0 0 1 12 0 0 0 0 0 0 0 0 0 0 0 0 0 0 0 0 0 0 0
24 33 28 27 23 36 34 30 30 27 17 23 8 14 11 35 8 18 0 0 0 0 0 0 0 3 7 0 0 0 0 2 0 0 0 0 0 0 0 0 0 0 0 0 0 0 0
34 23 29 26 27 34 30 34 21 30 11 32 90 95 56 20 10 0 0 0 0 0 0 0 1 10 7 8 9 1 6 16 3 3 0 0 0 0 0 0 0 0 0 2 1 0 0
20 29 39 20 14 28 25 30 13 32 80 26 34 83 70 14 0 17 0 5 0 0 0 0 1 5 3 2 4 2 3 6 2 1 0 2 0 1 0 0 0 0 1 0 0 0 0
30 39 31 24 25 35 21 19 3 29 61 19 36 46 67 46 18 33 1 0 0 0 0 0 0 1 1 1 0 2 3 4 5 2 0 0 0 0 0 1 0 0 1 0 0 0 0
34 26 27 29 30 44 21 22 3 23 45 7 2 9 23 19 29 7 1 0 0 0 0 0 1 3 2 0 0 1 2 0 0 4 1 0 0 0 0 0 1 1 3 0 0 0 1
42 33 28 32 32 33 22 25 6 22 47 36 13 4 11 43 28 21 0 0 0 0 0 0 0 0 0 0 0 2 1 0 0 0 0 0 0 0 0 0 1 3 0 0 3 0 0
17 24 31 36 39 47 33 25 5 31 40 15 4 8 4 19 32 3 0 0 0 0 0 0 0 0 0 0 0 0 0 0 0 0 1 0 0 0 2 0 0 1 1 1 1 1 1
35 29 27 37 55 45 33 21 21 30 38 19 6 0 0 34 0 0 0 0 0 0 0 0 0 0 0 0 1 0 0 0 0 0 0 0 1 0 0 0 0 0 0 0 0 0 0
29 29 33 44 59 50 24 8 9 27 35 13 10 8 18 0 0 0 0 0 0 0 0 0 0 0 0 0 0 0 0 0 0 0 0 0 0 0 0 0 0 0 0 1 1 0 0
30 27 35 41 56 49 18 3 6 25 21 8 1 0 0 1 1 0 0 0 0 0 0 0 0 0 0 2 0 0 1 0 0 0 0 0 0 0 0 0 0 0 0 1 0 0 0
31 18 34 41 43 29 11 3 5 25 8 6 0 0 0 0 1 0 0 0 0 0 0 0 0 0 0 2 4 2 1 0 0 0 0 0 0 0 0 0 0 1 1 0 1 0 0
25 25 31 27 34 27 8 4 4 10 7 1 8 2 0 0 0 0 1 0 0 0 0 0 0 0 0 4 2 0 0 0 0 0 0 0 0 1 0 1 1 0 0 2 0 1 1
22 25 27 21 5 27 12 3 5 5 26 4 0 0 8 0 1 1 0 0 0 0 0 0 0 0 3 0 1 0 0 0 2 1 0 2 0 0 0 0 0 0 0 1 0 1 0
22 27 29 20 5 16 16 3 3 2 28 8 4 3 6 0 1 0 0 0 0 0 0 0 0 2 0 0 1 3 2 0 1 1 0 1 0 0 0 0 0 0 3 0 2 1 0
15 20 9 25 5 13 12 3 1 2 18 4 2 2 2 1 1 2 1 0 0 2 1 1 3 0 4 0 3 2 2 0 0 0 0 0 2 0 0 1 0 0 0 0 1 0 0
7 17 26 24 18 8 11 2 0 1 14 0 0 1 1 5 0 2 1 0 1 1 5 3 2 7 0 2 3 0 0 0 0 1 0 0 2 0 1 1 0 0 0 0 0 0 0
18 16 13 27 31 16 14 1 0 1 11 1 0 1 2 0 0 2 0 0 7 3 1 0 1 2 4 2 0 2 0 0 0 0 0 0 0 0 0 0 0 0 0 0 0 0 0
22 22 12 29 16 9 19 0 0 3 15 3 0 0 2 0 1 0 0 0 0 0 0 1 2 0 2 1 1 4 2 4 0 0 0 0 0 0 0 0 0 0 0 0 0 0 0
14 20 26 17 7 16 6 1 1 8 17 12 1 0 1 0 1 0 0 0 0 0 0 0 2 4 7 2 0 1 1 3 0 0 0 0 0 0 0 0 0 0 0 0 0 0 0

GFSGBSN_con_mlcape_036.txt.gz
CAPE
8 8 10 10 8 4 9 3 5 5 8 5 9 2 6 17 36 41 25 10 0 0 0 0 0 0 0 2 0 0 0 0 0 33 25 2 0 0 0 0 0 0 0 0 0 0 0
7 7 5 9 8 10 9 9 17 15 13 23 12 3 5 1 8 16 41 16 1 0 0 0 0 0 0 0 0 0 0 0 1 18 34 14 2 0 0 0 0 0 0 0 0 0 0
3 8 7 5 9 18 22 18 12 24 17 28 30 29 13 0 9 16 43 24 4 0 0 0 0 0 0 0 0 0 0 0 0 21 40 12 0 0 0 4 3 0 0 0 0 0 0
12 20 24 26 27 16 6 4 9 21 25 26 24 25 15 11 6 2 29 48 20 3 0 0 0 0 0 0 0 0 0 0 0 7 24 20 12 5 5 0 1 0 0 0 0 0 0
33 32 24 35 53 51 19 7 4 2 21 32 32 29 31 30 21 2 23 65 24 21 5 5 0 0 0 0 0 0 0 0 0 0 0 21 14 7 3 3 1 0 0 0 0 0 0
29 10 16 36 46 60 22 35 30 31 16 33 48 67 46 46 16 22 1 59 42 16 27 33 2 0 0 0 0 0 0 0 0 0 0 0 0 1 0 0 0 0 0 0 0 0 0
14 10 24 26 42 47 32 30 32 31 39 50 75 78 70 39 27 19 10 0 1 0 4 0 0 0 0 0 0 0 0 0 0 3 6 3 4 0 0 0 0 0 0 0 0 0 0
15 33 42 37 23 43 26 42 49 35 47 80 92 67 104 47 45 15 38 4 0 0 0 0 0 0 0 0 0 0 0 0 0 1 7 1 0 0 0 0 1 2 0 0 0 0 0
28 33 35 31 29 38 32 57 47 32 30 60 58 55 55 45 29 9 11 11 0 0 0 0 0 0 0 0 0 0 0 0 0 0 0 0 0 0 0 0 3 2 1 0 0 0 0
31 26 26 26 35 27 31 53 30 31 20 37 34 28 63 46 6 0 4 6 0 0 0 0 0 0 0 1 0 0 0 0 0 0 1 2 0 0 0 0 0 0 0 0 0 0 0
32 27 26 32 37 30 40 57 30 17 14 50 54 89 89 66 7 17 18 9 0 0 0 0 5 6 9 0 0 1 0 0 2 0 0 0 0 1 1 0 0 0 0 0 1 1 0
25 38 26 25 32 33 45 36 28 16 15 38 74 27 68 26 9 0 30 3 2 1 0 3 4 8 6 6 5 5 6 13 5 2 1 0 0 0 0 0 0 0 3 5 5 8 1
21 36 35 20 29 45 41 41 28 10 13 23 21 30 28 16 0 5 0 8 0 0 0 2 3 14 8 7 19 8 7 4 3 1 1 4 2 1 0 4 1 5 2 2 0 1 0
27 25 26 33 36 44 41 39 30 10 8 24 14 5 41 4 53 16 16 0 0 0 1 3 9 11 7 2 6 5 7 4 10 4 2 0 0 1 0 2 2 2 4 0 0 0 0
22 24 28 35 47 43 52 33 32 6 13 16 9 15 47 84 58 23 1 0 0 0 0 2 4 4 1 1 0 1 4 3 0 1 0 2 0 0 0 0 2 5 2 0 5 5 3
25 33 40 34 46 46 47 25 9 4 11 22 3 24 18 52 47 4 1 0 0 0 0 0 1 0 1 1 1 1 1 0 1 2 2 2 0 0 0 0 1 5 2 1 1 1 0
22 29 34 37 55 58 43 24 1 8 13 29 1 4 8 27 1 0 0 0 3 0 0 0 0 1 1 2 1 1 1 0 0 0 9 2 0 0 0 1 0 2 4 2 0 1 1
20 28 25 37 52 50 33 6 3 10 17 5 3 0 9 28 0 0 0 7 4 0 0 0 0 0 0 0 1 1 0 0 0 0 0 0 2 1 0 0 0 0 0 1 1 0 0
17 30 23 33 50 36 21 0 3 11 34 3 5 4 9 12 0 0 1 2 0 0 0 0 0 0 0 0 0 1 0 0 0 0 0 2 4 0 0 0 0 2 0 0 0 0 0
14 21 29 27 39 22 11 1 0 6 5 4 4 0 0 0 2 1 1 2 0 0 0 0 0 0 0 0 0 3 0 0 0 0 0 1 4 0 0 0 0 0 0 0 0 0 0
15 22 36 27 28 22 14 0 0 0 0 1 0 3 2 0 3 4 5 2 0 0 0 0 0 0 0 0 0 1 0 0 0 0 0 0 0 0 0 0 0 0 2 3 0 0 0
20 21 20 25 17 14 15 2 1 0 0 0 1 12 2 0 0 3 1 0 0 0 0 0 0 0 0 0 0 2 1 0 2 0 1 2 1 2 0 0 2 0 0 2 0 0 1
22 22 18 10 26 8 4 10 1 2 9 0 0 0 2 2 2 3 1 0 0 0 0 0 0 0 2 0 0 1 4 1 6 6 7 3 1 0 0 0 0 0 1 2 2 0 2
18 11 17 8 27 3 8 8 0 1 9 7 3 5 2 1 2 1 0 0 0 0 0 0 0 1 1 0 0 1 3 7 13 4 8 7 0 0 0 0 0 0 0 0 2 2 0
27 22 17 5 22 3 7 7 0 1 6 5 1 1 1 2 4 2 2 2 0 0 0 5 5 1 6 12 1 7 1 4 0 0 0 1 4 0 0 1 0 0 0 0 1 0 2
11 21 19 8 24 5 6 2 0 2 3 2 0 1 1 3 1 2 6 0 1 1 1 4 4 7 3 6 2 1 0 0 0 3 0 0 1 1 0 0 0 0 0 0 0 0 0
4 9 17 16 17 4 16 0 0 0 6 6 0 2 1 9 1 2 5 1 0 3 2 1 2 5 5 3 1 2 1 0 0 0 0 0 1 1 0 0 0 0 0 0 0 0 0
2 5 9 14 15 17 9 1 0 0 8 1 0 1 2 1 6 4 3 0 0 1 0 1 0 1 2 1 0 2 0 3 0 0 0 0 0 0 0 1 0 0 0 0 0 0 0
2 1 3 4 2 1 2 0 0 1 5 1 1 0 1 1 2 0 0 0 0 0 0 0 0 0 3 1 0 13 6 2 0 1 0 0 0 0 0 0 0 0 0 0 0 0 0

GFSGBSN_con_mlcape_039.txt.gz
CAPE
5 7 5 11 9 14 17 22 18 11 13 11 11 16 14 2 3 6 37 71 4 3 1 0 0 0 1 0 10 0 0 0 2 53 41 11 7 12 7 1 0 0 0 0 0 0 0
4 11 11 4 7 7 12 11 9 8 16 15 16 25 30 26 4 2 5 49 32 4 2 0 0 0 0 0 0 0 0 0 2 23 52 22 16 8 13 9 0 1 0 0 0 0 0
10 19 34 21 23 0 4 8 5 3 7 19 21 16 20 25 15 3 3 42 49 24 3 0 0 0 0 0 0 0 0 0 20 11 30 27 14 0 5 2 7 0 0 0 0 0 0
17 43 27 21 28 34 41 24 13 8 8 7 21 31 21 28 27 22 17 41 75 19 2 0 0 0 0 0 0 0 0 0 7 45 41 2 0 7 3 0 0 0 0 0 0 0 0
39 15 11 31 29 29 31 35 31 35 31 14 16 25 49 60 53 39 12 27 15 1 3 6 0 0 0 0 0 0 0 4 18 25 33 27 12 9 4 2 3 1 0 0 0 0 0
27 23 28 32 34 25 29 37 27 39 29 36 28 45 68 56 32 44 16 15 30 45 44 27 4 0 0 0 0 0 0 8 13 8 17 12 5 1 2 12 0 0 0 0 0 0 0
15 30 30 19 34 30 30 27 50 35 41 37 59 53 59 66 91 43 22 1 45 23 40 0 0 0 0 0 0 0 0 6 9 10 3 5 2 0 0 0 0 0 0 0 0 0 0
31 32 45 32 31 27 38 42 66 62 41 36 27 78 69 63 79 54 19 10 8 6 3 2 0 0 0 0 0 0 0 1 11 10 2 2 1 0 0 0 0 0 0 0 0 0 0
39 48 23 35 25 32 44 54 73 48 40 23 17 53 60 28 55 27 13 0 4 2 6 7 2 0 0 0 1 0 0 1 2 9 1 6 0 0 0 0 0 0 0 0 0 0 0
18 25 35 37 22 29 40 60 68 50 35 13 19 56 58 11 5 8 14 0 22 12 0 0 3 1 1 1 2 2 0 0 2 5 7 8 0 0 0 0 0 0 0 0 0 0 0
10 33 38 29 24 42 56 66 65 34 32 20 14 29 45 52 14 18 22 1 11 31 0 0 1 4 7 0 0 6 2 5 4 0 0 0 0 0 0 0 0 0 0 0 0 0 0
23 26 21 24 32 39 52 65 66 34 30 14 12 16 33 19 80 37 21 81 3 0 0 3 3 2 2 6 9 11 10 10 5 0 2 2 0 0 0 0 0 0 0 1 0 0 0
13 31 32 35 44 35 46 57 35 29 24 13 6 12 13 54 54 84 10 2 1 0 0 2 4 9 4 2 9 13 11 10 1 1 0 4 0 0 0 1 1 2 1 0 0 0 0
29 26 28 34 32 37 50 40 27 18 22 11 21 1 75 66 78 25 2 0 1 0 1 0 12 19 10 4 8 11 15 4 2 1 0 0 0 0 0 1 1 1 2 0 0 0 0
31 21 27 23 31 35 45 28 24 6 15 20 7 3 85 58 75 0 1 0 0 0 1 4 15 17 13 7 3 17 16 4 2 0 0 0 0 0 0 3 1 3 0 0 3 0 0
26 22 20 24 27 34 26 25 16 13 21 25 10 10 64 61 43 8 0 0 0 0 0 3 1 1 1 11 4 6 4 0 0 2 4 1 0 0 3 2 2 0 0 0 0 0 0
22 19 25 25 21 25 13 25 7 11 15 6 2 5 69 91 30 2 0 2 4 1 0 3 2 1 0 3 0 0 0 0 0 0 0 3 1 0 0 0 0 0 1 2 2 1 0
22 19 28 30 10 15 17 19 3 2 19 1 4 0 29 0 0 0 0 8 7 1 1 2 1 0 0 2 0 1 2 0 0 0 1 0 5 0 0 0 0 0 1 1 0 0 0
24 23 26 22 11 8 15 12 0 2 8 9 1 2 16 12 0 0 1 8 7 0 2 3 0 0 0 1 0 2 0 0 0 0 2 0 2 0 0 0 0 0 0 0 0 0 0
25 23 22 24 19 6 13 7 0 0 3 10 1 0 3 13 13 3 1 4 1 1 4 0 0 0 0 1 0 0 1 0 0 0 0 1 5 0 0 0 0 0 0 0 0 0 0
21 27 22 17 20 4 10 9 0 0 0 0 3 3 2 0 12 18 7 0 1 1 2 0 0 0 0 0 2 0 1 1 0 0 0 1 1 2 1 0 0 0 0 0 1 0 0
9 10 8 16 25 2 9 3 0 0 0 0 1 4 4 6 4 9 1 4 0 0 0 0 2 0 0 0 1 2 3 0 0 0 1 1 0 4 0 0 0 0 0 1 2 0 1
22 19 26 16 19 4 2 4 0 0 0 1 0 0 7 2 6 2 1 9 5 0 0 0 0 0 0 0 0 2 0 2 6 4 4 19 3 3 0 0 0 0 1 2 3 3 7
16 11 25 23 9 10 2 5 0 1 7 5 0 1 1 2 2 7 3 6 3 1 6 2 0 1 2 1 0 3 1 0 0 7 14 15 3 2 0 0 1 0 0 0 0 0 2
8 6 15 32 7 6 5 4 0 1 10 1 1 1 1 4 9 1 1 4 4 0 6 6 2 4 4 8 1 4 4 3 0 2 10 7 5 0 0 0 0 0 0 0 0 0 0
4 6 10 17 13 9 9 1 0 0 4 0 1 1 1 2 0 7 13 0 0 5 5 8 1 6 0 9 1 1 0 3 1 1 0 2 3 1 1 1 0 0 0 0 0 0 0
2 3 3 11 12 13 5 0 0 1 5 0 0 1 2 1 4 17 4 5 5 4 3 5 1 0 1 1 3 1 7 5 5 5 2 1 1 0 0 0 0 0 0 0 0 0 0
2 4 2 0 1 1 0 0 0 2 3 1 0 2 2 1 5 13 14 17 0 15 1 1 0 0 1 1 0 3 3 7 0 2 5 1 0 0 1 0 0 0 0 0 0 0 0
2 5 2 1 1 4 2 1 5 0 1 0 0 0 0 1 5 0 2 0 1 1 2 0 1 0 4 1 1 5 9 6 4 3 0 1 0 7 1 0 0 0 0 0 0 0 0

GFSGBSN_con_mlcape_042.txt.gz
CAPE
13 12 13 15 13 7 7 12 10 10 13 23 19 17 16 14 30 24 3 4 12 84 16 1 0 0 0 11 3 8 7 9 52 39 32 11 0 0 0 0 0 0 0 0 0 0 0
15 7 45 10 25 31 28 13 12 9 3 9 16 25 9 23 18 26 13 2 3 100 22 7 0 0 0 0 1 0 0 0 0 55 34 37 8 5 11 2 1 1 0 0 0 0 0
24 30 16 16 15 33 39 43 25 29 35 20 15 21 24 15 9 28 26 7 7 60 32 20 0 0 0 0 0 0 0 0 4 20 49 54 13 0 6 10 2 7 0 0 0 0 0
24 26 21 23 39 44 53 33 32 18 38 35 32 32 20 9 39 48 35 16 2 19 30 26 0 1 1 0 0 0 0 0 4 17 34 17 1 3 6 0 0 0 0 0 0 0 0
22 20 23 42 36 22 41 31 38 35 40 58 30 39 44 39 45 22 51 38 3 5 51 34 6 7 0 0 0 0 0 0 4 3 44 13 9 0 0 0 1 1 0 0 0 0 0
4 32 22 35 19 27 33 47 52 59 52 55 68 75 63 15 87 67 24 20 10 20 51 56 39 6 0 0 0 0 0 5 13 24 32 21 13 1 11 6 0 0 0 0 0 0 0
23 41 48 23 26 34 33 45 57 53 73 71 85 28 30 58 102 84 52 0 14 7 24 5 0 0 0 0 0 0 0 5 6 23 2 6 2 0 0 2 0 0 0 0 0 0 0
44 16 15 30 32 25 28 40 53 79 87 70 52 21 27 24 71 97 36 18 2 9 14 9 3 8 0 0 0 0 0 5 5 2 1 0 0 0 0 0 0 0 0 0 0 0 0
11 19 19 28 25 33 42 48 76 80 69 32 24 14 29 75 15 6 8 3 9 8 3 4 16 12 0 0 0 0 0 3 2 3 4 1 0 0 0 0 0 0 0 0 0 0 0
34 31 14 31 40 39 40 45 65 72 48 36 22 16 22 33 9 2 0 18 11 16 0 3 11 17 0 0 0 0 0 0 5 2 5 1 0 0 0 0 0 0 0 0 0 0 0
27 22 24 27 30 39 34 45 49 61 38 21 19 14 14 33 27 1 22 19 15 0 0 1 2 14 0 0 0 0 0 3 3 0 0 0 0 0 0 0 0 0 0 0 0 0 0
40 16 23 27 29 26 37 39 36 24 22 23 14 8 22 5 20 3 26 17 0 0 0 1 1 7 14 19 5 0 4 0 0 0 0 0 0 0 0 0 0 0 0 0 0 0 0
36 24 22 24 24 26 34 32 21 24 15 12 16 4 8 18 20 62 25 1 0 0 1 0 3 3 2 12 10 6 3 0 0 0 0 0 0 0 0 1 0 0 0 0 0 0 0
13 17 21 33 27 22 25 24 29 12 16 13 20 14 10 64 49 5 12 0 0 4 0 0 9 4 10 10 8 12 9 2 1 0 0 0 0 1 0 0 0 0 0 0 0 0 0
10 21 27 30 28 18 25 32 21 5 10 12 8 0 28 63 37 0 0 0 0 1 0 9 11 7 8 5 0 7 4 2 1 3 0 0 0 0 0 1 0 1 0 0 0 0 0
8 21 27 31 29 21 20 28 20 5 16 7 17 0 49 54 2 0 0 0 0 0 0 6 2 4 0 0 2 11 8 1 0 1 0 0 0 0 1 0 1 0 0 0 0 0 0
16 23 27 29 33 23 15 15 12 4 8 16 0 0 51 9 0 2 0 0 0 2 0 5 0 0 1 3 2 1 0 0 0 0 0 0 1 0 0 0 0 0 0 0 0 0 0
5 30 34 23 31 23 11 16 3 7 22 2 7 0 26 5 0 0 0 0 3 2 9 0 0 0 1 3 4 0 0 0 1 2 0 0 0 0 0 0 0 0 0 0 0 0 0
7 32 14 21 5 25 6 22 0 3 22 7 0 5 6 0 0 0 0 2 0 3 4 5 2 0 0 0 0 0 0 0 0 0 2 0 0 0 0 0 0 0 0 0 0 0 0
20 17 19 19 10 18 7 14 0 1 8 0 1 0 0 3 6 1 4 9 2 11 7 0 0 0 0 0 0 0 0 0 0 0 0 0 0 0 0 0 0 0 0 0 0 0 0
17 32 31 23 11 18 9 11 0 0 0 0 6 0 0 0 1 1 2 2 0 0 2 4 2 3 2 0 1 0 0 0 0 0 0 0 0 0 0 0 0 0 0 0 0 0 0
14 24 25 27 11 22 6 10 0 0 0 0 0 0 8 0 0 5 0 1 10 5 6 0 3 0 0 1 2 0 0 0 0 0 2 1 0 0 0 0 0 0 0 0 0 0 1
16 12 14 17 18 17 7 9 0 1 2 1 0 0 1 1 1 0 6 2 1 1 0 0 0 0 0 0 0 0 0 0 0 0 1 2 0 0 0 0 0 0 0 0 0 0 3
7 6 9 11 16 12 13 5 0 2 8 2 0 1 0 0 0 1 0 3 2 14 0 0 0 1 0 0 0 0 0 0 3 8 3 4 0 0 0 0 0 0 0 0 0 0 0
7 6 6 5 13 15 18 5 2 2 6 0 0 1 1 3 5 1 2 2 12 2 1 0 0 1 1 2 0 1 0 0 0 1 2 9 1 0 0 0 0 0 0 0 0 0 0
9 7 4 3 4 3 6 4 1 0 4 0 1 0 2 0 1 5 1 0 0 2 0 3 5 5 0 0 1 0 0 0 1 0 1 7 9 1 0 0 0 0 0 0 0 0 0
10 9 5 4 2 3 4 1 2 7 0 0 0 0 2 0 7 6 3 1 4 3 2 8 4 3 1 2 0 0 0 1 3 2 0 0 1 0 0 0 0 0 0 0 0 0 0
7 11 6 6 5 4 6 6 3 7 0 1 0 0 1 1 0 13 6 17 9 9 0 1 1 2 2 2 2 0 0 2 0 5 0 0 0 0 2 1 0 0 0 0 0 0 0
9 11 8 7 10 12 11 12 11 9 2 1 1 0 0 1 0 6 10 2 4 4 9 0 2 0 0 0 0 0 0 0 4 4 0 1 0 0 0 0 0 0 0 0 0 0 0

GFSGBSN_con_mlcape_045.txt.gz
CAPE
21 21 33 21 12 18 17 29 31 23 35 36 25 29 34 46 23 19 32 37 22 11 11 42 4 3 3 7 0 4 144 18 84 23 0 0 1 4 0 0 0 0 0 0 0 0 0
18 23 21 11 31 35 39 32 32 31 30 31 48 60 34 14 28 14 25 32 30 19 12 71 6 22 0 0 0 0 3 40 46 28 5 28 1 0 0 0 0 0 0 0 0 0 0
39 6 21 25 25 47 26 19 26 32 42 44 41 39 44 35 15 25 37 43 34 11 1 92 8 10 1 0 0 0 0 0 0 11 27 20 38 10 5 0 0 0 0 0 0 0 0
24 22 35 18 26 37 13 29 39 51 49 52 57 78 92 80 60 40 38 30 35 6 2 11 21 10 1 0 0 0 0 0 0 9 20 33 17 2 4 0 0 0 0 0 0 0 0
14 26 40 38 15 16 24 29 40 53 68 60 88 93 100 85 57 60 62 33 28 3 1 59 34 8 2 0 0 0 0 0 12 38 26 5 0 0 0 2 0 0 0 0 0 0 0
19 37 15 15 21 28 34 38 49 69 70 71 81 91 72 55 38 59 81 57 18 3 37 42 28 8 0 0 0 0 0 0 17 29 30 16 2 0 0 0 0 0 0 0 0 0 0
20 13 17 13 23 29 39 44 51 51 61 63 55 40 38 35 29 14 30 0 7 0 58 3 1 0 0 0 0 0 0 0 33 6 0 3 0 0 0 0 0 0 0 0 0 0 0
7 41 38 9 26 31 38 45 48 38 47 43 26 18 21 27 54 55 15 0 8 6 0 0 2 0 0 0 0 0 0 2 16 1 0 2 0 0 0 2 0 0 0 0 0 0 0
11 28 17 19 26 36 35 34 31 29 36 32 20 24 18 29 28 3 8 0 27 0 0 4 5 1 0 0 0 0 0 2 2 5 0 0 0 0 0 0 0 0 0 0 0 0 0
14 19 26 20 28 25 28 18 20 19 18 19 21 20 20 18 18 2 1 0 17 0 0 1 4 3 0 2 0 0 0 0 4 0 0 1 0 0 0 0 0 0 0 0 0 0 0
24 16 19 21 29 23 23 23 16 23 26 14 17 26 24 40 4 9 3 0 0 1 0 1 5 13 10 0 0 0 0 0 0 0 0 0 0 0 0 0 0 0 0 0 0 0 0
31 11 25 25 34 26 22 19 15 25 9 9 3 6 34 4 3 0 23 0 3 0 0 1 1 16 20 5 0 0 0 0 0 8 4 0 0 0 0 0 0 0 0 0 0 0 0
12 13 23 33 30 26 22 20 23 16 10 10 7 40 36 22 9 6 2 0 0 0 0 0 1 5 14 16 0 0 1 0 0 0 0 0 0 0 0 0 0 0 0 0 0 0 0
2 7 28 32 32 33 27 24 18 10 16 17 19 33 5 43 13 4 4 0 0 0 0 3 7 6 24 7 9 6 1 0 0 0 0 0 0 0 0 0 0 0 0 0 0 0 0
6 12 23 33 33 27 22 14 14 8 4 13 52 1 16 11 12 3 0 0 0 0 1 2 2 1 4 4 1 5 1 0 0 0 0 0 0 0 0 0 0 0 0 0 0 0 0
5 22 27 29 26 23 12 7 14 4 14 35 0 3 0 11 0 0 0 2 0 3 1 0 0 0 5 9 1 4 2 0 0 0 0 0 0 0 1 0 0 0 0 0 0 0 0
9 20 14 20 20 17 6 8 7 4 11 23 0 1 9 9 0 1 0 0 0 5 1 1 0 2 0 7 2 6 0 0 0 0 0 0 0 1 0 0 0 0 0 0 0 0 0
9 25 35 18 17 17 4 7 3 7 22 5 0 1 7 4 0 0 0 0 5 0 0 2 0 0 0 2 4 3 0 0 0 0 0 0 0 0 0 0 0 0 0 0 0 0 0
8 17 42 32 24 7 2 3 0 4 22 0 0 1 0 0 1 0 0 1 1 7 13 10 1 0 1 4 0 4 0 0 0 0 0 0 0 0 0 0 0 0 0 0 0 0 0
8 14 15 31 27 11 1 3 0 0 1 0 0 0 0 0 0 0 1 1 1 6 7 1 0 0 1 5 0 1 0 0 0 0 0 0 0 0 0 0 0 0 0 0 0 0 0
9 16 10 16 25 6 2 4 0 0 0 0 0 0 0 0 0 1 2 0 5 6 1 8 0 0 1 1 0 0 0 0 0 0 0 0 0 0 0 0 0 0 0 0 0 0 0
9 9 10 8 17 11 6 2 0 0 0 0 0 0 0 0 0 1 0 1 13 2 0 5 0 2 0 0 0 0 0 0 0 0 0 0 0 0 0 0 0 0 0 0 0 0 0
10 10 9 5 11 21 9 2 0 0 0 1 0 0 0 0 0 0 0 0 2 1 0 0 0 0 0 0 0 0 0 0 0 0 0 1 0 0 0 0 0 0 0 0 0 0 0
7 12 10 5 4 12 7 3 0 0 2 1 1 1 0 0 0 0 1 1 0 0 0 0 0 0 0 0 0 0 0 0 0 0 0 0 0 0 0 0 0 0 0 0 0 0 0
9 14 11 9 2 2 1 0 0 1 1 0 1 1 1 0 0 0 0 4 8 0 0 0 0 0 0 0 0 0 0 0 0 3 2 6 0 0 0 0 0 0 0 0 0 0 0
13 11 10 9 7 3 4 1 0 2 0 0 0 1 2 0 0 0 3 1 2 2 1 2 1 2 0 0 0 0 0 0 0 1 5 7 10 0 0 0 0 0 0 0 0 0 0
7 18 9 8 10 11 6 5 3 1 0 0 0 0 2 0 1 11 3 0 0 3 2 8 1 3 0 0 0 0 0 0 0 0 3 4 8 0 0 0 0 0 0 0 0 0 0
6 22 12 9 8 14 12 11 6 6 2 0 0 0 0 1 0 7 19 16 8 12 0 0 0 0 0 0 0 0 0 0 1 2 0 0 0 0 1 0 0 0 0 0 0 0 0
10 18 15 9 12 6 19 5 14 4 7 2 0 0 0 1 0 0 5 3 17 15 6 0 0 0 1 1 0 0 0 0 0 3 0 0 0 0 0 0 0 0 0 0 0 0 0

GFSGBSN_con_mlcape_048.txt.gz
CAPE
19 44 5 13 24 7 38 28 31 25 38 43 50 51 43 56 21 24 17 20 23 29 20 0 16 24 12 0 0 0 117 0 38 38 14 2 1 0 0 0 0 0 0 0 0 0 0
24 18 9 26 33 35 36 12 31 29 42 45 49 61 77 108 71 38 31 17 30 27 21 8 1 24 0 0 0 0 43 45 112 46 42 8 7 0 0 0 0 0 0 0 0 0 0
6 11 10 39 15 7 16 21 24 34 44 59 54 73 93 90 109 82 55 43 37 39 9 0 0 19 0 0 0 0 40 70 97 44 1 11 35 9 0 0 0 0 0 0 0 0 0
8 20 50 14 8 14 26 26 39 41 51 51 52 79 98 91 105 97 72 90 52 42 13 0 4 48 0 0 0 0 0 0 0 30 50 38 41 7 0 0 0 1 0 0 0 0 0
15 21 12 15 12 16 28 35 39 43 35 31 43 77 70 74 83 67 61 52 73 56 21 1 1 15 0 0 0 0 0 0 25 20 25 52 31 11 0 0 0 0 0 0 0 0 0
29 14 32 28 17 21 29 31 39 39 32 29 34 37 26 35 27 39 2 3 15 45 12 7 13 1 0 0 0 0 0 0 88 99 62 41 2 4 2 1 0 0 0 0 0 0 0
17 16 44 13 24 28 34 40 16 33 31 35 31 25 24 26 36 61 12 0 0 6 42 0 1 0 0 0 0 0 0 0 56 36 5 12 3 0 0 2 0 0 0 0 0 0 0
23 25 31 37 27 27 25 29 28 23 21 24 24 22 27 23 19 40 0 2 0 2 0 0 5 0 0 0 0 0 0 6 29 0 0 2 0 0 1 1 0 0 0 0 0 0 0
23 30 20 30 25 28 30 24 28 18 25 22 11 12 18 19 5 2 0 3 5 0 0 6 4 2 1 0 0 0 0 5 2 0 0 0 0 0 0 0 1 0 0 0 0 0 0
20 5 17 33 28 28 29 26 25 33 28 11 19 15 6 24 0 0 1 7 0 2 0 3 6 8 7 0 0 0 2 0 3 3 0 0 0 0 0 0 0 0 0 0 0 0 0
27 8 18 33 28 44 46 24 36 31 30 20 21 13 19 39 6 0 9 11 5 3 0 0 4 2 12 0 0 8 0 0 0 0 0 0 0 0 0 0 0 0 0 0 0 0 0
15 9 11 23 30 32 30 27 34 21 17 32 23 34 79 29 16 0 11 16 2 0 0 1 3 1 7 0 0 4 6 0 0 0 0 0 0 0 0 0 0 0 0 0 0 0 0
10 15 7 36 21 27 38 25 19 18 34 19 19 34 82 35 8 3 3 5 0 0 0 0 2 9 3 4 1 11 0 0 0 0 0 0 0 0 0 0 0 0 0 0 0 0 0
13 11 24 19 30 18 28 19 24 18 27 4 1 2 14 46 37 3 4 0 0 0 0 1 2 9 11 0 10 7 0 0 0 0 0 0 0 0 0 0 0 0 0 0 0 0 0
3 17 9 25 22 18 39 17 16 7 6 9 0 0 1 1 0 0 0 1 0 0 0 12 11 0 3 4 6 1 0 0 0 0 0 0 0 0 0 0 0 0 0 0 0 0 0
7 15 13 14 25 5 30 14 7 5 8 17 0 0 10 6 1 0 0 0 0 0 2 0 0 0 0 5 1 1 0 0 0 0 0 0 0 0 0 0 0 0 0 0 0 0 0
2 14 13 31 32 2 13 12 6 15 23 0 0 0 1 3 1 0 0 0 0 6 2 0 0 0 0 0 0 0 0 0 0 0 0 0 0 0 0 0 0 0 0 0 0 0 0
9 9 8 12 22 8 4 11 4 9 3 0 0 0 0 0 0 0 0 0 3 2 0 0 0 0 0 0 0 0 0 0 0 0 0 0 0 0 0 0 0 0 0 0 0 0 0
6 14 1 8 14 5 4 6 0 3 2 0 0 0 0 0 0 0 0 0 2 2 1 0 0 0 0 0 0 1 0 0 0 0 0 0 0 0 0 0 0 0 0 0 0 0 0
4 11 1 4 8 11 4 2 0 0 0 0 0 0 0 0 1 0 0 0 4 6 0 0 0 0 0 0 0 0 0 0 0 0 4 0 0 0 0 0 0 0 0 0 0 0 0
2 8 1 1 4 16 8 3 0 0 0 0 0 0 0 0 1 1 0 0 4 0 0 0 0 0 1 2 0 0 0 0 0 0 0 0 0 0 0 0 0 0 0 0 0 0 0
4 5 1 0 1 7 5 3 0 0 0 0 0 0 0 0 1 0 0 0 0 0 0 0 0 0 0 0 0 0 0 0 0 0 0 0 0 0 0 0 0 0 0 0 0 0 0
0 10 3 1 0 0 0 0 1 3 0 0 0 0 1 0 0 0 0 0 0 1 0 0 0 0 0 0 0 0 0 0 0 0 0 0 0 0 0 0 0 0 0 0 0 0 0
0 8 3 4 0 1 0 0 1 3 0 0 1 1 0 0 0 0 0 0 0 0 0 0 0 0 0 0 0 0 0 0 0 0 0 0 0 0 0 0 0 0 0 0 0 0 0
0 8 5 8 2 0 0 0 0 3 1 0 0 1 2 0 0 0 0 0 0 0 0 0 0 0 0 0 0 0 0 0 0 0 0 0 0 0 0 0 0 0 0 0 0 0 0
1 2 10 5 9 3 2 2 3 0 0 0 0 0 1 1 0 0 0 0 0 0 0 1 0 0 0 0 0 0 0 0 0 1 2 3 2 0 0 0 0 0 0 0 0 0 0
3 1 18 12 10 6 6 2 4 3 1 0 0 0 1 0 0 0 3 3 1 0 0 7 2 1 0 0 1 0 0 0 0 0 1 9 10 0 0 0 0 0 0 0 0 0 0
4 3 15 11 13 12 3 6 4 6 3 1 0 0 0 1 0 1 32 10 3 7 0 1 0 0 0 1 0 0 0 0 2 0 0 0 0 1 0 0 0 0 0 0 0 0 0
4 4 16 10 19 18 11 16 10 9 1 4 0 0 0 1 0 0 1 0 9 19 15 0 0 0 0 0 0 0 0 0 0 5 0 0 0 0 0 0 0 0 0 0 0 0 0

GFSGBSN_con_mlcape_051.txt.gz
CAPE
21 21 6 9 48 16 10 13 24 23 40 43 44 42 49 89 99 104 70 51 30 32 23 24 9 12 18 0 0 0 7 337 0 11 23 21 3 2 0 0 0 0 0 0 0 0 0
23 14 32 46 7 9 13 27 34 37 36 32 36 25 50 58 82 93 78 86 80 42 39 38 18 6 6 1 0 0 0 235 0 68 19 21 9 0 0 0 0 0 0 0 0 0 0
9 8 20 10 23 26 23 26 32 39 43 32 30 30 47 72 85 99 108 107 106 79 73 44 24 2 4 0 0 0 0 134 131 120 22 13 4 12 0 0 0 0 0 0 0 0 0
11 18 8 30 28 26 26 31 28 29 29 35 31 32 40 60 52 91 116 110 118 109 49 36 34 8 5 0 0 0 18 115 133 101 54 53 41 16 1 0 0 0 0 0 0 0 0
31 15 27 40 19 27 40 31 34 22 29 27 24 30 31 27 46 79 77 110 105 73 75 50 21 4 0 0 0 0 0 7 16 37 67 31 37 20 6 7 0 1 0 0 0 0 0
20 25 19 22 28 34 26 36 28 42 35 33 23 24 28 13 19 42 75 30 1 48 49 39 35 2 0 0 0 0 0 4 84 94 73 73 29 2 5 8 0 0 0 0 0 0 0
20 24 29 17 25 24 28 35 53 37 34 44 38 32 28 28 19 26 8 0 0 3 20 9 27 0 0 0 0 0 0 0 92 77 83 21 6 3 1 0 0 0 0 0 0 0 0
16 22 10 8 30 32 31 39 44 47 35 39 15 3 18 13 27 29 0 1 1 1 0 8 1 0 0 0 0 0 0 8 73 30 29 17 1 0 7 1 1 1 0 0 0 0 0
22 19 5 17 28 32 32 33 46 29 33 6 11 20 7 6 29 0 0 2 1 1 0 0 0 0 0 3 0 0 0 12 21 2 3 8 0 0 1 2 3 0 0 0 0 0 0
14 4 11 23 47 30 34 31 39 20 5 17 28 30 35 71 3 1 0 14 0 1 0 0 1 0 3 0 0 0 0 10 18 0 0 0 0 0 0 0 0 0 0 0 0 0 0
14 17 10 32 43 33 34 41 20 9 34 26 32 45 112 86 2 1 0 0 0 0 0 0 1 12 13 6 0 0 0 1 6 0 0 0 0 0 0 0 0 0 0 0 0 0 0
15 10 15 26 18 28 27 32 13 32 23 19 45 66 44 32 16 9 4 7 1 0 0 1 5 1 4 2 9 3 5 0 1 0 0 0 0 0 0 0 0 0 0 0 0 0 0
9 8 22 17 28 27 19 43 21 11 14 22 49 33 10 24 14 5 0 3 0 0 0 0 1 5 3 14 20 7 1 6 3 6 0 0 0 0 0 0 0 0 0 0 0 0 0
8 8 10 38 17 21 14 21 15 4 19 46 5 2 5 0 0 0 0 0 0 0 0 0 4 4 7 16 2 5 0 1 0 0 0 0 0 0 0 0 0 0 0 0 0 0 0
7 7 13 17 34 3 22 19 2 7 8 0 0 0 0 4 0 0 0 0 0 0 0 8 1 0 2 9 1 2 0 0 0 0 0 0 0 0 0 0 0 0 0 0 0 0 0
4 7 12 6 18 11 13 18 1 7 6 0 0 0 0 0 0 0 0 0 0 1 0 0 0 0 0 1 0 5 0 0 0 0 0 0 0 0 0 0 0 0 0 0 0 0 0
7 6 3 7 10 4 10 11 2 3 4 0 0 0 0 0 0 0 0 1 0 3 0 0 0 1 0 0 0 0 0 0 0 0 0 0 0 0 0 0 0 0 0 0 0 0 0
9 4 1 4 6 4 11 8 0 3 2 0 0 0 0 0 0 0 0 0 0 0 0 0 0 0 0 0 0 0 0 0 0 0 0 0 0 0 0 0 0 0 0 0 0 0 0
7 6 1 2 2 4 8 5 0 1 2 0 0 0 0 0 0 0 0 0 1 1 0 0 0 0 0 0 0 0 0 0 0 0 0 0 0 0 0 0 0 0 0 0 0 0 0
4 7 2 2 1 1 3 4 0 0 0 0 0 0 0 0 0 0 0 0 1 0 0 0 0 0 0 0 0 0 0 0 0 0 0 0 0 0 0 0 0 0 0 0 0 0 0
6 7 0 1 1 0 0 0 1 0 0 0 0 0 0 0 1 0 0 0 0 0 0 0 0 0 0 0 0 0 0 0 0 2 0 0 0 0 0 0 0 0 0 0 0 0 0
3 9 1 1 1 0 0 0 1 0 0 0 0 0 0 0 0 0 0 0 0 0 0 0 0 0 0 0 0 0 0 0 0 0 0 0 0 0 0 0 0 0 0 0 0 0 0
5 5 6 0 1 1 0 0 0 2 0 0 0 0 0 0 0 0 0 1 0 0 0 0 0 0 0 0 0 0 0 0 0 0 0 0 0 0 0 0 0 0 0 0 0 0 0
4 5 9 0 1 1 1 0 1 1 0 0 1 0 0 0 0 0 0 0 0 0 0 0 0 0 0 0 0 0 0 0 0 0 0 0 0 0 0 0 0 0 0 0 0 0 0
2 2 14 0 0 0 2 2 2 1 0 0 0 1 1 0 0 0 0 0 0 0 0 0 0 0 0 0 0 0 0 0 0 0 0 0 0 0 0 0 0 0 0 0 0 0 0
4 2 3 12 0 3 0 3 3 3 0 0 0 0 1 1 0 0 0 0 0 0 0 0 0 0 0 0 0 0 0 0 0 2 0 0 0 0 0 0 0 0 0 0 0 0 0
5 3 3 16 0 8 5 4 2 3 2 0 0 0 1 0 0 0 0 0 0 0 0 1 1 0 0 0 0 0 0 0 0 0 3 1 6 0 0 0 0 0 0 0 0 0 0
3 4 7 11 0 10 10 1 6 5 5 0 0 0 1 1 0 0 0 4 0 5 0 0 1 1 0 0 0 0 0 0 0 0 0 0 0 0 0 0 0 0 0 0 0 0 0
3 8 4 15 0 4 9 14 10 19 5 3 0 0 1 1 0 0 0 0 0 13 11 0 1 1 1 4 0 0 0 0 0 1 0 0 0 0 0 0 0 0 0 0 0 0 0

GFSGBSN_con_mlcape_054.txt.gz
CAPE
25 8 8 19 7 36 25 32 26 29 33 39 48 39 26 28 24 31 41 70 89 106 70 33 31 31 16 5 0 0 2 9 14 0 1 27 5 9 5 0 0 0 0 0 0 0 0
20 13 23 8 40 30 31 24 27 33 32 54 47 27 22 28 25 42 74 96 125 117 98 83 46 39 17 2 0 0 0 26 6 33 33 30 15 6 1 0 0 0 0 0 0 0 0
10 10 14 20 26 28 28 27 24 21 44 31 46 35 32 28 28 31 59 128 130 139 127 112 54 36 17 1 0 0 0 61 21 97 51 82 14 0 0 0 0 0 0 0 0 0 0
14 17 11 20 24 30 30 30 43 61 33 44 38 31 33 22 18 16 65 141 139 129 153 89 33 28 5 0 0 0 0 118 61 236 148 127 34 28 5 0 0 0 0 0 0 0 0
9 6 19 17 18 26 29 39 40 46 57 55 36 56 43 42 26 19 76 110 157 160 137 123 7 1 25 0 0 0 0 154 135 119 74 83 37 34 24 0 0 0 0 0 0 0 0
4 4 16 17 8 34 29 34 38 50 55 50 45 54 20 5 12 28 76 51 20 79 102 65 4 6 7 0 0 0 0 57 97 65 70 59 32 15 21 5 0 0 0 0 0 0 0
5 11 18 8 11 25 29 35 29 33 42 42 25 10 2 6 13 62 4 0 0 0 14 0 0 10 0 0 0 0 0 39 79 55 70 46 5 4 2 6 0 0 0 0 0 0 0
5 9 13 19 11 31 24 28 27 33 33 2 1 1 19 50 7 48 0 0 1 2 0 10 0 8 2 0 1 0 0 14 53 25 12 5 1 1 4 1 1 0 0 0 0 0 0
1 11 10 22 17 16 28 34 30 15 2 19 38 35 59 90 62 2 0 0 1 0 0 2 0 1 1 3 1 2 0 15 22 14 4 5 2 6 8 3 10 0 0 0 0 0 0
4 15 9 21 19 32 33 38 24 3 24 29 39 137 158 133 2 3 0 0 0 0 0 0 1 2 5 7 1 0 9 23 16 11 0 0 4 1 3 2 0 0 0 0 0 0 0
8 9 11 17 33 18 25 18 10 12 29 28 94 137 55 26 0 2 0 0 0 0 0 0 1 4 0 6 0 1 0 4 3 0 0 0 0 0 3 0 0 0 0 0 0 0 0
6 8 8 24 31 40 26 17 8 22 21 26 19 47 33 1 9 4 1 0 0 0 0 0 3 3 3 3 4 3 12 0 0 0 0 0 0 0 0 0 0 0 0 0 0 0 0
4 8 11 21 12 23 20 16 14 13 24 13 5 0 3 2 0 0 0 0 0 0 0 0 0 1 5 15 8 12 2 0 2 0 0 0 0 0 0 0 0 0 0 0 0 0 0
4 8 13 5 10 11 9 12 4 12 14 18 3 0 2 0 0 0 0 0 0 0 0 0 9 6 3 10 11 3 1 1 0 0 0 0 0 0 0 0 0 0 0 0 0 0 0
3 11 17 7 8 8 8 3 1 7 0 6 0 0 0 2 0 0 0 0 0 0 0 6 1 1 4 4 13 1 0 0 0 0 0 0 0 0 0 0 0 0 0 0 0 0 0
1 8 11 8 4 8 9 1 1 1 1 0 0 0 0 0 0 0 0 0 0 0 0 0 0 0 0 0 0 0 0 0 0 0 0 0 0 0 0 0 0 0 0 0 0 0 0
1 9 3 8 3 4 7 2 0 2 2 0 0 0 0 2 0 0 0 0 0 4 0 0 0 0 0 0 0 0 0 0 0 0 0 0 0 0 0 0 0 0 0 0 0 0 0
2 7 10 7 1 1 2 1 0 3 3 0 0 0 0 0 0 1 0 0 0 1 0 0 0 0 0 0 0 0 0 0 0 0 0 0 0 0 0 0 0 0 0 0 0 0 0
2 4 4 6 2 1 0 0 0 3 0 0 0 0 0 0 0 0 0 0 0 0 0 0 0 0 0 0 0 0 0 0 0 0 0 0 0 0 0 0 0 0 0 0 0 0 0
1 3 7 7 2 1 0 0 0 0 0 0 0 0 0 0 0 0 0 0 0 0 0 0 0 0 0 0 0 0 0 0 0 0 0 0 0 0 0 0 0 0 0 0 0 0 0
0 1 12 8 5 1 1 0 0 0 0 0 0 0 0 0 0 0 0 0 0 0 0 0 0 0 0 0 0 0 0 0 0 0 0 0 0 0 0 0 0 0 0 0 0 0 0
0 1 4 9 6 2 1 1 0 0 0 0 0 0 0 0 0 0 0 0 0 0 0 0 0 0 0 0 0 0 0 0 0 0 0 0 0 0 0 0 0 0 0 0 0 0 0
1 1 1 8 4 4 1 1 1 0 0 0 0 0 1 0 0 0 0 0 0 0 0 1 6 0 0 0 0 0 0 0 0 0 0 0 0 0 0 0 0 0 0 0 0 0 0
1 1 2 13 1 2 2 1 1 0 0 0 0 1 0 0 0 0 0 0 0 0 0 0 0 0 0 0 0 0 0 0 0 0 0 0 0 0 0 0 0 0 0 0 0 0 0
0 2 3 5 5 0 0 4 0 2 0 0 0 1 0 0 0 0 0 0 0 0 0 0 0 0 0 0 0 1 0 0 0 0 0 0 0 0 0 0 0 0 0 0 0 0 0
1 1 3 5 24 0 0 0 1 1 0 0 0 0 1 1 0 0 0 0 0 0 0 0 0 0 0 0 0 0 0 0 0 1 0 0 0 0 0 0 0 0 0 0 0 0 0
3 2 4 4 20 4 5 2 0 0 1 0 0 0 1 0 0 0 0 0 0 0 0 0 0 0 0 0 0 0 0 0 0 0 2 0 1 0 1 0 0 0 0 0 0 0 0
2 2 4 1 12 2 6 10 5 0 6 0 0 5 0 1 0 0 0 0 0 0 0 0 0 0 0 0 0 0 0 0 0 0 0 0 0 0 0 1 0 0 0 0 0 0 0
1 1 3 1 3 11 0 4 24 5 16 1 0 1 1 0 0 0 0 0 0 0 0 0 0 1 0 1 0 0 0 0 0 3 0 0 0 0 0 0 0 0 0 0 0 0 0

GFSGBSN_con_mlcape_057.txt.gz
CAPE
11 14 31 25 7 28 17 26 24 25 24 31 39 46 58 38 47 33 23 8 29 67 97 120 71 56 42 10 0 0 0 0 48 4 0 24 13 30 10 0 0 0 0 0 0 0 0
18 16 5 24 18 25 25 24 35 30 34 43 52 58 64 50 47 44 30 26 62 143 148 181 125 54 9 13 2 0 0 0 9 22 5 46 2 3 15 2 0 0 0 0 0 0 0
17 14 14 11 39 11 23 37 42 45 40 56 64 64 74 58 50 23 24 44 145 180 173 200 147 41 15 1 0 0 0 0 39 24 34 108 4 8 0 3 0 0 0 0 0 0 0
10 7 14 33 22 16 20 43 48 44 45 48 52 70 89 62 67 40 22 58 152 185 163 95 89 14 3 27 0 0 0 2 29 69 100 191 29 9 4 0 0 0 0 0 0 0 0
11 14 21 20 8 17 30 39 45 40 28 35 64 56 81 37 12 13 43 128 173 198 171 133 8 9 0 65 0 0 0 38 41 86 209 127 53 26 5 0 0 0 0 0 0 0 0
6 6 16 17 4 17 22 24 35 24 34 36 23 11 8 4 28 13 96 103 49 86 118 103 1 5 0 4 5 0 0 14 101 88 36 45 43 20 19 1 0 0 0 0 0 0 0
8 16 14 8 16 21 36 16 20 52 19 10 17 31 28 38 47 22 3 0 0 0 9 0 0 1 1 30 15 0 0 99 82 29 0 22 12 0 1 4 0 0 0 0 0 0 0
3 7 5 9 20 36 33 15 14 19 14 43 57 65 94 75 62 27 0 0 2 0 0 2 10 0 13 31 25 0 0 21 48 5 33 16 7 7 0 1 0 0 0 0 0 0 0
4 8 7 13 35 50 42 21 25 12 30 48 117 124 146 92 55 13 0 0 0 1 0 4 7 4 18 17 4 1 0 39 34 16 0 1 1 21 0 8 8 0 0 0 0 0 0
5 9 8 13 32 21 12 25 25 11 28 28 98 121 53 1 0 1 0 0 0 0 0 0 18 3 36 0 5 1 17 22 3 2 0 3 1 15 5 12 15 0 0 0 0 0 0
7 7 7 19 15 19 30 14 21 6 23 8 4 69 18 3 0 1 0 0 0 0 0 0 3 5 4 0 0 1 7 5 0 6 1 1 6 1 1 3 0 0 0 0 0 0 0
6 6 7 14 12 16 13 12 10 5 5 12 3 4 0 0 4 3 0 0 0 0 0 0 1 2 1 7 4 24 7 0 0 0 0 0 0 0 0 0 0 0 0 0 0 0 0
4 4 6 5 7 11 5 6 2 4 2 8 0 0 0 0 0 0 0 0 0 0 0 0 0 2 2 11 7 8 1 0 0 0 0 1 0 0 0 0 0 0 0 0 0 0 0
3 4 10 2 3 6 7 2 4 3 3 0 0 0 0 0 0 0 0 0 0 0 0 0 15 8 5 0 3 4 1 0 0 0 0 0 0 0 0 0 0 0 0 0 0 0 0
3 4 6 3 1 3 4 5 3 4 1 0 0 0 0 0 0 0 0 0 0 0 0 2 0 1 2 8 0 1 0 0 0 0 0 0 0 0 0 0 0 0 0 0 0 0 0
3 3 6 4 0 2 2 1 3 2 0 0 0 0 0 0 0 0 0 0 1 0 0 0 0 0 1 3 1 1 0 0 0 0 0 0 0 0 0 0 0 0 0 0 0 0 0
2 4 5 4 2 1 1 0 1 1 2 0 0 0 0 0 0 0 0 0 0 1 0 0 0 0 0 0 0 0 0 0 0 0 0 0 0 0 0 0 0 0 0 0 0 0 0
3 5 9 2 3 2 1 0 0 2 1 0 0 0 0 0 0 0 0 0 0 0 0 0 0 0 0 0 0 0 0 0 0 0 0 0 0 0 0 0 0 0 0 0 0 0 0
3 5 6 4 2 1 1 0 0 1 6 0 0 0 0 0 0 0 0 0 0 0 0 0 0 0 0 0 0 0 0 0 0 0 0 0 0 0 0 0 0 0 0 0 0 0 0
2 3 4 9 2 1 1 1 0 0 1 0 0 0 0 0 0 0 0 0 0 0 0 0 0 0 0 0 0 0 0 0 0 0 0 0 0 0 0 0 0 0 0 0 0 0 0
1 1 5 13 3 1 1 0 0 0 0 0 0 0 0 0 0 0 0 0 0 0 0 0 0 0 0 0 0 0 0 0 0 0 0 0 0 0 0 0 0 0 0 0 0 0 0
1 1 5 9 3 1 0 0 0 0 0 0 0 0 0 0 0 0 0 0 0 0 0 0 0 0 0 0 0 0 0 0 0 0 0 0 0 0 0 0 0 0 0 0 0 0 0
1 1 2 4 15 3 0 0 1 0 0 0 0 0 1 0 0 0 0 0 0 0 2 1 0 0 0 0 0 0 0 0 0 0 0 0 0 0 0 0 0 0 0 0 0 0 0
2 2 2 2 18 3 0 0 0 0 0 0 0 0 1 0 0 0 0 0 0 0 0 2 0 1 0 0 0 0 0 0 0 0 0 0 0 0 0 0 0 0 0 0 0 0 0
1 1 0 3 2 16 0 1 0 0 0 0 0 1 0 0 0 0 0 0 0 0 0 0 0 0 0 0 0 0 0 0 0 0 0 0 0 0 0 0 0 0 0 0 0 0 0
1 2 1 3 0 20 1 3 0 0 1 0 0 0 1 1 0 0 0 0 0 0 0 0 0 0 0 0 0 0 0 0 0 0 0 0 0 0 0 0 0 0 0 0 0 0 0
4 0 1 2 1 11 3 8 0 0 1 0 0 0 1 3 0 0 0 0 0 0 0 0 0 0 0 0 0 0 0 0 1 0 0 0 0 0 0 0 0 0 0 0 0 0 0
4 1 1 2 5 3 15 2 8 8 2 0 0 0 1 1 0 0 0 1 0 0 0 0 0 0 0 0 0 0 0 0 0 0 0 0 0 0 0 0 0 0 0 0 0 0 0
5 2 0 3 4 4 8 20 1 16 4 0 0 0 0 0 0 0 0 0 0 0 0 0 0 0 0 0 0 1 0 0 0 1 0 0 0 0 0 0 0 0 0 0 0 0 0

GFSGBSN_con_mlcape_060.txt.gz
CAPE
8 18 14 21 22 25 8 17 38 49 50 47 40 50 53 65 75 62 64 61 37 34 39 64 78 65 35 24 0 13 0 181 292 53 22 24 29 35 14 11 1 0 0 0 0 0 0
18 4 10 24 31 17 11 25 45 44 59 45 40 43 65 85 106 88 56 31 32 62 85 109 143 120 27 5 0 0 0 0 28 62 11 53 17 35 40 16 2 0 0 0 0 0 0
15 13 12 12 19 23 23 27 22 36 43 45 48 55 96 119 67 99 84 64 28 84 138 167 206 75 23 0 38 23 0 1 49 108 0 69 74 43 32 17 2 0 0 0 0 0 0
3 1 14 18 9 27 28 28 17 30 32 42 54 48 27 43 43 21 7 15 101 165 201 197 79 35 4 0 0 0 0 1 27 164 2 123 142 81 16 7 1 0 0 0 0 0 0
5 11 15 12 15 28 21 35 6 22 30 24 22 24 15 13 11 19 17 63 178 180 190 176 39 22 11 39 1 3 31 19 17 117 71 150 79 22 24 8 11 4 0 0 0 0 0
5 9 10 9 13 19 40 30 13 27 19 35 82 99 81 73 43 13 25 58 48 113 157 73 0 1 0 0 43 33 0 51 100 164 36 97 49 17 12 16 0 0 0 0 0 0 0
7 11 5 10 7 13 10 17 29 22 24 42 68 100 126 107 46 66 24 0 0 41 13 14 3 1 14 67 88 13 0 1 205 28 19 25 3 2 11 3 0 1 0 0 0 0 0
10 7 4 8 13 11 14 26 22 23 36 26 44 69 74 29 41 16 2 0 0 0 2 6 11 5 0 33 16 6 0 39 60 9 18 20 3 6 20 13 0 0 0 0 0 0 0
5 3 6 8 8 7 10 18 25 22 31 16 5 40 37 2 2 0 3 0 0 0 11 10 3 1 0 22 11 4 0 23 22 7 18 9 1 9 12 13 8 2 0 0 0 0 0
4 2 5 13 8 7 7 15 15 19 24 9 3 4 0 0 0 1 0 2 2 0 1 0 1 1 11 8 2 3 0 15 10 10 4 2 0 15 8 12 6 4 0 0 0 0 0
5 2 4 5 6 5 5 13 9 10 14 13 0 0 0 0 3 1 1 0 0 0 0 1 3 3 16 4 1 3 21 0 2 3 0 1 2 20 7 11 21 2 0 0 0 0 0
3 1 4 5 4 3 3 3 4 2 9 4 0 0 0 0 0 1 0 0 0 1 0 0 2 3 3 3 8 20 2 0 0 0 0 1 1 0 1 1 0 0 0 0 0 0 0
2 2 3 4 4 4 2 3 4 3 3 4 3 0 0 0 0 0 0 3 0 0 0 0 1 2 6 5 7 1 3 5 1 0 0 0 1 1 1 0 1 0 0 0 0 0 0
2 2 3 3 3 2 2 1 2 2 3 1 0 0 0 0 0 0 0 0 0 0 0 0 2 6 0 4 3 0 1 0 0 0 0 0 0 1 0 0 0 0 0 0 0 0 0
4 2 2 2 1 1 2 1 2 2 3 1 0 0 0 0 0 0 1 0 0 0 0 9 1 2 5 2 0 1 0 0 0 0 0 0 0 0 0 0 0 0 0 0 0 0 0
3 2 1 2 1 1 1 1 1 2 2 2 0 0 0 0 0 0 0 0 9 0 0 0 0 1 0 0 0 1 0 0 0 0 0 0 0 0 0 0 0 0 0 0 0 0 0
1 2 0 4 0 1 0 0 0 1 1 0 0 0 0 0 0 0 0 0 2 0 0 0 0 0 1 0 1 0 0 0 0 0 0 0 0 0 0 0 0 0 0 0 0 0 0
2 2 0 4 0 1 0 0 0 0 1 0 0 0 0 0 0 0 0 0 0 0 0 0 0 0 1 0 1 0 0 0 0 0 0 0 0 0 0 0 0 0 0 0 0 0 0
4 2 0 3 0 1 1 0 0 0 2 2 0 0 0 0 0 0 0 0 0 0 0 0 0 0 0 0 0 0 0 0 0 0 0 0 0 0 1 0 0 0 0 0 0 0 0
2 3 1 0 0 0 1 0 0 0 0 0 0 0 0 0 0 0 0 0 0 0 0 0 0 0 0 0 0 0 0 0 0 0 0 0 0 0 0 0 0 0 0 0 0 0 0
3 3 2 0 0 0 0 0 0 0 0 0 0 0 0 0 0 0 0 0 0 0 0 0 0 0 0 0 0 0 0 0 0 0 0 0 0 0 0 0 0 0 0 0 0 0 0
2 2 3 0 5 0 0 0 0 0 0 0 0 1 1 0 0 0 0 0 0 0 0 0 0 0 0 0 0 0 0 0 0 0 0 0 0 0 0 0 0 0 0 0 0 0 0
2 3 2 2 0 1 0 0 0 0 0 1 0 0 1 0 0 0 0 0 0 0 0 0 0 0 0 0 0 0 0 0 0 0 0 0 0 0 0 0 0 0 0 0 0 0 0
4 3 2 1 2 8 0 0 0 0 0 0 1 1 1 0 0 0 0 0 0 0 0 0 0 0 0 0 0 0 0 0 0 0 0 0 0 0 0 0 0 0 0 0 0 0 0
4 2 1 1 2 1 1 0 0 0 0 0 0 1 1 0 1 0 0 0 0 0 0 0 0 0 0 0 1 1 2 0 0 0 0 0 0 0 0 0 0 0 0 0 0 0 0
4 1 1 1 2 0 9 0 0 0 0 0 0 0 1 3 0 0 0 0 0 0 0 0 0 0 0 0 0 0 1 0 1 0 0 0 0 0 1 0 0 0 0 0 0 1 0
3 6 2 1 3 0 5 4 2 0 0 0 0 0 1 3 0 1 0 1 0 0 0 0 0 0 0 0 2 0 0 0 0 0 0 1 2 0 2 1 0 0 0 0 0 0 0
1 3 3 3 2 4 0 10 2 1 7 0 0 0 0 0 0 0 0 2 1 0 0 0 0 0 0 4 1 1 0 0 0 0 0 0 1 1 0 1 0 0 0 0 0 0 0
2 1 2 2 2 5 3 1 14 6 10 3 0 0 1 0 0 0 0 0 0 0 2 0 0 0 0 3 0 0 0 0 1 1 0 0 0 0 0 0 0 0 0 0 0 0 0

GFSGBSN_con_mlcape_063.txt.gz
CAPE
15 11 11 17 13 19 23 17 30 18 32 43 34 58 55 67 80 59 101 104 64 86 47 47 50 52 24 13 0 25 38 147 245 240 3 5 10 22 10 24 0 0 0 0 1 0 0
7 6 7 15 10 13 17 10 25 23 26 42 64 57 69 70 98 110 84 144 113 85 85 136 96 23 11 0 0 0 0 1 305 236 3 6 14 27 39 35 17 0 3 1 0 0 0
6 9 9 13 8 12 23 36 17 11 19 27 44 27 31 14 0 8 29 23 69 102 112 163 168 52 13 0 10 227 11 0 21 173 10 13 40 51 28 29 35 13 1 5 0 0 0
7 5 3 7 7 23 14 32 14 18 24 29 72 85 98 64 0 2 9 23 20 124 220 220 137 26 15 0 0 0 0 0 8 80 32 27 76 137 78 51 31 20 10 10 0 0 0
5 6 2 7 11 22 11 24 25 16 19 37 44 71 85 99 82 27 0 27 57 148 180 238 160 23 4 63 0 0 13 6 6 182 135 57 214 145 104 39 21 27 0 0 0 0 0
4 6 3 5 15 7 13 24 18 25 30 31 20 40 36 63 99 44 53 31 3 84 181 117 46 33 0 21 21 53 73 24 15 117 28 33 61 15 36 38 4 0 0 0 0 0 0
5 2 5 6 13 11 9 15 21 15 26 27 26 31 3 0 57 12 13 0 12 72 79 27 22 2 22 68 129 147 1 0 71 23 3 28 34 0 0 0 0 1 0 0 0 0 0
3 3 4 7 10 8 3 11 11 9 21 25 25 29 7 8 2 1 9 8 3 3 12 0 10 18 4 9 0 40 26 62 162 9 16 20 7 0 18 19 20 1 3 0 0 0 0
2 2 3 6 7 6 5 3 7 14 15 17 19 13 2 0 0 4 3 1 2 1 8 1 3 3 7 15 9 2 43 23 37 11 6 8 12 0 11 24 10 7 5 0 0 0 0
1 1 3 7 5 4 3 4 3 2 10 11 13 2 0 0 0 3 1 2 1 0 1 0 2 22 52 16 0 17 1 1 13 3 20 12 8 1 9 15 3 11 5 0 0 0 0
0 0 2 4 5 2 2 2 3 4 5 10 3 3 0 0 0 0 1 0 0 1 15 0 0 0 28 1 0 5 6 39 10 0 0 0 11 8 8 7 3 15 0 2 0 0 0
0 0 1 4 4 3 2 1 2 5 3 10 3 0 0 0 1 0 1 2 3 0 2 0 3 2 2 5 9 6 2 0 0 0 0 1 1 0 8 0 2 3 0 0 0 0 0
0 0 1 2 4 2 1 1 1 3 3 5 2 0 0 0 0 0 6 2 1 0 0 0 2 1 8 5 4 9 1 3 1 0 0 0 0 1 1 0 0 0 7 4 5 0 0
0 0 1 1 2 2 0 0 1 1 4 3 0 0 0 0 5 7 0 1 0 1 0 0 4 7 3 3 3 12 8 0 1 0 0 0 0 0 3 1 0 2 5 15 0 1 0
0 0 0 2 1 2 0 0 0 0 3 4 0 0 0 0 2 2 1 0 0 0 0 11 12 6 3 0 0 10 3 1 0 0 0 0 0 2 3 0 0 1 0 0 0 0 0
0 0 0 2 2 2 1 0 0 0 3 3 0 0 0 0 0 0 0 0 2 0 2 1 3 1 1 0 3 5 0 0 0 0 0 0 1 0 0 0 0 0 0 0 0 0 0
0 0 0 1 2 1 1 0 0 0 0 0 0 0 0 0 0 0 0 1 7 0 0 0 0 1 1 1 3 0 0 0 0 0 0 0 0 0 0 0 1 0 0 0 0 0 0
0 0 0 0 3 1 1 0 0 0 0 0 0 0 0 0 0 0 0 0 0 0 0 0 1 1 2 1 2 1 1 1 0 0 0 0 0 1 2 0 0 0 0 0 0 0 0
1 2 0 0 3 0 0 0 0 0 0 1 0 0 0 0 0 0 0 0 0 0 0 0 0 0 0 1 0 1 0 0 0 0 0 0 0 0 0 0 0 0 0 0 0 0 0
3 1 1 0 3 0 0 0 0 0 0 1 0 0 0 0 0 1 0 0 0 0 0 0 0 0 0 0 0 0 0 0 0 0 0 0 0 0 0 0 0 0 0 0 0 0 0
2 1 1 0 0 2 0 0 0 0 0 0 0 0 0 0 0 0 0 0 0 0 0 0 0 0 0 0 0 0 0 0 0 0 0 0 0 0 0 0 0 0 0 0 0 0 0
2 4 2 2 0 2 0 0 0 0 0 0 1 0 1 0 0 0 0 0 0 0 0 0 0 0 0 0 0 0 0 0 0 0 0 0 0 0 0 0 0 0 0 0 0 0 0
3 1 2 1 1 0 0 0 0 0 0 0 3 5 3 0 0 0 3 0 0 0 0 0 0 0 0 0 0 0 0 0 0 0 0 0 0 0 0 0 0 0 0 0 0 0 0
1 0 4 2 0 1 2 0 0 0 0 0 1 4 1 0 0 0 0 0 0 0 0 0 2 4 0 0 0 0 0 0 0 0 0 4 1 0 0 0 0 0 0 0 0 0 0
0 1 2 3 1 1 1 0 0 0 0 0 1 1 7 0 0 0 0 0 1 0 0 0 0 0 0 0 5 1 0 1 0 0 0 0 3 0 0 0 0 0 0 0 0 0 0
0 0 3 4 2 1 0 3 0 0 0 0 0 0 1 0 0 0 2 3 1 2 7 0 0 0 0 17 10 0 0 0 0 0 0 0 0 3 0 0 0 0 0 0 0 2 0
0 0 0 4 1 0 0 0 0 0 0 0 0 0 3 6 0 0 2 2 1 0 1 12 1 0 0 14 9 1 0 0 0 0 1 4 6 0 3 0 0 0 0 0 0 0 0
0 0 0 0 0 0 1 2 4 0 0 0 4 0 3 0 0 0 0 0 2 3 9 9 6 3 7 12 1 0 1 1 1 1 1 0 1 1 1 0 0 0 0 0 1 0 0
0 0 0 0 0 0 0 7 3 2 15 9 4 11 11 11 0 0 0 0 0 0 3 1 4 4 6 11 13 10 4 2 1 0 0 0 0 0 0 0 0 0 0 0 0 0 0

GFSGBSN_con_mlcape_066.txt.gz
CAPE
2 5 2 10 13 16 19 21 24 7 6 13 25 45 69 61 42 63 95 85 152 66 71 41 22 58 19 2 0 0 21 13 129 264 59 17 0 11 6 23 6 0 0 0 0 0 0
3 5 7 2 11 13 27 12 14 12 13 19 34 54 78 90 79 8 30 27 102 116 121 74 139 48 0 2 0 0 0 0 55 167 92 7 4 3 3 87 49 1 0 0 2 0 0
2 5 3 5 10 16 17 16 16 11 19 29 28 26 59 84 97 5 15 21 2 40 111 153 183 48 11 0 4 126 19 0 0 63 95 12 0 6 34 18 32 30 5 5 0 0 0
2 5 7 10 14 9 9 9 4 15 13 26 18 21 35 28 90 80 3 10 21 55 184 237 173 32 1 0 0 0 0 0 0 1 134 51 0 54 74 59 40 28 14 25 2 0 0
2 5 5 6 11 7 11 8 11 15 16 22 18 16 12 10 25 81 15 2 45 96 148 208 154 46 0 0 0 0 0 0 0 2 138 156 43 43 57 24 19 27 1 1 3 0 0
2 4 5 9 8 5 7 12 12 11 12 20 29 24 8 8 1 16 10 7 9 21 146 138 63 6 6 0 17 0 18 0 4 63 138 73 22 10 24 28 0 0 0 0 0 0 0
1 5 4 5 3 3 5 3 3 5 11 14 22 17 1 1 9 6 20 35 50 48 45 10 12 10 0 15 93 15 17 0 34 127 89 38 0 0 0 0 0 0 0 0 0 0 0
1 3 6 3 2 2 3 4 2 3 11 11 8 16 6 0 0 0 3 0 2 1 3 3 2 1 41 20 18 44 31 8 17 0 9 14 0 0 3 6 46 0 0 0 1 2 0
1 2 4 4 1 3 2 4 4 6 4 14 7 13 2 0 0 4 0 1 0 0 0 3 15 10 24 0 13 17 10 6 1 3 0 2 0 8 0 0 1 5 2 0 0 0 0
0 2 4 4 2 2 3 3 3 5 2 9 2 7 2 0 0 0 0 0 0 0 0 6 9 3 9 0 8 21 23 4 8 2 21 4 18 0 8 0 4 0 0 6 0 0 0
0 1 2 4 3 2 3 3 4 4 3 4 2 2 1 0 1 0 0 0 0 0 0 0 8 2 12 7 1 0 20 1 2 6 2 0 3 0 0 0 8 1 15 5 0 0 0
0 0 1 4 4 3 1 2 5 3 2 6 1 1 0 0 3 0 0 1 0 0 0 0 2 1 2 2 3 3 3 0 0 1 0 0 0 1 1 2 3 23 19 9 3 16 0
0 0 0 1 3 2 1 1 2 3 1 4 3 0 0 1 3 0 0 0 0 0 0 0 0 5 0 2 1 5 2 4 4 2 0 0 0 0 0 1 2 3 0 3 3 1 0
0 0 0 1 0 1 1 1 0 0 0 0 0 0 0 0 2 1 0 0 0 0 0 1 2 9 3 0 5 4 3 0 0 0 0 0 0 0 2 1 0 0 0 1 0 0 0
0 0 0 0 3 2 1 1 0 0 0 0 0 0 0 0 0 0 1 0 0 0 0 0 7 9 8 0 0 0 0 0 2 0 0 0 0 2 2 0 0 0 0 0 0 0 0
0 0 0 0 3 4 0 0 0 0 0 0 0 0 0 0 0 0 0 0 0 0 0 0 2 1 2 1 0 3 1 0 0 0 0 0 0 1 2 2 0 0 0 0 0 0 0
0 0 0 0 1 3 0 0 0 0 0 0 0 0 0 0 0 0 0 0 0 1 0 0 0 1 0 0 9 0 0 0 0 0 0 0 0 0 0 0 0 1 1 0 0 0 0
0 0 0 0 0 3 0 0 0 0 0 0 0 0 0 0 0 0 0 0 0 0 0 0 0 0 1 0 3 1 0 0 0 0 0 0 0 0 0 0 0 0 0 0 0 0 0
0 0 0 0 0 2 0 0 0 0 0 0 0 0 0 0 0 0 0 0 0 0 0 0 0 0 0 0 0 0 0 0 0 0 0 0 0 0 0 0 0 0 0 0 0 0 0
0 0 0 0 0 0 0 0 0 0 0 0 0 0 0 0 0 0 2 0 0 0 0 0 0 0 0 0 0 0 0 0 0 0 0 0 0 0 0 0 0 0 0 0 0 0 0
0 1 0 1 1 0 1 0 0 0 0 0 0 0 0 0 0 0 0 2 0 0 0 0 0 0 0 0 0 0 0 0 0 0 0 0 0 0 0 0 0 0 0 0 0 0 0
0 0 0 0 0 0 0 0 0 0 0 0 0 0 0 0 0 0 2 5 1 0 0 0 0 0 0 0 0 0 0 0 0 0 0 0 0 0 0 0 0 0 0 0 0 0 0
0 0 0 0 2 2 0 0 0 0 0 0 0 0 0 0 0 0 1 0 3 0 0 0 0 0 0 0 0 0 0 0 0 0 0 0 0 0 0 0 0 0 0 0 0 0 0
0 0 0 0 0 2 0 1 0 0 0 0 0 0 0 0 0 0 0 0 0 6 7 7 0 1 0 0 0 0 0 0 0 0 0 0 2 0 0 0 0 0 0 0 0 0 0
0 0 0 0 0 2 0 1 0 0 0 0 0 1 1 0 0 0 0 0 1 2 3 0 7 0 0 0 4 2 1 0 2 0 0 0 3 0 0 0 0 0 0 0 0 0 0
0 0 0 0 0 2 0 0 0 0 0 0 0 0 2 0 0 0 0 0 0 1 6 13 0 0 0 6 4 0 0 0 0 0 0 0 0 0 0 0 0 0 0 0 0 0 0
0 0 0 0 0 0 0 0 0 1 0 0 0 0 0 0 0 0 0 0 0 8 6 7 0 0 0 5 9 3 2 0 0 0 0 1 1 0 0 1 0 0 0 0 0 0 0
0 0 0 0 0 0 0 0 2 2 12 0 0 1 0 0 0 0 0 0 0 0 2 1 4 1 2 4 8 2 0 1 0 0 0 0 0 1 1 0 0 0 0 0 0 0 0
0 0 0 0 0 0 0 0 0 7 13 30 2 5 5 10 0 0 0 0 0 0 0 1 2 1 22 4 0 2 1 1 0 0 0 0 0 0 0 0 0 0 0 0 0 0 0

GFSGBSN_con_mlcape_069.txt.gz
CAPE
5 8 9 8 11 10 7 12 16 16 23 18 27 26 25 27 30 96 16 31 70 129 96 105 48 94 7 0 0 0 0 12 0 172 32 39 0 0 0 19 12 0 0 0 2 0 0
6 6 7 6 10 7 11 8 17 21 23 14 31 27 30 17 38 101 4 0 9 17 116 147 156 89 0 0 0 0 0 0 11 111 34 37 0 0 10 31 10 0 3 9 0 0 0
4 5 4 5 7 9 4 6 13 11 13 9 36 17 12 23 25 51 0 2 14 1 57 165 220 70 25 0 0 2 41 7 21 14 49 36 8 0 0 0 17 37 6 6 0 0 0
3 5 1 6 10 6 4 5 16 9 15 9 27 16 3 23 5 35 36 0 14 30 165 246 223 79 1 0 0 0 0 3 0 0 18 59 21 8 10 25 18 30 5 12 0 0 0
2 5 6 5 5 7 5 7 10 9 11 14 20 7 6 10 0 13 30 2 67 108 140 183 72 13 0 0 0 0 0 0 0 0 23 110 38 7 41 22 22 19 5 0 0 0 0
1 4 4 4 3 5 4 6 2 4 8 5 12 5 0 2 0 0 0 3 5 2 89 139 46 1 0 2 9 0 5 0 0 10 51 78 26 8 30 6 0 0 0 0 0 0 0
1 4 2 5 4 5 2 3 5 0 2 3 4 2 0 0 0 0 0 0 0 0 8 6 1 0 0 5 33 0 7 0 2 7 24 41 15 0 0 0 2 0 0 0 0 0 0
1 3 4 3 3 4 3 3 4 6 2 3 0 2 2 0 0 0 0 0 0 1 0 3 7 8 0 0 2 8 8 0 19 2 5 9 2 0 0 0 0 1 0 0 0 0 0
0 2 3 3 4 7 5 4 3 5 3 2 3 2 1 0 0 0 0 0 0 0 0 2 0 0 0 0 7 0 0 5 9 14 1 4 0 0 3 0 9 4 0 0 0 0 0
0 2 2 2 4 5 6 1 2 2 6 1 4 1 0 0 0 0 0 0 0 0 0 2 5 1 0 0 4 6 1 4 0 3 5 5 1 0 1 0 0 0 0 0 0 0 0
0 1 2 3 4 3 5 2 1 1 2 1 2 1 0 0 0 0 0 0 0 0 0 1 3 0 25 4 0 7 2 0 3 4 6 1 13 1 0 0 0 0 0 0 0 0 0
0 0 1 2 3 2 4 2 0 0 0 1 1 1 0 0 0 0 0 0 0 0 0 0 1 5 5 0 1 12 7 4 0 0 0 0 0 5 0 0 0 7 0 0 0 0 0
0 0 0 1 3 2 2 1 0 0 0 0 1 1 0 0 0 0 0 0 0 0 0 0 1 1 1 1 7 3 3 2 0 2 0 0 0 0 0 0 0 0 1 1 0 0 0
0 0 1 0 2 2 1 1 0 0 0 0 0 0 0 0 0 0 0 0 0 0 0 0 0 2 0 2 2 0 8 1 0 0 0 0 0 0 0 0 0 0 0 0 0 0 0
0 0 0 0 1 2 0 0 0 0 0 0 0 0 0 0 0 0 0 0 0 0 0 0 0 1 2 2 0 0 0 1 0 0 0 0 0 1 0 0 0 1 1 0 0 0 0
0 0 0 0 0 2 1 0 0 0 0 0 0 0 0 0 0 0 0 0 0 0 0 0 0 0 0 0 9 1 0 0 0 0 0 0 0 2 1 1 0 1 0 0 0 0 0
0 0 0 0 0 1 1 0 0 0 0 0 0 0 0 0 0 0 0 0 1 1 0 0 0 1 0 0 0 0 0 0 0 0 0 0 0 1 1 0 0 0 0 0 0 0 0
0 0 0 0 0 0 0 0 0 0 0 0 0 0 0 0 0 0 0 0 0 0 0 0 0 0 0 0 0 0 0 0 0 0 0 0 0 0 0 0 0 0 0 0 0 0 0
0 0 0 0 0 0 0 0 0 0 0 1 0 0 0 0 0 0 0 0 0 0 0 0 0 0 0 0 0 0 0 0 0 0 0 0 0 0 0 0 0 0 0 0 0 0 0
0 0 0 0 0 0 0 0 0 0 0 0 0 0 0 0 0 0 0 0 0 0 0 0 0 0 0 0 0 0 0 0 0 0 0 0 0 0 0 0 0 0 0 0 0 0 0
0 0 0 0 0 0 0 0 0 0 0 0 0 0 0 0 0 0 0 0 0 1 0 0 0 0 0 0 0 0 0 0 0 0 0 0 0 0 0 0 0 0 0 0 0 0 0
0 0 0 0 0 0 0 0 0 0 0 0 0 0 0 0 0 0 0 0 2 0 0 0 0 0 0 0 0 1 0 0 0 0 0 0 0 0 0 0 0 0 0 0 0 0 0
0 0 0 0 0 0 0 0 0 0 0 0 0 0 0 0 0 0 0 0 1 0 0 1 0 0 0 0 0 0 0 0 0 0 0 0 0 0 0 0 0 0 0 0 0 0 0
0 0 0 0 0 0 0 0 0 0 0 0 0 0 0 0 0 0 0 0 0 0 0 3 10 2 1 0 0 0 0 0 0 0 0 0 0 0 0 0 0 0 0 0 0 0 0
0 0 0 0 0 0 0 0 1 0 0 0 0 0 0 0 0 0 0 0 0 0 0 0 5 2 0 0 1 6 3 2 0 0 0 0 2 0 0 0 0 0 0 0 0 0 0
0 0 0 0 0 0 0 0 0 0 0 0 0 0 0 0 0 0 0 0 0 0 0 7 9 0 0 9 16 2 0 0 0 1 0 0 0 0 0 0 0 0 0 0 0 0 0
1 1 0 0 0 0 0 0 0 0 1 0 0 0 0 0 0 0 0 0 0 0 0 0 22 3 1 1 14 0 0 0 0 0 0 1 0 0 0 0 0 0 0 0 0 0 0
3 2 0 0 0 0 0 0 0 0 0 0 0 0 0 0 0 0 0 0 0 0 0 0 0 0 1 2 1 6 1 5 0 0 0 0 0 0 0 1 0 0 0 0 0 0 0
6 6 1 0 6 0 0 0 0 0 3 17 4 0 0 1 0 0 0 0 0 0 0 0 0 2 4 0 0 0 0 0 0 0 0 0 0 0 0 0 0 0 0 0 0 0 0

GFSGBSN_con_mlcape_072.txt.gz
CAPE
5 4 7 5 6 14 6 15 24 23 21 34 21 20 14 20 22 87 18 1 4 53 54 90 50 107 10 0 0 0 1 7 77 4 27 15 0 34 1 36 47 2 0 1 14 11 4
4 4 9 7 10 10 8 12 14 26 20 18 13 15 7 26 20 28 0 0 4 21 78 155 170 69 8 0 3 7 33 1 4 6 52 50 0 3 31 51 55 0 2 0 0 0 0
3 2 6 7 7 8 8 9 9 13 18 20 20 10 7 17 3 0 0 0 19 10 89 168 236 67 1 0 0 0 0 0 21 22 22 29 0 6 1 11 41 19 15 0 0 0 0
3 4 7 6 7 7 7 6 3 7 19 16 11 14 4 11 19 0 0 0 6 19 132 213 182 67 0 0 0 0 0 0 0 14 29 37 13 0 0 17 25 21 9 14 0 1 0
2 4 4 6 7 6 5 7 7 5 6 15 11 9 8 5 0 0 0 0 1 23 69 118 70 0 0 0 0 0 0 0 0 0 10 36 27 5 5 27 28 38 0 0 0 0 0
0 3 6 5 6 8 6 5 7 5 4 8 10 4 3 1 0 0 0 0 0 0 0 12 5 0 0 0 0 9 7 0 4 34 7 24 29 2 0 3 0 0 0 0 0 0 0
1 3 4 5 4 6 6 4 6 5 0 4 9 1 3 0 0 0 0 0 0 0 0 0 0 0 0 0 9 4 0 0 15 12 12 29 3 0 0 6 0 0 0 0 0 0 0
0 3 3 3 4 6 6 4 3 4 4 3 6 6 4 0 0 0 0 0 0 0 0 0 2 1 0 0 3 0 0 0 14 0 18 22 5 0 0 13 0 0 0 0 0 0 0
0 2 2 2 4 5 4 2 2 3 3 2 5 7 3 0 0 0 0 0 0 0 0 2 3 0 0 5 1 0 1 1 3 0 4 8 4 0 0 1 6 0 0 0 0 0 0
0 1 1 2 2 4 3 1 1 2 3 3 1 4 2 1 0 0 0 0 0 0 0 1 1 3 11 0 4 0 28 2 12 0 1 2 0 2 4 0 2 3 0 0 0 0 0
0 0 2 1 3 3 2 1 0 0 0 0 1 2 0 2 0 0 0 0 0 0 0 0 0 0 29 4 14 2 0 17 0 0 1 0 0 0 5 0 0 3 0 0 0 0 0
0 0 1 1 1 1 1 0 1 0 0 0 2 0 0 0 0 0 1 0 0 0 0 0 0 6 12 4 13 21 3 0 11 8 0 0 0 0 0 0 5 2 0 0 0 0 0
0 0 0 0 1 0 0 0 0 0 0 0 0 0 0 0 0 0 0 0 0 0 0 0 0 4 2 4 9 0 0 3 0 2 0 0 0 0 0 0 0 16 0 2 0 0 0
0 0 0 0 0 0 0 0 0 0 0 0 0 0 0 0 0 0 0 0 0 0 0 0 0 0 1 4 0 2 6 0 0 0 0 0 0 0 0 0 0 0 0 0 0 0 0
0 0 0 0 0 0 1 0 0 0 0 0 0 0 0 0 0 0 0 0 0 0 0 0 0 0 2 2 0 5 0 0 0 0 0 0 0 0 0 0 0 0 4 0 0 0 0
0 0 0 0 0 0 0 0 0 0 0 0 0 0 0 0 0 0 0 0 0 0 0 0 0 0 0 2 0 0 0 0 0 0 0 0 0 0 0 0 0 0 0 0 0 0 0
0 0 0 0 0 0 0 0 0 0 0 0 0 0 0 0 0 0 0 0 0 0 0 0 0 0 0 0 0 0 0 0 0 0 0 0 0 2 3 2 1 1 0 0 0 0 0
0 0 0 0 0 0 0 0 0 0 0 0 0 0 0 0 0 0 0 0 0 0 0 0 0 0 0 0 0 0 0 0 0 0 0 0 0 3 0 0 1 1 0 0 0 0 0
0 0 0 0 0 0 0 0 0 0 0 0 0 0 0 0 0 0 0 0 0 0 0 0 0 0 0 0 0 0 0 0 0 0 0 0 0 0 0 0 1 0 0 1 0 0 0
0 0 0 0 0 0 0 0 0 0 0 0 0 0 0 0 0 0 0 0 1 0 0 0 0 0 0 0 0 0 0 0 0 0 0 0 0 0 0 0 0 0 0 0 0 0 0
0 0 0 0 0 0 0 0 0 0 0 0 0 0 0 0 0 0 0 0 0 1 0 0 0 0 0 0 0 0 0 0 0 0 0 0 0 0 0 0 0 0 0 0 0 0 0
0 0 0 0 0 0 0 0 0 0 0 0 0 0 0 0 0 0 0 0 0 1 0 0 0 0 0 0 0 0 0 0 0 0 0 0 0 0 0 0 0 0 0 0 0 0 0
0 0 0 0 0 0 0 0 0 0 0 0 0 0 0 0 0 0 0 0 0 0 2 5 4 0 0 0 1 0 0 0 0 0 0 0 0 0 0 0 0 0 0 0 0 0 0
0 0 0 0 0 0 0 0 0 0 0 0 0 0 0 0 0 0 0 0 0 0 0 3 3 6 0 0 0 0 0 0 0 0 0 0 0 0 0 0 0 0 0 0 0 0 0
0 0 0 0 0 0 0 0 0 0 0 0 0 0 0 0 0 0 0 0 0 0 0 0 0 0 0 0 0 0 0 0 0 0 0 0 0 0 0 0 0 0 0 0 0 0 0
0 0 0 0 0 0 0 0 0 0 0 0 0 0 0 0 0 0 0 0 0 0 0 1 5 0 0 0 13 0 0 0 1 2 0 0 1 0 0 0 0 0 0 0 0 0 0
0 4 3 0 0 0 0 0 0 0 0 0 0 0 0 0 0 0 0 0 0 0 0 0 0 11 3 1 6 0 0 0 1 1 1 3 1 0 0 1 0 0 0 0 0 0 0
4 7 7 0 1 0 0 0 0 0 0 0 0 0 0 0 0 0 0 0 0 0 0 0 0 17 18 3 3 0 0 0 0 0 0 0 0 1 0 1 0 0 0 0 0 0 0
7 8 7 2 5 3 3 0 0 0 0 7 0 0 0 2 0 0 0 0 0 0 0 0 0 0 0 0 0 0 0 0 0 0 0 0 0 0 0 0 0 0 0 0 0 0 0

GFSGBSN_con_mlcape_075.txt.gz
CAPE
3 6 3 5 8 5 6 5 10 9 18 14 16 11 18 16 11 12 0 0 5 23 36 65 45 90 4 0 0 0 2 0 24 12 0 5 0 0 20 22 70 3 0 3 0 0 0
4 5 2 8 4 4 5 6 6 6 13 10 17 8 8 9 6 0 1 0 2 27 92 158 154 28 0 0 0 0 0 23 88 22 0 16 0 16 33 34 58 18 10 4 0 3 0
3 2 2 8 9 3 4 4 5 2 11 7 14 8 7 6 2 0 0 1 3 20 102 170 210 54 0 0 0 0 0 0 7 33 0 31 0 32 4 12 39 40 13 0 0 2 1
2 1 2 6 5 3 4 5 7 6 3 5 12 6 11 9 1 0 0 0 0 9 70 146 128 19 0 0 0 0 2 0 0 42 8 38 21 17 2 0 28 24 14 2 0 0 0
1 1 2 4 8 3 4 6 7 5 1 2 9 4 6 10 8 0 0 0 0 0 13 44 15 0 0 0 0 0 0 0 1 13 15 18 27 6 12 10 14 14 0 0 0 0 0
0 1 2 4 5 8 1 5 7 5 6 3 3 1 0 2 0 0 0 0 0 0 0 0 0 0 0 0 0 0 11 1 1 20 31 40 31 0 3 5 0 0 0 0 0 0 0
0 1 1 3 3 6 5 6 5 5 4 2 6 3 2 0 0 0 0 0 0 0 0 0 1 0 0 0 1 0 5 0 19 23 5 17 4 0 0 1 0 0 0 0 0 0 2
0 0 1 1 2 2 5 4 4 5 4 2 1 9 1 0 0 0 0 0 0 0 0 0 0 1 0 0 0 0 0 1 7 8 2 7 2 0 0 4 0 0 0 0 0 0 15
0 0 1 1 1 2 2 4 3 4 3 4 2 3 2 0 0 0 0 0 0 0 0 1 2 7 3 6 1 0 5 22 11 2 2 0 0 0 3 14 0 0 0 0 0 0 0
0 0 0 0 0 2 1 3 5 2 4 2 2 0 2 0 0 0 0 0 0 0 0 0 3 1 2 3 0 0 15 15 5 0 0 7 2 0 0 0 6 0 0 0 0 0 0
0 0 0 0 0 0 1 2 4 6 3 0 3 2 0 0 0 0 0 0 0 0 0 0 4 7 10 7 0 12 3 32 0 0 0 0 2 0 0 0 6 5 0 0 0 0 0
0 0 0 0 0 0 2 3 2 4 1 0 2 1 0 0 0 0 0 0 0 0 0 0 2 15 16 15 8 3 0 3 3 0 3 0 0 0 0 0 6 2 0 0 0 0 0
0 0 0 0 0 0 0 1 1 1 0 0 0 0 0 0 0 0 0 0 0 0 0 0 1 0 8 6 1 0 0 1 0 0 0 1 0 1 0 0 0 4 0 8 0 0 0
0 0 0 0 0 0 0 0 0 0 0 0 0 0 0 0 0 0 0 0 0 0 0 0 0 1 4 15 1 10 18 1 0 0 0 0 1 0 0 0 1 0 0 0 0 0 0
0 0 0 0 0 0 0 0 0 0 0 0 0 0 0 0 0 0 0 0 0 0 0 0 0 0 1 3 1 4 6 2 0 0 0 0 0 0 0 0 0 0 4 0 0 0 0
0 0 0 0 0 0 0 0 0 0 0 0 0 0 0 0 0 0 0 0 0 0 0 0 0 0 0 0 0 0 0 0 0 0 0 0 0 1 0 2 0 0 0 0 0 0 0
0 0 0 0 0 0 0 0 0 0 0 0 0 0 0 0 0 0 0 0 0 0 0 0 0 0 0 0 2 0 0 0 0 0 0 0 0 2 0 3 1 0 2 0 0 0 0
0 0 0 0 0 0 0 0 0 0 0 0 0 0 0 0 0 0 0 0 0 0 0 0 0 0 0 0 0 0 0 0 0 0 0 0 0 0 1 2 0 0 1 2 0 0 0
0 0 0 0 0 0 0 0 0 0 0 0 0 0 0 0 0 0 0 0 0 0 0 0 0 0 0 0 0 0 0 0 0 0 0 0 0 0 0 0 2 4 1 9 0 0 0
0 0 0 0 0 0 0 0 0 0 0 0 0 0 0 0 0 0 0 0 0 0 0 0 0 0 0 0 0 0 0 0 0 0 0 0 0 0 0 0 0 0 1 2 2 0 0
0 0 0 0 0 0 0 0 0 0 0 0 0 0 0 0 0 0 0 0 0 0 0 0 0 0 0 0 0 0 0 0 0 0 0 0 0 0 0 0 0 0 0 0 0 0 0
0 0 0 0 0 0 0 0 0 0 0 0 0 0 0 0 0 0 0 0 0 0 0 0 0 0 0 0 0 0 0 0 0 0 0 0 0 0 0 0 0 0 0 0 0 0 0
0 0 0 0 0 0 0 0 0 0 0 0 0 0 0 0 0 0 0 0 0 0 0 1 2 0 0 0 0 1 0 0 0 0 0 0 0 0 0 0 0 0 0 0 0 0 0
0 0 0 0 0 0 0 0 0 0 0 0 0 0 0 0 0 0 0 0 0 0 0 0 0 0 0 0 0 0 0 0 0 0 0 0 0 0 0 0 0 0 0 0 0 0 0
0 0 0 0 0 0 0 0 0 0 0 0 0 0 0 0 0 0 0 0 0 0 0 0 0 0 0 0 0 9 3 0 0 0 0 0 0 0 0 0 0 0 0 0 0 0 0
0 0 0 0 0 0 0 0 0 0 0 0 0 0 0 0 0 0 0 0 0 0 0 0 0 0 3 0 2 0 0 0 0 0 0 0 0 0 0 0 0 0 0 0 0 0 0
0 0 0 0 0 0 0 0 0 0 0 0 0 0 0 0 0 0 0 0 0 0 0 0 0 0 12 10 0 0 0 0 0 0 0 1 0 0 0 0 0 0 0 0 0 0 0
0 0 0 3 1 0 0 0 0 0 0 0 0 0 0 0 0 0 0 0 0 0 0 0 0 0 0 6 1 1 0 0 0 0 0 0 0 0 1 0 0 0 0 0 0 0 0
0 0 2 2 2 1 0 0 0 0 0 0 0 0 0 0 0 0 0 0 0 0 0 0 0 0 0 0 0 0 0 0 0 0 0 0 0 0 0 0 0 0 0 0 0 0 0

GFSGBSN_con_mlcape_078.txt.gz
CAPE
5 6 6 3 7 5 5 6 3 7 14 9 14 3 3 15 5 0 0 0 2 3 58 104 84 99 3 0 0 1 1 0 15 30 2 1 9 0 16 20 12 6 17 10 3 4 0
2 5 8 3 7 6 4 5 7 1 7 5 9 8 8 13 7 1 0 0 0 2 61 147 169 16 0 0 0 0 0 0 33 62 0 27 6 0 17 15 17 17 11 19 1 0 0
1 4 6 7 8 7 1 3 7 2 9 4 6 4 10 6 5 1 0 0 0 0 32 111 155 37 0 0 0 0 0 0 12 66 21 34 5 25 25 18 44 35 13 1 0 0 0
0 3 3 6 4 4 2 4 4 3 3 4 2 4 7 8 7 5 0 0 0 0 0 78 73 0 0 0 0 0 0 0 6 94 20 40 8 13 10 0 39 51 25 5 0 0 0
0 2 2 4 5 4 2 4 4 6 1 4 4 1 6 4 3 0 1 0 0 0 0 0 0 0 0 0 1 6 15 0 10 56 23 39 26 8 1 10 16 24 13 9 3 0 0
0 0 1 2 4 5 5 3 3 6 8 1 5 1 4 1 0 0 0 0 0 0 0 0 0 0 0 0 6 1 27 0 1 36 5 19 22 1 0 2 0 7 0 9 3 0 7
0 0 1 1 3 3 5 4 3 4 6 4 2 3 0 1 0 0 0 0 0 0 0 0 0 0 0 0 21 1 3 0 11 12 5 0 2 0 0 5 0 1 0 0 0 0 1
0 0 0 0 2 4 4 6 5 3 4 5 0 2 2 3 0 0 0 0 0 0 0 3 0 0 3 1 0 0 3 2 2 3 2 2 1 0 0 7 0 0 0 0 0 0 0
0 0 0 0 0 2 4 4 4 2 2 3 1 1 2 3 0 0 0 0 0 0 0 4 1 0 2 6 0 0 21 2 10 0 2 0 1 0 0 16 4 0 0 0 0 0 0
0 0 0 0 0 2 2 3 4 4 3 3 2 1 1 0 0 0 0 0 0 0 0 0 5 1 3 0 0 0 16 0 0 1 0 1 0 0 9 10 4 0 0 0 2 0 4
0 0 0 0 0 1 2 3 5 4 2 0 3 1 0 0 0 0 0 0 0 0 0 0 3 13 10 0 0 0 3 4 0 0 0 0 4 0 0 7 4 0 0 0 0 0 0
0 0 0 0 0 0 0 1 4 3 0 0 2 0 1 0 0 0 0 0 0 0 0 0 5 15 8 7 4 2 0 2 0 8 3 1 0 2 0 0 14 5 0 0 0 0 0
0 0 0 0 0 0 0 1 1 1 0 0 0 0 0 0 0 0 0 0 0 0 0 0 0 1 2 0 0 0 1 0 0 1 0 0 4 0 0 0 6 15 11 1 1 2 0
0 0 0 0 0 0 0 0 0 0 0 0 0 0 0 0 0 0 0 0 0 0 0 0 0 7 4 1 0 0 4 0 0 0 0 0 0 1 0 0 0 0 1 0 0 0 0
0 0 0 0 0 0 0 0 0 0 0 0 0 0 0 0 0 0 0 0 0 0 0 0 0 4 0 7 0 2 2 0 0 0 0 0 0 0 0 0 0 0 0 0 0 0 0
0 0 0 0 0 0 0 0 0 0 0 0 0 0 0 0 0 0 0 0 0 0 0 0 0 0 0 0 0 0 0 0 0 0 0 0 0 0 0 0 0 0 0 0 0 0 0
0 0 0 0 0 0 0 0 0 0 0 0 0 0 0 0 0 0 0 0 0 0 0 0 0 0 0 0 0 0 0 0 0 0 0 0 0 1 1 0 0 2 2 0 0 0 0
0 0 0 0 0 0 0 0 0 0 0 0 0 0 0 0 0 0 0 0 0 0 0 0 0 0 0 0 0 0 0 0 0 0 0 0 0 0 0 1 0 3 6 2 1 0 0
0 0 0 0 0 0 0 0 0 0 0 0 0 0 0 0 0 0 0 0 0 0 0 0 0 0 0 0 0 0 0 0 0 0 0 0 0 0 1 0 3 7 2 3 1 0 0
0 0 0 0 0 0 0 0 0 0 0 0 0 0 0 0 0 0 0 0 0 0 0 0 0 0 0 0 0 0 0 0 0 0 0 0 0 0 0 0 0 1 0 1 2 0 0
0 0 0 0 0 0 0 0 0 0 0 0 0 0 0 0 0 0 0 0 0 0 0 0 0 0 0 0 0 0 0 0 0 0 0 0 0 0 0 0 0 0 0 0 1 0 0
0 0 0 0 0 0 0 0 0 0 0 0 0 0 0 0 0 0 0 0 0 0 0 0 0 0 0 0 0 0 0 0 0 0 0 0 0 0 0 0 0 0 0 0 0 0 3
0 0 0 0 0 0 0 0 0 0 0 0 0 0 0 0 0 0 0 0 0 0 0 0 0 0 0 5 0 0 0 0 0 0 0 0 0 0 0 0 0 0 0 0 0 0 0
0 0 0 0 0 0 0 0 0 0 0 0 0 0 0 0 0 0 0 0 0 0 0 0 0 0 0 0 0 0 0 0 0 0 0 0 0 0 0 0 0 0 0 0 0 0 0
1 0 0 0 0 0 0 0 0 0 0 0 0 0 0 0 0 0 0 0 0 0 0 0 0 0 0 9 0 0 0 1 0 0 0 0 0 0 0 0 0 0 0 0 0 0 0
0 0 0 0 0 0 0 0 0 0 0 0 0 0 0 0 0 0 0 0 0 0 0 0 0 0 0 1 5 6 4 0 0 0 0 0 0 5 0 0 0 0 0 0 0 0 0
0 0 0 0 0 0 0 0 0 0 0 0 0 0 0 0 0 0 0 0 0 0 0 0 0 0 0 0 2 0 5 0 0 0 0 0 0 0 1 0 0 0 0 0 0 0 0
0 0 0 0 0 0 0 0 0 0 0 0 0 0 0 0 0 0 0 0 0 0 0 0 0 0 1 0 3 0 0 0 0 0 0 0 0 0 1 3 0 0 0 0 0 0 0
0 0 0 0 1 1 0 0 0 0 0 0 0 0 0 0 0 0 0 0 0 0 0 0 0 0 0 0 0 0 1 0 0 0 0 0 0 0 0 0 0 0 0 0 0 0 0

GFSGBSN_con_mlcape_081.txt.gz
CAPE
1 1 3 4 4 4 5 4 5 3 4 8 16 5 5 5 7 2 1 3 5 1 28 71 58 19 0 0 0 0 9 0 4 30 28 33 9 2 2 21 2 8 43 42 4 0 0
1 1 1 5 3 1 2 5 4 4 4 8 11 10 16 3 6 5 2 0 0 1 12 60 82 1 0 0 0 0 0 1 18 60 22 24 16 0 1 30 2 6 26 40 2 0 0
1 1 1 3 3 4 2 6 5 3 1 3 11 9 8 15 10 7 3 0 0 0 0 56 60 0 0 0 0 0 0 0 25 77 35 39 2 29 16 29 25 0 18 36 8 0 0
0 0 2 3 3 2 5 6 5 5 4 4 5 8 2 8 9 4 3 0 0 0 0 44 7 0 0 0 0 0 0 0 33 124 59 79 2 3 25 5 28 18 9 1 0 0 0
0 0 1 2 3 4 1 5 5 5 7 1 8 8 3 5 4 2 0 0 0 0 0 0 0 0 0 0 2 1 18 0 11 64 19 24 9 6 12 21 26 25 0 1 0 0 0
0 0 0 2 2 5 6 7 5 6 6 7 2 5 6 4 1 1 0 0 0 0 0 0 0 0 0 1 23 21 9 0 2 38 5 16 11 0 9 3 1 5 11 6 0 0 0
0 0 0 1 2 3 4 3 0 8 8 8 2 2 5 1 2 1 0 0 0 0 0 0 0 0 0 0 1 8 0 0 1 19 0 14 5 0 4 19 0 0 9 1 2 0 0
0 0 0 0 1 2 5 5 5 3 1 9 5 2 3 1 2 0 0 0 0 0 0 0 0 0 0 0 0 0 9 0 5 2 5 1 3 0 0 4 8 3 2 0 0 0 1
0 0 0 0 1 1 3 6 1 2 5 8 5 1 5 1 2 0 0 0 0 0 0 2 1 0 0 0 0 12 14 8 1 0 0 0 0 0 6 10 8 2 0 0 0 0 1
0 0 0 0 1 1 2 3 2 4 6 6 5 1 1 1 0 0 0 0 0 0 0 0 2 1 0 0 0 18 12 0 0 1 1 2 6 0 2 14 2 0 0 0 0 0 4
0 0 0 0 0 0 1 2 2 3 3 6 2 0 1 0 0 0 0 0 0 0 0 0 14 0 0 0 0 6 0 1 0 0 0 1 2 0 0 0 0 0 0 0 0 0 0
0 0 0 0 0 0 1 0 1 2 2 4 1 0 0 0 0 0 0 0 0 0 0 1 11 3 0 0 0 4 0 0 0 0 1 0 0 11 8 3 4 0 0 0 0 0 0
0 0 0 0 0 0 0 0 2 1 2 2 0 0 0 0 0 0 0 0 0 0 0 0 0 2 2 0 0 3 1 0 0 0 0 1 2 1 0 11 26 18 6 0 0 0 0
0 0 0 0 0 0 0 0 1 0 1 1 0 0 0 0 0 0 0 0 0 0 0 0 0 0 1 0 0 0 2 0 0 0 0 0 0 4 0 1 0 1 7 0 0 0 0
0 0 0 0 0 0 0 0 0 0 0 0 0 0 0 0 0 0 0 0 0 0 0 0 0 5 0 2 0 0 6 0 0 0 0 0 0 0 0 1 0 0 2 0 0 0 0
0 0 0 0 0 0 0 0 0 0 0 0 0 0 0 0 0 0 0 0 0 0 0 0 0 0 0 1 1 1 0 0 0 0 0 0 0 0 0 0 0 0 0 0 0 0 0
0 0 0 0 0 0 0 0 0 0 0 0 0 0 0 0 0 0 0 0 0 0 0 0 0 0 0 0 0 0 0 0 0 0 0 0 0 1 1 1 1 1 0 0 0 0 0
0 0 0 0 0 0 0 0 0 0 0 0 0 0 0 0 0 0 0 0 0 0 0 0 0 0 0 0 2 0 0 0 0 0 0 0 0 0 0 0 0 4 0 2 1 0 0
0 0 0 0 0 0 0 0 0 0 0 0 0 0 0 0 0 0 0 0 0 0 0 0 0 0 0 0 0 0 0 0 0 0 0 0 0 0 0 0 1 2 0 5 0 0 0
0 0 0 0 0 0 0 0 0 0 0 0 0 0 0 0 0 0 0 0 0 0 0 0 0 0 0 0 0 0 0 0 0 0 0 0 0 0 0 0 0 1 0 1 3 1 0
0 0 0 0 0 0 0 0 0 0 0 0 0 0 0 0 0 0 0 0 0 0 0 0 0 0 0 3 0 0 0 0 0 0 2 0 0 0 0 0 0 0 0 0 0 0 0
0 0 0 0 0 0 0 0 0 0 0 0 0 0 0 0 0 0 0 0 0 0 0 0 0 0 8 8 28 0 0 0 0 0 0 0 0 0 0 0 0 0 0 0 0 0 0
0 0 0 0 0 0 0 0 0 0 0 0 0 0 0 0 0 0 0 0 0 0 0 0 0 0 0 0 0 2 0 1 1 0 0 0 0 0 0 0 0 0 0 0 0 0 0
0 0 0 0 0 0 0 0 0 0 0 0 0 0 0 0 0 0 0 0 0 0 0 0 0 0 0 0 0 0 0 1 0 0 0 0 0 0 0 0 0 0 0 0 0 0 0
0 0 0 0 0 0 0 0 0 0 0 0 0 0 0 0 0 0 0 0 0 0 0 0 0 0 0 0 0 0 0 0 0 0 0 0 0 0 0 0 0 0 0 0 0 0 0
0 0 0 0 0 0 0 0 0 0 0 0 0 0 0 0 0 0 0 0 0 0 0 0 0 0 0 0 0 0 0 0 0 0 0 0 0 0 0 0 0 0 0 0 0 0 0
0 0 0 0 0 0 0 0 0 0 0 0 0 0 0 0 0 0 0 0 0 0 0 0 0 0 0 0 0 0 0 0 0 0 0 0 0 0 0 0 0 0 0 0 0 0 0
0 0 0 0 0 0 0 0 0 0 0 0 0 0 0 0 0 0 0 0 0 0 0 0 0 0 0 0 0 0 0 3 0 0 0 0 0 0 0 0 0 0 0 0 0 0 0
0 0 0 0 0 0 0 0 0 0 0 0 0 0 0 0 0 0 0 0 0 0 1 0 0 0 0 0 0 0 0 0 0 3 0 0 0 0 0 0 0 0 0 0 0 0 0

GFSGBSN_con_mlcape_084.txt.gz
CAPE
1 1 1 1 2 4 2 5 6 2 4 12 12 11 18 9 2 2 1 0 0 2 13 46 61 22 0 0 5 3 8 0 1 5 47 27 29 20 0 7 44 29 64 52 31 18 22
0 0 1 1 3 2 2 3 7 7 2 9 12 12 6 18 11 4 0 0 0 0 0 67 81 0 0 0 0 0 0 0 2 56 52 29 41 9 23 41 37 2 63 67 28 26 1
0 0 1 0 2 2 4 1 4 5 3 4 10 13 8 4 13 5 5 0 0 0 0 65 37 0 15 0 1 0 0 0 0 58 59 31 29 46 18 56 36 26 23 48 36 43 30
0 0 0 1 1 2 3 2 2 5 7 1 6 8 9 2 5 4 1 0 0 0 0 0 9 0 5 0 10 8 3 1 59 51 42 22 24 41 43 25 43 19 12 16 46 19 10
0 0 0 0 1 1 4 5 2 3 7 7 1 6 6 5 4 2 0 0 0 0 0 0 0 0 0 1 2 0 3 1 50 68 56 23 27 22 30 28 39 31 1 8 28 21 13
0 0 0 0 1 1 2 3 4 2 4 4 2 3 5 3 2 1 0 0 0 0 0 0 0 0 0 7 0 0 3 0 41 52 19 13 28 11 17 21 3 4 8 19 15 0 0
0 0 0 0 0 1 1 2 4 2 4 3 4 2 3 2 2 1 0 0 0 0 0 0 0 0 2 4 0 6 0 0 38 30 2 0 16 6 0 30 7 14 13 15 11 0 0
0 0 0 0 0 0 1 1 4 2 2 4 4 3 2 2 1 0 0 0 0 0 0 0 0 0 0 0 0 10 0 0 6 6 1 1 4 12 0 4 1 9 13 3 0 0 0
0 0 0 0 0 0 0 0 2 5 1 1 1 2 2 1 0 0 0 0 0 0 2 0 0 0 0 0 1 12 12 1 3 5 2 0 0 9 3 2 1 2 5 1 0 0 7
0 0 0 0 0 0 0 0 2 2 1 2 0 2 1 0 0 0 0 0 0 0 0 0 5 1 0 0 6 13 12 0 4 0 0 2 1 0 14 4 1 1 0 0 0 3 3
0 0 0 0 0 0 0 0 1 5 2 1 0 0 1 0 0 0 0 0 0 0 0 0 1 0 0 0 0 8 17 2 0 0 1 0 1 1 8 12 8 10 0 5 7 21 9
0 0 0 0 0 0 0 0 0 3 4 3 0 0 0 0 0 0 0 0 0 0 0 0 2 7 8 0 0 0 17 0 4 0 1 0 1 7 8 6 1 0 2 2 1 8 1
0 0 0 0 0 0 0 0 0 2 1 2 0 0 0 0 0 0 0 0 0 0 0 0 0 1 2 0 0 1 6 1 3 0 0 2 12 11 14 14 19 30 30 6 9 6 0
0 0 0 0 0 0 0 0 0 0 0 0 0 0 0 0 0 0 0 0 0 0 0 0 0 0 9 0 1 0 3 0 0 0 2 0 0 7 10 13 8 3 8 2 0 0 0
0 0 0 0 0 0 0 0 0 0 0 0 0 0 0 0 0 0 0 0 0 0 0 0 0 3 1 6 7 2 0 0 0 0 4 1 0 0 2 0 6 9 17 0 0 0 0
0 0 0 0 0 0 0 0 0 0 0 0 0 0 0 0 0 0 0 0 0 0 0 0 0 0 0 2 0 0 3 0 0 0 0 0 0 4 0 1 1 12 0 2 5 0 0
0 0 0 0 0 0 0 0 0 0 0 0 0 0 0 0 0 0 0 0 0 0 0 0 0 0 0 1 2 0 0 0 0 0 0 0 0 2 3 2 1 0 1 2 2 4 3
0 0 0 0 0 0 0 0 0 0 0 0 0 0 0 0 0 0 0 0 0 0 0 0 0 0 0 0 4 3 1 0 0 0 0 0 0 1 0 1 0 10 5 9 8 0 0
0 0 0 0 0 0 0 0 0 0 0 0 0 0 0 0 0 0 0 0 0 0 0 0 0 0 0 0 2 4 2 0 0 0 0 0 0 0 2 1 1 8 3 5 5 0 0
0 0 0 0 0 0 0 0 0 0 0 0 0 0 0 0 0 0 0 0 0 0 0 0 0 0 0 0 0 12 3 0 0 1 0 0 1 0 0 0 0 0 1 7 7 1 1
0 0 0 0 0 0 0 0 0 0 0 0 0 0 0 0 0 0 0 0 0 0 0 0 0 0 1 0 5 9 10 3 0 0 1 0 0 0 0 0 0 0 0 2 5 0 0
0 0 0 0 0 0 0 0 0 0 0 0 0 0 0 0 0 0 0 0 0 0 0 0 0 0 0 0 13 30 0 2 35 0 10 0 0 0 0 0 0 0 0 0 0 0 0
0 0 0 0 0 0 0 0 0 0 0 0 0 0 0 0 0 0 0 0 0 0 0 0 0 0 0 0 0 1 3 0 0 0 1 1 1 0 0 0 0 0 0 0 0 0 0
0 0 0 0 0 0 0 0 0 0 0 0 0 0 0 0 0 0 0 0 0 0 0 0 0 0 0 0 0 0 0 0 0 0 1 0 1 2 1 0 0 0 0 0 0 0 0
1 0 0 0 0 0 0 0 0 0 0 0 0 0 0 0 0 0 0 0 0 0 0 0 0 0 0 0 0 1 2 0 0 0 0 3 1 0 0 0 0 0 0 0 0 0 0
3 0 0 0 0 0 0 0 0 0 0 0 0 0 0 0 0 0 0 0 0 0 0 0 0 0 0 0 3 0 3 0 3 0 0 0 1 2 0 1 0 0 0 0 0 0 0
4 0 0 0 0 0 0 0 0 0 0 0 0 0 0 0 0 0 0 0 0 0 0 0 0 0 0 2 4 2 0 0 1 0 0 0 1 0 0 3 0 0 0 0 0 0 0
4 0 0 0 0 0 0 0 0 0 0 0 0 0 0 0 0 0 0 0 0 0 0 0 0 0 0 1 0 0 1 2 2 0 1 0 0 0 4 1 1 0 0 0 0 0 0
1 0 0 0 0 0 0 0 0 0 0 0 0 0 0 0 0 0 0 0 0 0 0 0 0 0 0 0 0 0 0 0 1 2 0 5 0 1 0 0 0 0 0 0 0 0 0

GFSGBSN_con_mlcape_087.txt.gz
CAPE
0 0 0 0 1 5 7 4 1 7 6 7 16 20 8 8 24 4 2 3 1 0 0 82 100 14 35 27 8 0 0 0 5 2 111 176 35 36 0 21 84 59 1 49 64 42 30
1 0 0 0 0 3 5 1 4 6 4 5 13 12 11 0 10 10 6 8 0 0 0 70 70 1 31 17 6 7 3 0 4 58 101 105 56 42 20 15 29 71 31 37 25 62 59
0 0 0 0 0 0 3 4 6 4 6 6 6 10 12 7 2 9 5 7 0 0 0 1 57 0 31 7 20 12 0 0 0 71 86 49 23 6 17 38 52 69 52 72 10 29 45
0 0 0 0 0 0 1 2 2 8 12 4 6 6 8 10 2 3 3 0 0 0 0 0 0 0 6 5 19 29 13 7 61 59 19 2 17 55 73 63 37 28 33 1 32 60 57
0 0 0 0 0 0 0 1 3 4 12 11 5 3 6 7 1 1 1 0 0 0 0 0 0 1 11 21 5 3 2 24 30 47 35 13 32 16 59 28 26 38 10 20 28 29 42
2 0 0 0 0 0 0 0 1 3 10 9 6 4 5 7 2 0 0 0 0 0 0 0 0 0 1 1 0 0 0 23 24 26 0 4 27 18 18 18 4 3 8 23 28 22 14
2 1 0 0 0 0 0 0 0 1 5 5 2 1 4 4 0 0 0 0 0 0 0 0 7 7 3 9 5 2 0 33 26 19 2 1 7 2 2 19 28 8 22 23 26 13 12
3 1 0 0 0 0 0 0 0 0 2 5 4 1 3 4 0 0 0 0 0 0 4 1 0 2 0 0 8 3 5 20 10 12 5 1 15 5 9 26 20 49 32 38 21 14 0
4 1 0 0 0 0 0 0 0 0 1 2 1 0 2 1 0 0 0 0 0 0 9 0 0 0 0 0 4 17 9 1 13 6 7 0 8 4 9 11 16 15 19 22 13 0 2
4 1 0 0 0 0 0 0 0 0 1 1 2 0 1 0 0 0 0 0 0 0 0 0 0 2 1 0 3 4 9 18 8 1 0 0 0 0 3 11 2 6 8 2 0 6 4
2 1 0 0 0 0 0 0 0 0 0 0 3 1 0 0 0 0 0 0 0 0 0 0 5 0 0 1 0 10 17 18 4 0 8 2 4 1 7 1 0 36 6 16 20 13 12
2 0 0 0 0 0 0 0 0 0 0 0 1 1 0 0 1 0 0 0 0 0 0 0 3 5 2 0 0 1 9 3 10 5 5 0 2 6 11 24 11 8 3 18 19 17 3
2 1 0 0 0 0 0 0 0 0 0 0 0 0 0 0 1 0 0 0 0 0 0 0 3 4 0 2 1 0 3 6 15 8 0 1 16 16 4 18 17 7 9 8 5 2 0
2 2 0 0 0 0 0 0 0 0 0 0 0 0 0 0 0 0 2 0 0 0 0 0 0 0 1 0 1 0 4 8 3 2 3 0 0 5 1 15 6 1 18 8 3 2 0
2 2 0 0 0 0 0 0 0 0 0 0 0 0 2 0 2 1 0 0 0 0 0 0 5 5 10 1 3 7 4 3 4 1 7 0 0 3 0 18 23 5 20 25 8 0 0
2 2 1 0 0 0 0 0 0 0 0 0 0 0 2 0 0 1 0 0 0 0 0 0 3 1 2 8 3 8 2 0 1 0 5 4 0 3 2 1 3 12 4 8 1 0 0
2 2 1 0 0 0 0 0 0 0 0 0 0 0 1 0 0 0 0 0 0 0 0 0 0 0 0 5 17 8 3 1 0 0 0 3 3 4 1 1 0 1 0 2 5 0 9
1 3 2 0 0 0 0 0 0 0 0 0 0 0 3 2 0 0 0 0 0 0 0 0 0 0 0 2 7 25 4 8 0 5 1 0 20 0 0 0 3 0 0 2 3 7 3
2 3 3 0 0 0 0 0 0 0 0 0 0 0 0 1 0 0 0 0 0 0 0 0 0 0 0 0 4 9 30 27 29 32 4 0 6 3 0 2 4 8 10 11 8 9 0
1 4 3 0 0 0 0 0 0 0 0 0 0 0 0 0 0 0 0 0 0 0 0 0 0 0 2 5 6 17 24 24 25 18 9 7 10 0 0 0 0 1 0 1 4 0 0
1 4 4 0 0 0 0 0 0 0 0 0 0 0 0 0 0 0 0 0 0 0 0 0 0 1 4 3 5 1 12 23 30 40 31 2 0 2 5 0 0 0 0 0 1 0 3
3 2 3 0 0 0 0 0 0 0 0 0 0 0 0 0 0 0 0 0 0 0 0 0 0 0 0 0 0 0 0 0 9 39 2 2 0 0 0 0 0 0 0 0 1 1 2
5 4 1 0 0 0 0 0 0 0 0 0 0 0 0 0 0 0 0 0 0 0 0 0 0 0 0 0 0 0 0 4 1 0 0 0 0 0 0 0 0 0 0 0 0 0 0
3 3 1 1 0 0 0 0 0 0 0 0 0 0 0 0 0 0 0 0 0 0 0 0 0 0 0 0 0 0 0 0 0 7 0 0 0 0 0 0 0 0 0 0 0 0 0
3 5 3 0 0 0 0 0 0 0 0 0 0 0 0 0 0 0 0 0 0 0 0 0 0 0 0 0 0 1 0 0 0 0 0 1 0 1 0 0 0 0 0 0 0 0 0
3 4 2 0 0 0 0 0 0 0 0 0 0 0 0 0 0 0 0 0 0 0 0 0 0 0 0 0 1 0 4 0 5 0 0 0 0 0 1 0 0 0 0 0 0 0 0
4 4 1 0 0 0 0 0 0 0 0 0 0 0 0 0 0 0 0 0 0 0 0 0 0 0 0 0 4 5 4 2 4 0 0 1 0 0 2 7 0 0 0 0 0 0 0
4 5 2 0 0 0 0 0 0 0 0 0 0 0 0 0 0 0 0 0 0 0 0 0 0 0 0 0 0 2 1 0 1 0 4 1 0 0 7 0 0 0 0 0 0 0 0
5 4 0 0 0 0 0 0 0 0 0 0 0 0 0 0 0 0 0 0 0 0 0 0 0 0 0 0 0 0 0 0 1 0 0 0 7 0 13 5 0 0 0 0 0 0 0

GFSGBSN_con_mlcape_090.txt.gz
CAPE
0 1 0 0 0 2 1 0 3 6 5 2 7 15 16 11 0 16 9 11 2 1 0 1 108 77 26 14 2 1 0 0 0 0 0 91 27 60 17 3 0 0 0 73 66 39 21
1 0 0 0 0 1 2 1 0 2 8 4 2 9 12 11 1 4 12 6 4 0 0 0 46 19 46 0 10 7 0 0 0 10 70 124 30 49 35 58 27 0 0 3 5 86 7
3 2 1 0 0 0 1 1 1 1 3 9 6 3 5 11 2 3 7 5 1 0 0 0 9 2 0 0 9 7 1 0 0 34 110 114 68 57 24 5 78 25 0 18 6 38 57
3 2 1 0 0 0 0 0 1 1 1 6 8 5 6 10 3 1 2 1 0 0 0 0 4 2 0 0 2 1 3 0 18 80 54 9 2 13 16 14 19 0 17 1 3 51 44
5 3 2 0 0 0 0 0 1 1 1 5 5 3 2 3 4 0 0 0 0 0 0 0 0 4 0 3 1 0 1 19 39 21 0 0 0 0 25 2 0 6 16 0 3 11 44
5 5 3 1 0 0 0 0 1 1 1 1 1 1 1 3 2 0 0 0 0 0 0 0 2 0 0 0 0 1 0 23 31 0 0 0 0 0 0 23 0 0 1 18 9 18 23
6 7 4 1 0 0 0 0 0 0 1 3 1 0 3 4 3 0 0 0 0 0 0 0 0 0 0 0 1 1 0 26 3 0 0 0 0 0 0 0 4 7 5 2 0 55 11
22 10 5 2 0 0 0 0 0 0 1 1 1 2 1 1 0 0 0 0 0 0 0 0 0 0 0 0 6 0 1 13 9 0 0 1 0 0 9 10 13 4 0 0 8 19 27
14 31 4 4 0 0 0 0 0 0 1 0 0 2 1 0 0 0 0 0 0 0 1 0 0 0 0 0 2 0 0 3 1 3 7 0 5 5 8 21 22 24 4 19 18 2 0
28 24 9 4 0 0 0 0 0 0 1 0 0 1 0 0 0 0 0 0 0 0 0 0 0 0 0 0 0 0 0 0 0 1 0 0 1 0 12 16 8 19 19 5 10 7 0
25 14 14 3 0 0 0 0 0 0 2 1 0 1 0 0 0 0 0 0 0 0 0 0 1 0 0 0 0 0 0 0 0 0 0 2 0 0 9 1 1 8 15 6 0 1 3
43 25 3 3 0 0 0 0 0 0 1 1 0 0 0 0 0 0 0 0 0 0 0 0 1 2 2 0 0 0 1 0 2 1 0 1 0 1 4 13 3 28 24 22 11 8 0
5 33 0 2 2 0 0 0 0 0 0 0 0 0 0 0 0 0 0 0 0 0 0 0 1 1 0 0 0 0 5 2 2 1 0 0 0 0 1 1 4 25 17 3 1 1 0
11 40 19 2 3 0 0 0 0 0 0 0 0 0 0 1 0 0 0 0 0 0 0 0 0 0 1 0 0 0 0 0 0 1 1 0 0 0 0 1 0 11 7 0 0 0 0
14 5 29 2 5 0 0 0 0 0 0 0 0 0 0 0 0 0 0 0 0 0 0 0 1 1 4 0 0 1 0 0 0 1 2 0 0 0 0 0 0 0 0 5 2 3 0
25 2 11 2 5 0 0 0 0 0 0 0 0 0 0 0 0 0 0 0 0 0 0 0 0 0 0 6 4 7 5 0 0 6 28 14 1 0 0 1 3 1 0 0 1 0 0
8 5 4 2 5 0 0 0 0 0 0 0 0 0 0 0 1 0 0 0 0 0 0 0 0 0 0 0 5 12 9 1 2 3 16 22 1 1 1 2 1 0 1 3 1 0 0
8 21 2 1 4 1 0 0 0 0 0 0 0 0 1 1 0 0 0 0 0 0 0 0 0 0 0 0 0 3 31 14 54 31 1 1 0 0 0 0 0 1 0 1 0 0 0
27 29 19 2 4 0 0 0 0 0 0 0 0 0 0 0 0 0 0 0 0 0 0 0 0 0 0 0 0 0 9 37 46 13 0 0 0 0 1 1 6 2 0 1 0 0 0
22 3 29 3 3 0 0 0 0 0 0 0 0 0 0 0 0 0 0 0 0 0 0 0 0 0 0 0 0 6 16 15 26 21 49 5 0 0 0 0 0 0 0 0 2 0 0
41 1 10 4 4 0 0 0 0 0 0 0 0 0 0 0 0 0 0 0 0 0 0 0 0 0 0 0 0 0 0 0 0 0 11 2 0 0 0 5 0 0 0 2 1 0 0
21 9 3 4 2 0 0 0 0 0 0 0 0 0 0 0 0 0 0 0 0 0 0 0 0 0 0 0 0 0 0 0 0 0 2 1 0 0 0 8 0 0 0 1 0 0 0
17 1 18 4 4 2 0 0 0 0 0 0 0 0 0 0 0 0 0 0 0 0 0 0 0 0 0 0 0 0 0 0 0 0 0 0 0 0 0 0 0 0 0 0 0 0 0
8 0 4 3 4 0 0 0 0 0 0 0 0 0 0 0 0 0 0 0 0 0 0 0 0 0 0 0 0 0 0 0 0 0 2 0 0 0 0 0 0 0 0 0 0 0 0
1 3 8 3 4 0 0 0 0 0 0 0 0 0 0 0 0 0 0 0 0 0 0 0 0 0 0 0 0 0 0 0 0 0 0 1 0 0 0 0 0 0 0 0 0 0 0
3 2 17 3 3 0 0 0 0 0 0 0 0 0 0 0 0 0 0 0 0 0 0 0 0 0 0 0 0 0 0 0 0 0 0 0 2 0 2 0 1 0 0 0 0 0 0
1 6 15 4 3 0 0 0 0 0 0 0 0 0 0 0 0 0 0 0 0 0 0 0 0 0 0 0 0 0 0 0 0 0 0 1 0 0 0 0 0 0 0 0 0 0 0
11 8 4 5 3 0 0 0 0 0 0 0 0 0 0 0 0 0 0 0 0 0 0 0 0 0 0 0 0 1 0 0 0 0 4 0 0 0 0 1 0 0 0 0 1 1 0
1 11 3 4 0 0 0 0 0 0 0 0 0 0 0 0 0 0 0 0 0 0 0 0 0 0 0 0 0 0 0 0 0 0 0 0 1 1 3 0 0 0 0 0 0 0 0

GFSGBSN_con_mlcape_093.txt.gz
CAPE
1 2 1 0 0 0 1 1 3 2 4 3 4 3 5 8 9 2 7 8 11 1 0 0 5 77 17 1 0 0 3 0 0 0 0 5 0 30 11 0 0 0 0 14 2 17 39
26 3 2 1 0 0 0 0 1 2 4 6 6 4 1 2 2 2 3 2 7 0 0 0 0 30 2 0 2 1 0 0 0 0 11 7 0 22 21 4 0 0 0 0 0 3 25
8 29 3 3 0 0 0 0 0 1 2 5 8 6 3 3 1 1 1 1 2 0 0 0 10 14 0 0 0 0 0 0 0 11 55 46 3 25 16 14 19 3 6 0 0 0 4
12 8 17 4 2 0 0 0 0 0 2 3 8 7 3 4 1 0 0 0 0 0 0 0 1 2 0 0 0 0 0 0 10 14 1 0 0 8 25 22 23 6 0 0 0 0 0
30 18 23 14 4 1 0 0 0 0 1 1 5 2 2 1 2 0 0 0 0 0 0 0 0 0 0 0 0 0 0 22 0 0 0 0 0 9 25 6 16 0 0 0 0 0 3
37 37 17 24 4 2 0 0 0 0 0 0 5 5 0 0 3 0 0 0 0 0 0 0 0 0 0 0 0 0 0 0 0 0 0 0 0 0 0 0 0 0 0 0 0 0 1
7 3 32 14 4 2 0 0 0 0 0 0 2 2 0 1 1 0 0 0 0 0 0 0 0 0 0 0 0 0 0 0 0 0 0 0 0 0 0 0 0 8 11 9 17 0 0
2 6 6 21 2 4 1 0 0 0 0 0 2 0 0 0 0 0 0 0 0 0 0 0 0 0 0 0 0 0 0 0 0 0 0 0 0 0 0 0 0 0 0 1 42 98 24
4 1 9 18 0 3 2 0 0 0 0 0 0 0 0 0 0 0 0 0 0 0 0 0 0 0 0 0 0 0 0 0 0 0 0 0 0 0 0 2 0 0 0 0 0 22 5
1 5 1 3 38 3 2 0 0 0 0 0 0 0 0 0 0 0 0 0 0 0 0 0 0 0 0 0 0 0 0 0 0 0 0 0 0 0 0 3 4 14 37 20 4 1 0
0 1 4 2 14 1 3 0 0 0 0 0 0 0 0 0 0 0 0 0 0 0 0 0 0 0 0 0 0 0 0 0 0 0 0 0 0 0 0 3 4 5 2 16 12 0 0
7 1 5 0 5 17 3 0 0 0 0 0 0 0 0 0 0 0 0 0 0 0 0 0 0 0 0 0 0 0 0 0 0 0 0 0 0 0 0 1 2 12 14 5 0 0 0
2 6 4 0 2 14 3 2 0 0 0 0 0 0 0 0 0 0 0 0 0 0 0 0 0 0 0 0 0 0 0 0 0 0 0 0 0 0 0 0 10 13 32 5 0 0 0
8 5 3 4 3 20 3 2 0 0 0 0 0 0 0 0 0 0 0 0 0 0 0 0 0 0 0 0 0 0 0 2 0 6 0 0 0 0 0 0 0 3 16 0 0 0 0
8 15 2 6 0 5 4 0 0 0 0 0 0 0 0 0 0 0 0 0 0 0 0 0 0 0 0 0 0 0 0 0 0 0 2 0 0 0 0 0 0 0 5 3 0 0 0
23 26 11 4 0 5 5 2 1 0 0 0 0 0 0 0 0 0 0 0 0 0 0 0 0 0 0 0 0 0 0 0 0 0 3 8 1 0 0 5 1 0 0 9 1 0 0
24 12 8 3 0 7 5 4 0 0 0 0 0 0 0 0 0 0 0 0 0 0 0 0 0 0 0 0 0 1 2 0 17 5 0 6 9 0 11 1 0 0 1 6 0 0 0
40 33 18 0 0 10 4 3 0 0 0 0 0 0 1 0 0 0 0 0 0 0 0 0 0 0 0 0 0 0 1 20 58 28 3 1 4 0 0 0 6 2 0 0 0 0 0
29 33 15 5 13 18 4 4 0 0 0 0 0 0 4 1 0 0 0 0 0 0 0 0 0 0 0 0 0 0 0 15 19 21 6 2 0 4 0 2 3 1 2 1 1 0 0
28 30 4 12 6 13 3 4 0 0 0 0 0 0 0 1 0 0 0 0 0 0 0 0 0 0 0 0 0 1 0 0 0 0 0 8 0 0 0 0 0 0 0 2 0 0 0
8 27 22 15 2 10 4 2 0 0 0 0 0 0 0 0 0 0 0 0 0 0 0 0 0 0 0 0 0 0 0 0 0 0 0 0 9 0 0 0 0 0 0 1 0 0 0
44 28 10 21 5 3 4 2 0 0 0 0 0 0 0 0 0 0 0 0 0 0 0 0 0 0 0 0 0 0 0 0 0 0 0 0 0 0 0 0 0 1 0 0 0 0 0
16 6 5 30 0 2 3 1 0 0 0 0 0 0 0 0 0 0 0 0 0 0 0 0 0 0 0 0 0 0 0 0 0 0 0 0 0 0 0 0 0 0 0 0 0 0 0
9 16 5 4 4 5 3 0 0 0 0 0 0 0 0 0 0 0 0 0 0 0 0 0 0 0 0 0 0 0 0 0 0 0 0 0 0 0 0 0 0 0 0 0 0 0 0
3 0 9 2 0 2 4 0 0 0 0 0 0 0 0 0 0 0 0 0 0 0 0 0 0 0 0 0 0 0 0 0 0 0 0 0 0 0 0 0 0 0 0 0 0 0 0
0 0 7 2 3 2 4 0 0 0 0 0 0 0 0 0 0 0 0 0 0 0 0 0 0 0 0 0 0 0 0 0 0 0 0 0 0 0 0 0 0 0 0 0 0 0 0
0 0 4 0 0 3 4 0 0 0 0 0 0 0 0 0 0 0 0 0 0 0 0 0 0 0 0 0 0 0 0 0 0 0 0 0 0 0 0 0 0 0 0 0 0 0 0
0 2 5 0 7 3 4 0 0 0 0 0 0 0 0 0 0 0 0 0 0 0 0 0 0 0 0 0 0 0 0 0 0 0 0 0 0 0 0 0 0 0 0 0 0 0 0
1 8 2 13 2 3 4 0 0 0 0 0 0 0 0 0 0 0 0 0 0 0 0 0 0 0 0 0 0 0 0 0 0 0 0 0 0 1 0 0 0 0 0 0 0 0 0

GFSGBSN_con_mlcape_096.txt.gz
CAPE
19 33 31 2 2 2 0 0 0 0 0 1 4 3 2 4 11 2 2 1 1 9 2 0 0 16 1 0 0 0 2 0 0 0 4 0 12 44 28 6 4 8 1 3 7 13 10
42 15 22 31 3 2 1 0 0 0 0 1 2 7 3 4 9 1 1 0 1 4 0 0 0 2 0 0 0 0 0 0 0 0 0 0 4 3 16 48 0 0 11 0 0 3 10
5 46 39 19 19 4 1 0 0 0 0 1 1 3 3 3 4 2 0 0 0 0 0 0 0 0 0 0 0 0 0 0 0 7 0 0 0 2 7 11 1 6 5 0 0 0 0
6 7 4 63 32 15 2 0 0 0 0 1 1 0 0 1 2 1 0 0 0 0 0 0 0 0 0 0 0 0 0 9 1 13 3 0 0 0 5 11 0 0 0 1 1 0 2
12 8 5 0 44 24 5 1 0 0 0 0 1 0 0 0 4 2 0 0 0 0 0 0 0 0 0 0 0 0 0 1 0 0 0 0 0 0 14 20 3 0 0 1 1 0 11
8 5 5 3 3 32 25 3 1 0 1 0 1 0 0 0 0 1 0 0 0 0 0 0 0 0 0 0 0 0 0 0 0 0 0 0 0 0 6 1 0 0 0 0 0 0 13
6 8 5 11 2 4 32 4 3 0 1 0 0 0 0 0 0 0 0 0 0 0 0 0 0 0 0 0 0 0 0 0 0 0 0 0 0 0 0 0 0 1 4 0 0 0 1
2 1 1 2 11 2 5 1 3 0 0 0 0 0 0 0 0 0 0 0 0 0 0 0 0 0 0 0 0 0 0 0 0 0 0 0 0 0 0 0 0 0 0 0 0 0 0
8 0 0 2 9 7 2 5 3 1 0 0 0 0 0 0 0 0 0 0 0 0 0 0 0 0 0 0 0 0 0 0 0 0 0 0 0 0 0 0 0 0 0 0 0 0 0
5 7 0 2 7 10 1 3 3 1 0 0 0 0 0 0 0 0 0 0 0 0 0 0 0 0 0 0 0 0 0 0 0 0 0 0 0 0 0 4 1 0 0 0 1 0 0
1 3 9 0 6 13 0 3 3 3 2 0 0 0 0 0 0 0 0 0 0 0 0 0 0 0 0 0 0 0 0 0 0 0 0 0 0 0 0 0 0 0 0 0 0 0 0
0 0 2 4 4 9 0 0 9 3 1 0 0 0 0 0 0 0 0 0 0 0 0 0 0 0 0 0 0 0 0 0 0 0 0 0 0 0 0 0 0 0 5 3 2 0 5
1 0 1 6 0 8 0 1 13 4 3 0 0 0 0 0 0 0 0 0 0 0 0 0 0 0 0 0 0 0 0 0 0 0 0 0 0 0 0 0 7 13 8 4 13 2 0
6 0 0 7 0 2 0 2 6 2 1 4 0 0 0 0 0 0 0 0 0 0 0 0 0 0 0 0 0 0 0 0 0 1 0 0 0 0 0 0 0 0 0 0 0 0 0
11 9 5 3 1 2 6 1 6 4 2 1 0 0 0 0 0 0 0 0 0 0 0 0 0 0 0 0 0 0 0 0 0 0 0 0 0 0 0 0 1 2 1 0 0 0 0
26 23 10 1 4 6 4 5 2 6 8 0 0 0 0 0 0 0 0 0 0 0 0 0 0 0 0 0 0 0 0 0 0 0 0 0 5 0 0 10 9 1 0 0 0 0 0
41 28 21 12 18 17 15 0 1 8 6 0 0 0 0 0 0 0 0 0 0 0 0 0 0 0 0 0 0 0 2 0 20 4 0 3 2 1 22 8 0 0 0 0 0 0 0
33 33 28 20 29 4 27 2 4 9 0 0 0 0 0 0 0 0 0 0 0 0 0 0 0 0 0 0 0 0 0 9 43 49 43 14 20 5 0 0 0 13 3 5 0 0 0
68 36 25 26 24 11 13 3 12 4 5 0 0 0 0 0 0 0 0 0 0 0 0 0 0 0 0 0 0 0 0 0 0 12 22 29 0 0 0 2 1 3 5 7 0 0 0
55 57 41 21 0 23 3 9 10 1 10 0 0 0 0 5 0 0 0 0 0 0 0 0 0 0 0 0 0 0 0 0 0 0 0 2 0 0 0 0 0 0 2 8 8 0 0
23 38 6 12 21 14 10 22 3 1 0 0 0 0 0 0 0 0 0 0 0 0 0 0 0 0 0 0 0 0 0 0 0 0 0 7 0 1 0 0 0 0 0 0 0 0 0
26 11 15 40 24 5 34 37 4 0 0 0 0 0 0 0 0 0 0 0 0 0 0 0 0 0 0 0 0 0 0 0 0 0 0 0 1 0 0 0 0 0 0 0 0 0 2
10 10 42 31 27 17 11 15 4 0 0 0 0 0 0 0 0 0 0 0 0 0 0 0 0 0 0 0 0 0 0 0 0 0 0 0 0 0 0 0 1 0 0 0 0 0 0
15 27 29 20 0 2 4 4 4 4 0 0 0 0 0 0 0 0 0 0 0 0 0 0 0 0 0 0 0 0 0 0 0 0 0 0 0 0 0 0 0 0 0 0 0 0 0
23 31 18 1 12 0 5 3 4 0 0 0 0 0 0 0 0 0 0 0 0 0 0 0 0 0 0 0 0 0 0 0 0 0 0 0 0 0 0 0 0 0 0 0 0 0 0
10 10 2 2 4 0 10 2 1 0 0 0 0 0 0 0 0 0 0 0 0 0 0 0 0 0 0 0 0 0 0 0 0 0 0 0 0 0 0 0 0 0 0 0 0 0 0
11 2 0 0 0 0 13 2 4 0 0 0 0 0 0 0 0 0 0 0 0 0 0 0 0 0 0 0 0 0 0 0 0 0 0 0 0 0 0 0 0 0 0 0 0 0 0
11 2 0 0 0 1 10 2 0 5 0 0 0 0 0 0 0 0 0 0 0 0 0 0 0 0 0 0 0 0 0 0 0 0 0 0 0 0 0 0 0 0 0 0 0 0 0
18 6 0 0 2 1 13 4 4 13 0 0 0 0 0 0 0 0 0 0 0 0 0 0 0 0 0 0 0 0 0 0 0 0 0 0 0 1 0 0 0 0 0 0 0 0 0

GFSGBSN_con_mlcape_099.txt.gz
CAPE
20 12 14 27 33 31 6 2 0 0 1 6 7 6 7 0 1 6 3 5 6 3 2 2 0 0 0 0 0 0 1 0 0 9 0 0 40 13 8 0 8 5 2 0 6 37 26
21 11 14 6 7 52 29 4 2 0 0 2 7 6 9 0 0 0 1 4 2 0 1 1 0 0 0 0 0 0 0 0 0 0 0 0 0 0 2 0 0 5 4 0 0 7 5
9 9 14 8 6 3 31 13 3 1 0 0 5 6 8 0 0 0 0 2 0 0 0 0 0 0 0 0 0 0 0 0 0 0 0 0 0 1 6 0 0 7 4 0 0 0 0
4 10 12 10 13 4 5 26 3 2 0 0 2 6 2 1 0 0 0 0 0 0 0 0 0 0 0 0 0 0 0 0 0 5 0 0 0 0 9 20 38 4 2 0 0 0 0
2 1 2 8 2 6 3 2 2 1 2 0 1 4 4 3 0 0 0 0 0 0 0 0 0 0 0 0 0 0 0 0 0 0 0 0 0 0 1 25 1 6 0 0 0 0 0
12 6 4 3 2 3 12 5 6 3 3 1 1 1 2 0 0 0 0 0 0 0 0 0 0 0 0 0 0 0 0 0 0 0 0 0 0 1 0 0 0 0 0 1 0 0 2
5 10 9 0 3 6 19 6 4 8 3 0 0 0 1 0 0 0 0 0 0 0 0 0 0 0 0 0 0 0 0 0 0 0 0 0 0 3 0 0 0 0 0 0 0 0 0
6 10 10 10 0 8 9 10 3 4 4 2 3 0 0 0 0 0 0 0 0 0 0 0 0 0 0 0 0 0 0 0 0 0 0 0 0 0 0 0 0 0 0 0 0 0 5
8 7 7 6 10 2 8 19 6 1 19 3 3 1 0 0 0 0 0 0 0 0 0 0 0 0 0 0 0 0 0 0 0 0 0 0 0 0 0 0 0 0 0 0 0 0 1
15 12 8 11 9 6 4 8 1 6 8 4 2 6 0 0 0 0 0 0 0 0 0 0 0 0 0 0 0 0 0 0 0 0 0 0 0 0 0 1 2 0 0 0 0 0 0
11 15 17 8 12 14 0 7 0 4 3 3 1 6 0 0 0 0 0 0 0 0 0 0 0 0 0 0 0 0 0 0 0 0 0 0 0 0 0 0 4 1 0 0 0 5 1
4 9 12 15 7 12 3 5 0 0 0 4 1 0 2 1 0 0 0 0 0 0 0 0 0 0 0 0 0 0 0 0 0 0 0 0 0 0 0 0 0 0 7 0 0 2 4
27 18 12 12 13 10 9 3 0 0 0 3 4 8 7 0 0 0 0 0 0 0 0 0 0 0 0 0 0 0 0 0 0 0 0 0 0 0 0 0 0 4 12 5 10 10 0
20 12 12 19 14 10 10 4 0 1 4 1 18 1 3 0 0 0 0 0 0 0 0 0 0 0 0 0 0 0 0 0 0 0 0 0 0 0 0 0 0 0 2 2 0 0 0
30 30 23 19 22 14 16 4 0 0 20 0 38 0 0 0 0 0 0 0 0 0 0 0 0 0 0 0 0 0 0 0 0 0 0 0 0 0 0 0 0 0 0 0 0 0 0
18 50 24 23 24 14 17 6 2 7 31 1 13 6 0 0 0 0 0 0 0 0 0 0 0 0 0 0 0 0 0 0 0 0 0 0 0 0 0 3 2 0 0 0 0 0 0
67 47 17 17 18 19 9 1 4 9 42 17 32 15 2 0 0 1 0 0 0 0 0 0 0 0 0 0 0 0 0 0 5 2 0 0 3 0 15 0 0 3 1 1 0 0 0
44 63 27 52 30 23 0 5 8 40 31 12 18 10 0 1 0 0 0 0 0 0 0 0 0 0 0 0 0 0 2 0 4 24 21 18 14 0 0 5 5 15 13 8 1 0 0
62 81 23 23 45 43 16 1 14 32 39 10 13 10 0 3 0 0 0 0 0 0 0 0 0 0 0 0 0 0 0 0 0 0 7 7 4 1 0 2 3 12 4 12 0 0 0
109 133 78 55 87 83 14 14 16 40 33 1 5 3 0 2 0 0 0 0 0 0 0 0 0 0 0 0 0 0 0 0 0 0 0 0 0 1 0 0 0 0 0 4 6 0 0
79 82 44 47 41 1 1 7 4 44 27 10 1 0 0 0 0 0 0 0 0 0 0 0 0 0 0 0 0 0 0 0 0 0 0 0 0 0 0 0 1 0 0 0 0 0 0
17 35 23 0 1 8 53 37 37 20 2 19 3 0 0 0 0 0 0 0 0 0 0 0 0 0 0 0 0 0 0 0 0 0 0 0 0 0 0 0 0 0 0 0 0 0 1
16 18 22 42 20 10 11 14 6 2 15 12 0 0 0 0 0 0 0 0 0 0 0 0 0 0 0 0 0 0 0 0 0 0 0 0 0 0 0 0 0 0 0 0 0 0 0
9 9 11 39 22 6 13 3 2 1 2 0 0 0 0 0 0 0 0 0 0 0 0 0 0 0 0 0 0 0 0 0 0 0 0 0 0 0 0 0 0 0 0 0 0 0 0
16 10 13 26 3 6 2 3 2 0 0 0 0 0 0 0 0 0 0 0 0 0 0 0 0 0 0 0 0 0 0 0 0 0 0 0 0 0 0 0 0 0 0 0 0 0 0
19 1 25 21 0 1 0 3 2 2 0 0 0 0 0 0 0 0 0 0 0 0 0 0 0 0 0 0 0 0 0 0 0 0 0 0 0 0 0 0 0 0 0 0 0 0 0
19 7 15 30 0 0 0 3 2 2 3 0 0 0 0 0 0 0 0 0 0 0 0 0 0 0 0 0 0 0 0 0 0 0 0 0 0 0 0 0 0 0 0 0 0 0 0
27 2 0 14 0 0 0 2 2 5 10 0 0 0 0 0 0 0 0 0 0 0 0 0 0 0 0 0 0 0 0 0 0 0 0 0 0 0 0 0 0 0 0 0 0 0 0
24 0 0 1 0 0 0 19 4 9 0 0 0 0 0 0 0 0 0 0 0 0 0 0 0 0 0 0 0 0 0 0 0 0 0 0 0 0 0 0 0 0 0 0 0 0 0

GFSGBSN_con_mlcape_102.txt.gz
CAPE
2 5 3 5 8 6 8 2 6 2 1 1 0 0 0 7 5 5 7 5 2 3 5 1 2 9 0 0 0 0 0 0 0 10 0 4 15 28 1 0 0 0 2 9 16 33 32
5 5 8 7 6 3 7 0 1 5 2 1 0 0 0 2 3 5 5 5 2 0 0 0 2 1 0 0 0 0 0 0 0 0 0 0 0 3 0 0 0 1 5 0 1 1 2
3 3 3 5 4 9 6 0 0 3 3 3 0 0 1 0 2 3 2 3 1 0 0 0 0 1 0 0 0 0 0 0 0 0 0 0 0 3 0 0 0 1 1 0 4 0 0
6 8 4 7 7 4 7 7 5 1 11 4 2 1 1 0 6 3 2 3 0 0 0 0 0 0 0 0 0 0 0 0 0 1 0 0 0 0 13 0 0 0 0 0 0 1 0
7 7 4 9 5 7 9 6 19 5 1 7 3 2 6 0 2 1 2 0 0 0 0 0 0 0 0 0 0 0 0 0 0 0 0 0 0 0 4 1 3 1 0 0 0 10 0
10 8 11 5 7 9 6 7 16 5 5 12 4 3 8 0 0 0 3 0 0 0 0 0 0 0 0 0 0 0 0 0 0 0 0 0 0 0 0 0 0 0 0 0 0 5 0
27 21 14 14 10 8 11 6 8 19 12 5 22 5 8 0 0 0 0 0 0 0 0 0 0 0 0 0 0 0 0 0 0 0 0 0 1 0 0 0 0 0 0 0 0 2 0
9 13 14 6 13 19 9 2 4 2 4 0 11 2 0 10 0 0 0 0 0 0 0 0 0 0 0 0 0 0 0 0 0 0 0 0 0 0 0 0 0 0 0 0 14 3 0
10 23 15 4 9 9 9 11 2 0 0 1 0 1 4 2 0 0 0 0 0 0 0 0 0 0 0 0 0 0 0 0 0 0 0 0 0 0 0 0 0 0 0 0 0 8 17
31 24 9 12 18 13 6 7 3 1 0 0 1 4 5 0 0 0 0 0 0 0 0 0 0 0 0 0 0 0 0 0 0 0 0 0 0 0 0 0 0 0 0 0 0 0 0
40 34 30 25 26 17 17 13 7 1 0 0 14 3 2 5 0 0 0 0 0 0 0 0 0 0 0 0 0 0 0 0 0 0 0 0 0 0 0 0 0 0 0 0 0 0 0
25 42 36 28 27 30 29 22 6 0 0 0 4 7 0 14 0 0 0 0 0 0 0 0 0 0 0 0 0 0 0 0 0 0 0 0 0 0 0 0 0 0 1 0 0 0 1
26 29 33 35 41 29 37 29 1 0 2 0 0 3 5 3 0 0 0 0 0 0 0 0 0 0 0 0 0 0 0 0 0 0 0 0 0 0 0 0 0 2 17 8 4 4 0
23 24 21 30 37 36 33 32 1 0 4 3 2 5 10 0 0 0 0 0 0 0 0 0 0 0 0 0 0 0 0 0 0 0 0 0 0 0 0 0 0 0 1 0 0 0 0
34 37 27 24 38 58 29 36 0 0 4 22 4 9 0 0 0 0 0 0 0 0 0 0 0 0 0 0 0 0 0 0 0 0 0 0 0 0 0 0 0 0 1 0 0 0 0
23 27 18 19 24 52 64 35 0 0 7 36 6 6 0 0 0 0 4 0 0 0 0 0 0 0 0 0 0 0 0 0 0 0 0 0 0 0 0 0 6 3 0 0 1 0 0
25 21 25 36 50 58 31 27 0 2 7 35 4 1 0 0 0 14 1 0 0 0 0 0 0 0 0 0 0 0 0 0 0 0 0 3 12 0 3 0 0 18 11 0 0 0 0
24 42 57 97 1 0 26 11 0 4 15 13 4 0 11 0 2 11 0 0 0 0 0 0 0 0 0 0 0 0 0 0 0 1 10 7 33 0 0 0 3 1 7 0 1 0 0
40 38 92 40 0 1 21 0 3 6 24 12 2 5 4 5 1 0 0 0 0 0 0 0 0 0 0 0 0 0 0 0 0 0 0 1 5 0 0 0 9 13 10 2 0 0 0
35 7 51 51 45 47 27 15 20 21 23 16 5 0 2 11 2 1 0 0 0 0 0 0 0 0 0 0 0 0 0 0 0 0 0 0 0 0 0 0 0 0 0 0 0 0 0
35 8 23 23 23 18 26 49 10 8 23 28 6 0 0 0 1 1 0 0 0 0 0 0 0 0 0 0 0 0 0 0 0 0 0 0 0 0 0 0 0 0 0 0 0 0 0
37 4 4 12 9 2 5 0 0 11 43 29 2 0 0 0 0 1 0 0 0 0 0 0 0 0 0 0 0 0 0 0 0 0 0 0 0 0 0 0 0 0 0 0 0 0 2
22 17 8 0 18 51 5 6 13 48 27 30 0 0 0 0 0 0 0 0 0 0 0 0 0 0 0 0 0 0 0 0 0 0 0 0 0 0 0 0 0 0 0 0 0 0 3
17 14 14 1 5 20 3 5 20 33 24 0 0 0 0 0 0 0 0 0 0 0 0 0 0 0 0 0 0 0 0 0 0 0 0 0 0 0 0 0 0 0 0 0 0 0 0
14 7 19 1 6 9 24 24 6 1 7 7 0 0 0 0 0 0 0 0 0 0 0 0 0 0 0 0 0 0 0 0 0 0 0 0 0 0 0 0 0 0 0 0 0 0 0
19 7 19 0 0 2 29 0 7 2 0 0 0 0 0 0 0 0 0 0 0 0 0 0 0 0 0 0 0 0 0 0 0 0 0 0 0 0 0 0 0 0 0 0 0 0 0
27 13 3 7 0 0 1 4 4 0 0 0 0 0 0 0 0 0 0 0 0 0 0 0 0 0 0 0 0 0 0 0 0 0 0 0 0 0 0 0 0 0 0 0 0 0 0
24 24 4 16 0 0 1 1 4 0 2 0 0 0 0 0 0 0 0 0 0 0 0 0 0 0 0 0 0 0 0 0 0 0 0 0 0 0 0 0 0 0 0 0 0 0 0
24 25 10 9 0 0 0 0 2 7 9 0 0 0 0 0 0 0 0 0 0 0 0 0 0 0 0 0 0 0 0 0 0 0 0 0 0 0 0 0 0 0 0 0 0 0 0

GFSGBSN_con_mlcape_105.txt.gz
CAPE
7 1 5 4 3 3 2 1 0 1 1 13 4 3 3 1 5 4 4 4 8 9 4 2 0 8 0 0 0 0 0 0 0 0 3 12 20 46 13 0 0 0 0 0 0 1 41
12 11 7 9 7 8 8 1 0 4 3 0 9 4 2 2 3 2 1 5 4 12 2 0 0 0 0 0 0 0 0 0 0 0 1 0 0 7 0 0 0 0 0 0 0 0 1
15 15 3 5 15 9 5 5 4 13 11 7 1 5 2 1 1 8 0 1 3 7 0 0 0 0 0 0 0 0 0 0 0 0 0 0 0 6 0 0 0 0 0 0 1 2 2
26 20 7 6 3 4 8 5 9 3 9 2 5 13 0 4 2 0 3 0 0 1 0 0 0 0 0 0 0 0 0 0 0 1 0 0 1 0 6 0 1 0 0 0 0 0 0
35 21 22 17 8 10 12 3 2 3 3 0 0 8 2 0 2 2 3 0 0 0 0 0 0 0 0 0 0 0 0 0 0 0 0 0 0 4 12 2 0 0 0 0 0 0 4
41 42 42 46 41 36 21 9 6 0 1 1 0 1 7 0 0 0 1 0 0 0 0 0 0 0 0 0 0 0 0 0 0 0 0 0 0 0 0 0 0 0 0 0 0 0 4
44 36 30 17 32 37 30 28 10 0 0 0 0 1 2 0 0 0 0 0 0 0 0 0 0 0 0 0 0 0 0 0 0 0 0 0 5 0 0 0 0 0 0 0 0 0 5
47 54 46 31 20 31 14 21 11 3 1 1 0 1 10 0 0 1 0 0 0 0 0 0 0 0 0 0 0 0 0 0 0 0 0 0 0 0 0 0 0 0 0 0 0 1 1
27 21 30 31 35 30 31 13 21 2 0 3 0 0 4 1 0 0 0 0 0 0 0 0 0 0 0 0 0 0 0 0 0 0 0 0 0 0 0 0 0 0 0 0 0 2 9
18 22 16 21 35 48 50 44 18 0 0 1 1 14 0 0 0 0 0 0 0 0 0 0 0 0 0 0 0 0 0 0 0 0 0 0 0 0 0 0 0 0 0 0 0 1 0
9 14 12 12 14 40 59 57 59 2 0 0 0 0 9 0 0 0 0 0 0 0 0 0 0 0 0 0 0 0 0 0 0 0 0 0 0 0 0 0 0 0 0 0 7 0 0
8 6 9 14 17 28 47 58 67 10 0 0 0 0 14 4 0 0 0 0 0 0 0 0 0 0 0 0 0 0 0 0 0 0 0 0 0 0 0 0 0 0 0 2 4 1 0
13 15 13 15 25 23 29 41 63 32 0 0 0 0 14 1 0 0 0 0 0 0 0 0 0 0 0 0 0 0 0 0 0 0 0 0 0 0 0 0 0 12 17 6 3 3 0
19 16 13 13 30 33 31 42 61 42 0 0 0 0 5 0 0 0 0 0 0 0 0 0 0 0 0 0 0 0 0 0 0 0 0 0 0 0 0 3 14 8 0 0 0 0 0
14 13 15 25 30 30 43 43 61 29 5 0 0 1 2 0 0 0 0 0 0 0 0 0 0 0 0 0 0 0 0 0 0 0 0 0 0 0 0 15 7 0 1 0 0 0 0
16 19 19 41 47 74 54 63 40 25 3 0 4 0 0 5 0 0 0 0 0 0 0 0 0 0 0 0 0 0 0 0 0 0 0 0 0 0 1 0 4 10 0 12 2 0 0
10 15 30 43 36 27 32 73 26 15 1 1 12 0 1 1 0 0 0 0 0 0 0 0 0 0 0 0 0 0 0 0 0 0 0 1 5 0 0 10 2 20 7 0 0 0 0
18 30 25 23 0 0 18 16 15 10 0 13 15 0 1 0 1 0 0 0 0 0 0 0 0 0 0 0 0 0 0 0 0 0 0 0 14 0 0 0 0 1 0 0 7 0 0
18 28 36 27 13 0 0 24 25 5 5 10 2 3 3 5 1 0 0 0 0 0 0 0 0 0 0 0 0 0 0 0 0 0 0 0 1 0 0 0 0 0 0 0 0 0 0
22 17 38 17 18 1 4 10 13 35 40 6 8 0 3 10 3 0 0 0 0 0 0 0 0 0 0 0 0 0 0 0 0 0 0 0 0 0 0 0 0 0 0 0 0 0 0
28 18 34 20 28 15 10 1 1 14 21 19 4 1 1 0 1 0 0 0 0 0 0 0 0 0 0 0 0 0 0 0 0 0 0 0 0 0 0 0 0 0 0 0 0 0 0
22 26 25 35 2 15 24 28 8 14 40 7 2 1 0 1 3 1 0 0 0 0 0 0 0 0 0 0 0 0 0 0 0 0 0 0 0 0 0 0 0 0 0 0 0 0 0
15 24 19 36 1 2 20 17 3 47 14 0 1 0 0 0 1 0 0 0 0 0 0 0 0 0 0 0 0 0 0 0 0 0 0 0 0 0 0 0 0 0 0 0 0 0 2
8 21 27 23 31 2 14 20 0 0 24 7 0 0 0 0 0 0 0 0 0 0 0 0 0 0 0 0 0 0 0 0 0 0 0 0 0 0 0 0 0 0 0 0 0 0 0
8 22 32 7 10 11 0 1 0 4 3 4 0 0 0 0 0 0 0 0 0 0 0 0 0 0 0 0 0 0 0 0 0 0 0 0 0 0 0 0 0 0 0 0 0 0 0
6 13 33 11 11 15 0 1 7 1 1 4 0 0 0 0 0 0 0 0 0 0 0 0 0 0 0 0 0 0 0 0 0 0 0 0 0 0 0 0 0 0 0 0 0 0 1
3 9 20 15 9 11 0 0 0 2 5 0 0 0 0 0 0 0 0 0 0 0 0 0 0 0 0 0 0 0 0 0 0 0 0 0 0 0 0 0 0 0 0 0 0 0 0
4 4 14 7 8 4 0 0 0 2 0 0 0 0 0 0 0 0 0 0 0 0 0 0 0 0 0 0 0 0 0 0 0 0 0 0 0 0 0 0 0 0 0 0 0 0 0
0 4 11 3 4 0 0 0 0 4 0 0 0 0 0 0 0 0 0 0 0 0 0 0 0 0 0 0 0 0 0 0 0 0 0 0 0 0 0 0 0 0 0 0 0 0 0

GFSGBSN_con_mlcape_108.txt.gz
CAPE
23 14 17 14 13 7 10 9 6 4 4 12 10 12 18 0 1 0 4 3 9 3 1 0 7 4 0 0 0 0 0 0 0 0 11 16 26 15 13 47 83 17 30 20 13 0 0
26 27 34 26 18 12 9 5 8 6 6 4 4 1 10 0 0 0 3 8 8 6 0 0 6 2 0 0 0 0 0 0 0 0 0 12 15 45 22 20 52 11 0 4 0 0 0
26 26 28 40 26 12 4 9 3 4 5 5 0 0 6 1 0 1 3 0 3 7 4 0 3 2 0 0 0 0 0 0 0 0 0 0 4 20 4 0 5 1 0 1 0 0 0
23 34 38 31 34 28 22 7 12 8 5 4 2 1 3 5 0 0 0 0 0 0 0 0 3 0 0 0 0 0 0 0 1 9 1 2 4 3 20 3 4 1 0 0 0 0 0
28 35 31 32 33 38 39 33 2 2 6 6 3 5 13 9 3 0 0 0 0 0 0 0 0 0 0 0 0 0 0 0 0 0 0 0 0 19 4 12 4 0 0 0 0 0 0
32 44 55 41 24 21 25 22 27 0 1 4 5 1 0 1 4 0 0 0 0 0 0 0 0 0 0 0 0 0 0 0 0 0 0 0 0 10 6 25 1 0 0 0 0 0 0
24 20 21 18 30 41 32 33 22 0 0 1 2 0 0 0 7 0 0 0 0 0 0 0 0 0 0 0 0 0 0 0 0 0 0 0 21 0 1 0 0 1 0 0 0 0 0
32 25 28 23 25 27 41 42 43 5 1 0 0 0 4 2 1 0 0 0 0 0 0 0 0 0 0 0 0 0 0 0 0 0 0 0 14 1 0 0 0 2 0 0 0 0 3
28 20 22 38 30 22 24 34 43 42 9 3 1 0 9 4 0 0 0 0 0 0 0 0 0 0 0 0 0 0 0 0 0 0 0 3 0 0 0 0 1 0 0 0 0 0 0
27 14 6 7 7 22 30 26 45 62 38 25 5 0 0 3 0 0 0 0 0 0 0 0 0 0 0 0 0 0 0 0 0 0 0 0 0 0 0 0 0 0 0 0 0 0 2
22 11 20 29 27 15 15 22 38 47 49 50 15 0 0 13 0 0 0 0 0 0 0 0 0 0 0 0 0 0 0 0 0 0 0 0 0 0 0 0 0 5 0 0 0 0 0
13 13 16 18 20 7 23 36 53 61 42 40 19 0 0 22 1 0 0 0 0 0 0 0 0 0 0 0 0 0 0 0 0 0 0 0 0 0 0 0 0 0 18 27 26 11 0
15 18 17 25 14 8 22 48 60 52 68 50 10 0 20 9 0 0 0 0 0 0 0 0 0 0 0 0 0 0 0 0 0 0 0 0 0 0 0 0 8 25 19 5 3 0 0
11 19 29 17 24 16 18 68 83 55 26 21 0 0 31 4 0 0 0 0 0 0 0 0 0 0 0 0 0 0 0 0 0 0 0 0 0 0 0 16 16 11 6 20 2 0 1
15 24 24 23 25 9 0 2 98 66 13 0 0 1 3 0 0 0 0 0 0 0 0 0 0 0 0 0 0 0 0 0 0 0 0 0 0 0 0 8 18 6 1 6 2 0 0
14 27 23 37 17 1 5 17 12 15 7 0 6 8 1 0 0 0 0 0 0 0 0 0 0 0 0 0 0 0 0 0 0 0 0 0 0 0 2 13 3 6 3 20 6 5 0
16 31 17 46 15 0 5 25 13 4 7 3 12 2 2 19 0 2 1 0 0 0 0 0 0 0 0 0 0 0 0 0 0 0 0 2 0 0 0 11 1 10 4 6 0 0 12
18 26 21 31 25 13 4 5 10 7 0 8 16 0 6 4 0 0 0 0 0 0 0 0 0 0 0 0 0 0 0 0 0 0 3 0 6 0 0 0 1 7 0 0 4 5 0
18 26 32 23 18 2 2 0 27 11 0 0 1 3 2 8 0 3 0 0 0 0 0 0 0 0 0 0 0 0 0 0 0 0 0 0 0 0 0 1 0 1 1 1 0 0 0
12 26 24 17 20 11 10 0 1 14 12 0 0 0 2 9 1 2 0 0 0 0 0 0 0 0 0 0 0 0 0 0 0 0 0 0 0 0 0 1 0 0 0 2 0 0 0
11 29 23 18 27 14 20 8 2 0 0 0 0 1 1 0 0 2 0 0 0 0 0 0 0 0 0 0 0 0 0 0 0 0 0 0 0 0 0 0 0 0 0 0 0 0 0
3 23 13 21 29 20 12 24 5 0 2 2 0 1 5 2 2 1 0 0 0 0 0 0 0 0 0 0 0 0 0 0 0 0 0 0 0 0 0 0 0 0 0 0 0 0 0
0 26 12 15 13 20 15 15 2 13 16 4 0 0 1 2 4 0 0 0 0 0 0 0 0 0 0 0 0 0 0 0 0 0 0 0 0 0 0 0 0 0 0 0 1 2 1
0 17 14 19 6 0 11 4 3 2 6 2 7 0 1 0 1 0 0 0 0 0 0 0 0 0 0 0 0 0 0 0 0 0 0 0 0 0 0 0 0 0 0 0 0 0 0
0 7 14 14 21 1 14 7 3 2 7 6 1 0 1 0 0 0 0 0 0 0 0 0 0 0 0 0 0 0 0 0 0 0 0 0 0 0 0 0 0 0 0 0 0 0 0
0 3 14 11 16 2 10 17 0 0 1 9 1 0 0 0 0 0 0 0 0 0 0 0 0 0 0 0 0 0 0 0 0 0 0 0 0 0 0 0 0 0 0 0 0 0 0
0 1 7 10 15 1 0 10 3 1 0 2 0 0 0 0 0 0 0 0 0 0 0 0 0 0 0 0 0 0 0 0 0 0 0 0 0 0 0 0 0 0 0 0 0 0 0
0 0 12 12 10 0 0 2 2 2 3 0 0 0 0 0 0 0 0 0 0 0 0 0 0 0 0 0 0 0 0 0 0 0 0 0 0 0 0 0 0 0 0 0 0 0 0
0 1 12 11 17 0 0 0 4 1 0 0 0 0 0 0 0 0 0 0 0 0 0 0 0 0 0 0 0 0 0 0 0 0 0 0 0 0 0 0 0 0 0 0 0 0 0

GFSGBSN_con_mlcape_111.txt.gz
CAPE
17 19 16 18 21 11 5 4 11 2 10 11 6 6 5 3 14 0 0 1 1 3 3 5 3 0 0 0 0 0 0 0 0 0 20 16 15 18 24 17 21 7 33 41 28 6 0
16 13 17 12 16 22 9 0 8 16 11 9 10 7 6 1 7 0 0 2 1 3 2 4 0 1 6 0 0 0 0 0 0 0 5 19 32 40 52 29 16 27 35 53 34 0 7
17 21 21 22 17 21 19 4 0 0 1 12 11 6 5 21 18 0 7 2 3 3 1 4 2 2 2 0 0 0 0 0 0 0 0 1 8 20 31 0 3 22 11 37 19 12 3
18 28 27 35 34 24 15 16 1 1 0 3 12 8 1 3 4 3 6 0 0 0 0 2 1 2 0 0 0 0 0 0 1 1 8 5 22 16 47 19 13 22 22 13 10 6 3
12 15 15 10 16 26 37 30 24 7 13 0 5 7 1 0 1 6 3 0 0 1 2 0 2 0 0 0 0 0 0 0 0 0 2 0 0 30 19 3 19 9 0 0 0 0 0
15 17 14 15 25 26 22 36 46 45 26 27 5 5 0 6 0 1 4 0 0 0 0 0 0 0 0 0 0 0 0 0 0 1 0 0 0 1 2 7 0 8 0 0 0 0 0
12 15 20 24 16 21 27 25 34 50 75 53 31 5 0 4 11 7 1 0 0 0 0 0 0 0 0 0 0 0 0 0 0 0 0 1 8 15 18 10 16 4 2 0 0 0 0
20 20 32 25 31 30 29 19 32 47 61 65 57 8 0 0 17 6 0 0 0 0 0 0 0 0 0 0 0 0 0 0 0 2 9 2 1 13 1 6 14 14 3 0 0 0 0
22 18 26 30 45 36 39 29 40 54 68 68 49 26 0 0 2 0 0 0 0 0 0 0 0 0 0 0 0 0 0 0 0 0 8 10 1 0 2 4 1 14 12 8 2 2 0
21 28 18 26 32 32 33 29 33 50 50 74 70 41 1 0 6 0 0 0 0 0 0 0 0 0 0 0 0 0 0 0 0 0 0 0 1 0 0 13 21 3 0 7 10 5 12
28 16 20 25 23 15 21 26 29 44 71 89 60 34 10 0 0 1 0 0 0 0 0 0 0 0 0 0 0 0 0 0 0 1 0 0 0 1 0 7 0 11 0 11 11 8 3
16 14 21 19 16 14 24 18 15 66 101 87 45 33 10 0 4 0 0 0 0 0 0 0 0 0 0 0 0 0 0 0 0 0 0 0 0 0 4 0 0 1 16 17 19 4 0
13 17 15 21 10 20 6 5 15 11 86 55 12 18 0 1 9 0 0 0 0 0 0 0 0 0 0 0 0 0 0 0 0 0 0 0 0 0 0 14 11 8 6 10 6 0 0
8 10 12 18 26 17 2 17 22 26 50 7 11 2 0 6 21 0 0 4 0 0 0 0 0 0 0 0 0 0 0 0 0 0 0 0 0 0 0 16 19 13 17 9 3 9 7
4 4 15 19 23 20 2 25 7 12 7 0 0 0 18 24 13 1 1 0 1 0 0 0 0 0 0 0 0 0 0 0 0 0 0 0 0 0 0 0 12 18 11 17 1 0 0
8 1 10 23 24 20 11 13 22 5 1 0 17 0 10 13 4 7 3 1 0 0 0 0 0 0 0 0 0 0 0 0 0 0 0 2 0 0 0 1 22 12 12 5 4 0 1
10 2 1 26 18 12 9 8 22 3 0 0 36 1 0 4 0 1 0 4 0 0 0 0 0 0 0 0 0 0 0 0 0 0 0 1 5 2 1 4 3 8 6 3 0 0 0
16 2 0 18 19 12 14 8 2 3 0 0 30 1 13 10 0 0 9 2 0 0 0 0 0 0 0 0 0 0 0 0 0 0 4 1 1 0 0 0 1 14 1 0 0 0 1
13 2 0 11 15 11 18 17 0 10 4 8 5 2 10 3 0 1 0 0 0 0 0 0 0 0 0 0 0 0 0 0 0 0 0 0 0 0 0 2 0 2 5 3 0 1 1
7 1 0 3 10 8 5 7 8 0 0 9 1 0 1 3 1 2 3 0 0 0 0 0 0 0 0 0 0 0 0 0 0 0 0 0 0 0 0 0 0 0 0 0 0 0 0
4 1 0 1 9 19 2 0 0 0 0 4 0 1 2 1 1 4 7 1 0 0 0 0 0 0 0 0 0 0 0 0 0 0 0 0 0 0 0 0 0 0 0 0 0 0 0
2 1 0 0 11 21 8 0 0 0 0 0 3 1 0 2 5 4 1 0 0 0 0 0 0 0 0 0 0 0 0 0 0 0 0 0 0 0 0 0 0 0 0 0 0 0 0
0 0 0 0 6 6 14 2 2 1 2 0 3 1 1 3 3 0 0 0 0 0 0 0 0 0 0 0 0 0 0 0 0 0 0 0 0 0 0 0 0 0 0 1 3 2 1
0 0 0 0 1 9 7 17 12 11 7 1 4 0 0 3 1 1 0 0 0 0 0 0 0 0 0 0 0 0 0 0 0 0 0 0 0 0 0 0 0 0 0 2 1 0 0
0 0 0 0 1 4 4 0 12 4 6 4 5 0 0 0 0 0 0 0 0 0 0 0 0 0 0 0 0 0 0 0 0 0 0 0 0 0 0 0 0 0 0 0 1 0 0
0 0 0 0 5 5 5 0 4 9 17 9 8 1 1 1 0 0 0 0 0 0 0 0 0 0 0 0 0 0 0 0 0 0 0 0 0 0 0 0 0 0 0 0 0 0 0
0 0 0 0 0 9 2 0 0 8 2 0 11 6 2 0 0 0 0 0 0 0 0 0 0 0 0 0 0 0 0 0 0 0 0 0 0 0 0 0 0 0 0 0 0 0 0
0 0 0 0 0 0 4 2 0 0 0 2 1 3 2 0 0 0 0 0 0 0 0 0 0 0 0 0 0 0 0 0 0 0 0 0 0 0 0 0 0 0 0 0 0 0 0
0 0 0 0 0 0 0 0 0 1 1 0 0 0 1 0 0 0 0 0 0 0 0 0 0 0 0 0 0 0 0 0 0 0 0 0 0 0 0 0 0 0 0 0 0 0 0

GFSGBSN_con_mlcape_114.txt.gz
CAPE
22 22 20 29 30 17 8 0 0 3 8 12 14 2 10 4 16 15 7 0 0 2 6 8 3 0 0 0 0 0 0 0 0 0 0 25 30 13 3 13 20 3 0 1 1 1 7
25 24 34 35 40 35 27 14 3 7 3 11 13 11 8 1 2 3 2 5 4 7 6 9 6 0 6 0 0 0 0 0 0 0 1 9 14 14 3 15 16 12 12 6 17 0 0
27 19 23 21 12 14 19 22 24 14 26 11 14 9 5 3 0 0 24 17 6 6 7 13 7 2 2 0 0 0 0 0 0 0 0 18 15 0 8 2 13 13 15 2 12 14 0
18 23 18 19 21 18 27 35 29 39 43 42 31 13 3 2 0 0 0 45 0 5 4 11 6 4 1 0 0 0 0 0 0 0 2 11 12 0 1 17 7 0 3 7 1 2 1
22 15 15 30 23 16 11 11 14 27 39 55 57 28 4 0 0 13 10 15 1 3 7 10 1 8 0 0 0 0 0 0 0 0 1 1 0 2 16 8 8 6 1 0 0 0 1
27 23 21 20 14 19 26 27 25 28 35 38 67 59 24 0 1 12 20 28 4 5 0 2 0 0 0 0 0 0 0 0 0 0 0 0 1 0 1 0 0 0 1 1 1 0 0
38 15 22 24 20 24 26 23 24 37 34 50 69 55 25 0 3 40 12 0 0 0 1 0 0 0 0 0 0 0 0 0 0 0 0 7 1 1 3 11 3 3 0 0 0 0 0
16 19 30 22 31 31 34 25 35 44 46 64 80 78 15 1 3 12 0 0 0 0 0 0 0 0 0 0 0 0 0 0 5 6 10 13 3 16 4 7 1 0 2 8 5 0 0
15 16 19 26 34 28 23 37 35 42 52 57 70 54 21 17 0 19 2 0 0 0 0 0 0 0 0 0 0 0 0 0 0 0 2 2 1 15 9 6 1 0 2 3 0 3 0
14 15 17 16 21 25 29 23 7 12 13 69 120 49 16 8 0 2 0 0 0 1 1 0 0 0 0 0 0 0 0 0 0 0 0 0 1 0 0 2 15 0 1 0 5 2 0
14 13 8 16 19 22 26 5 19 35 70 65 106 30 25 11 0 0 1 8 0 0 0 0 0 0 0 0 0 0 0 0 0 0 0 0 0 0 0 16 2 0 0 0 0 8 0
13 8 6 4 18 25 27 9 46 30 33 34 19 9 16 3 3 3 10 13 0 0 0 0 0 0 0 0 0 0 0 0 0 0 0 0 0 0 0 0 0 0 0 0 6 10 0
11 8 2 4 14 34 31 12 53 42 23 6 6 2 4 6 18 12 3 1 0 0 0 0 0 0 0 0 0 0 0 0 0 0 0 0 0 0 0 0 0 10 10 0 0 0 0
10 11 0 6 25 34 11 9 52 40 12 5 19 9 3 0 1 7 0 1 0 0 0 0 0 0 0 0 0 0 0 0 0 0 0 0 0 0 0 1 3 0 1 0 0 2 2
4 5 3 5 30 35 13 1 10 51 3 7 16 1 4 28 10 0 0 0 0 0 0 0 0 0 0 0 0 0 0 0 0 0 0 0 0 0 0 0 3 0 3 0 0 1 0
0 5 3 8 28 34 9 3 2 1 2 0 6 1 5 13 2 0 1 1 0 0 0 0 0 0 0 0 0 0 0 0 0 0 0 1 0 0 0 0 2 6 0 0 1 0 0
0 1 0 7 18 20 13 0 3 5 0 0 8 0 6 4 0 0 1 0 0 0 0 0 0 0 0 0 0 0 0 0 0 0 0 1 1 0 0 0 0 0 0 0 0 0 0
0 0 0 2 8 11 2 0 3 2 0 0 0 0 0 0 0 0 0 0 0 0 0 0 0 0 0 0 0 0 0 0 0 0 0 0 0 0 0 0 1 0 1 0 0 0 2
0 0 0 1 0 0 0 1 0 0 0 0 1 1 0 0 0 0 0 0 0 0 0 0 0 0 0 0 0 0 0 0 0 0 0 0 0 0 0 0 0 0 0 0 0 0 0
0 0 0 0 0 0 0 0 0 0 0 0 0 1 0 0 0 7 0 0 0 0 0 0 0 0 0 0 0 0 0 0 0 0 0 0 0 0 0 0 0 0 0 0 0 0 0
0 0 0 0 1 1 0 0 0 0 0 0 0 0 1 0 0 5 0 0 0 0 0 0 0 0 0 0 0 0 0 0 0 0 0 0 0 0 0 0 0 0 0 0 0 0 0
0 0 0 0 0 0 0 0 0 0 0 0 0 0 0 1 0 2 0 0 0 0 0 0 0 0 0 0 0 0 0 0 0 0 0 0 0 0 0 0 0 0 0 0 0 0 0
0 0 0 0 0 0 0 0 0 0 3 0 0 0 0 0 1 0 0 0 0 0 0 0 0 0 0 0 0 0 0 0 0 0 0 0 0 0 0 0 0 0 0 0 0 0 0
0 0 0 0 0 0 0 0 0 0 6 13 3 0 0 0 0 0 0 0 0 0 0 0 0 0 0 0 0 0 0 0 0 0 0 0 0 0 0 0 0 0 0 0 0 0 0
0 0 0 0 0 0 0 0 0 0 0 3 11 0 0 0 0 0 0 0 0 0 0 0 0 0 0 0 0 0 0 0 0 0 0 0 0 0 0 0 0 0 0 0 0 0 0
0 0 0 0 0 0 0 0 0 0 0 0 4 2 0 0 0 0 0 0 0 0 0 0 0 0 0 0 0 0 0 0 0 0 0 0 0 0 0 0 0 0 0 0 0 0 0
2 0 0 0 0 0 0 0 0 0 0 0 0 16 2 0 0 0 0 0 0 0 0 0 0 0 0 0 0 0 0 0 0 0 0 0 0 0 0 0 0 0 0 0 0 0 0
2 0 0 0 0 0 0 0 0 0 4 0 0 2 6 0 0 0 0 0 0 0 0 0 0 0 0 0 0 0 0 0 0 0 0 0 0 0 0 0 0 0 0 0 0 0 0
1 0 0 0 0 0 0 0 0 0 5 0 1 0 0 3 0 0 0 0 0 0 0 0 0 0 0 0 0 0 0 0 0 0 0 0 0 0 0 0 0 0 0 0 0 0 0

GFSGBSN_con_mlcape_117.txt.gz
CAPE
28 28 17 31 30 20 13 21 22 37 33 31 25 18 10 3 1 0 2 7 2 3 6 7 5 0 0 0 0 0 0 0 0 0 0 3 22 20 6 1 1 0 0 0 0 0 0
24 25 37 29 30 22 20 28 36 33 33 39 39 27 20 4 1 0 0 1 10 12 7 4 11 1 0 0 0 0 0 0 0 0 0 15 19 10 10 0 1 0 0 0 0 0 10
25 36 27 26 32 23 22 18 12 14 18 28 27 46 22 14 3 0 0 0 37 3 1 4 3 3 0 0 0 0 0 0 0 0 0 18 10 0 14 0 0 0 0 0 0 1 7
19 54 40 30 19 27 32 33 34 33 28 24 30 39 63 30 5 0 5 13 13 2 5 6 0 4 0 0 0 0 0 0 0 0 6 1 2 1 2 0 0 0 0 0 0 8 11
26 32 20 36 23 27 26 19 33 30 30 43 50 51 59 41 9 0 32 42 10 13 12 3 0 0 0 0 0 0 0 0 1 1 0 0 0 0 14 20 1 0 0 0 0 0 0
19 21 29 23 17 23 20 28 30 38 50 60 57 59 47 14 3 0 27 25 29 13 1 10 1 1 0 0 0 0 0 0 0 2 0 0 0 0 3 1 0 0 0 2 0 0 0
13 17 16 24 17 20 22 31 46 37 26 42 72 98 44 14 15 5 7 0 0 0 9 0 0 0 0 0 0 0 0 0 0 0 0 0 2 0 0 0 0 3 0 0 0 0 0
13 22 29 19 6 18 31 51 18 22 61 73 57 119 36 17 47 0 17 1 0 0 0 0 0 0 0 0 0 0 0 0 0 0 0 8 0 0 4 11 9 6 0 0 4 0 0
19 21 20 16 3 41 53 50 45 96 108 115 141 182 22 4 24 3 33 6 3 0 0 0 0 0 0 0 0 0 0 0 0 0 0 3 0 10 2 0 0 0 1 2 0 1 0
22 16 23 7 19 43 64 48 80 106 117 42 61 84 8 7 1 2 13 14 3 0 0 0 0 0 0 0 0 0 0 0 0 0 0 0 2 1 0 0 16 0 2 0 0 0 0
23 23 28 9 29 50 45 53 63 50 18 17 20 7 11 10 0 5 7 12 0 0 0 0 0 0 0 0 0 0 0 0 0 0 0 0 0 0 0 0 0 0 0 0 0 0 0
35 11 19 6 22 33 51 0 37 57 17 11 24 10 8 14 4 16 0 3 0 0 0 0 0 0 0 0 0 0 0 0 0 0 0 0 0 0 0 0 2 0 0 0 0 1 0
51 1 14 5 21 11 34 0 19 30 14 4 4 15 1 0 17 0 1 0 0 0 0 0 0 0 0 0 0 0 0 0 0 0 0 0 0 0 0 0 2 0 0 0 0 0 0
22 6 10 0 13 13 0 4 7 9 0 13 8 5 24 6 0 0 0 0 0 0 0 0 0 0 0 0 0 0 0 0 0 0 0 0 0 0 0 0 0 0 0 0 0 0 2
1 4 1 0 5 2 2 6 8 6 0 1 2 2 4 2 0 0 0 0 3 0 0 0 0 0 0 0 0 0 0 0 0 0 0 0 0 0 1 4 1 0 0 0 0 0 0
3 4 0 0 4 0 3 5 7 1 0 0 0 0 0 0 0 0 0 5 1 0 0 0 0 0 0 0 0 0 0 0 0 0 0 0 0 0 0 0 0 0 0 0 0 0 0
9 1 0 0 1 1 1 4 2 0 0 0 0 0 0 0 0 0 1 1 1 0 0 0 0 0 0 0 0 0 0 0 0 0 0 0 0 0 0 2 0 0 0 0 0 0 0
15 0 0 0 0 0 0 0 0 0 0 0 0 0 0 0 0 0 0 0 0 0 0 0 0 0 0 0 0 0 0 0 0 0 0 0 0 0 1 0 0 0 0 0 0 0 0
15 0 0 0 0 0 0 0 0 0 0 1 1 0 0 0 0 0 0 0 0 0 0 0 0 0 0 0 0 0 0 0 0 0 0 0 0 0 0 0 0 0 0 0 0 0 0
11 0 0 0 0 0 0 0 0 0 0 0 0 0 0 0 0 0 0 0 0 0 0 0 0 0 0 0 0 0 0 0 0 0 0 0 0 0 0 0 0 0 0 0 0 0 0
8 0 0 0 0 0 0 0 0 0 0 0 0 0 0 0 0 0 0 0 0 0 0 0 0 0 0 0 0 0 0 0 0 0 0 0 0 0 0 0 0 0 0 0 0 0 0
13 1 0 0 0 0 0 0 0 0 0 0 0 0 0 0 0 0 0 0 0 0 0 0 0 0 0 0 0 0 0 0 0 0 0 0 0 0 0 0 0 0 0 0 0 0 0
10 0 0 0 0 0 0 0 0 0 0 0 0 0 0 0 0 0 0 0 0 0 0 0 0 0 0 0 0 0 0 0 0 0 0 0 0 0 0 0 0 0 0 0 0 0 0
1 2 0 0 0 0 0 0 0 0 0 0 0 0 0 0 0 0 0 0 0 0 0 0 0 0 0 0 0 0 0 0 0 0 0 0 0 0 0 0 0 0 0 0 0 0 0
0 6 0 0 0 0 0 0 0 0 0 0 0 0 0 0 0 0 0 0 0 0 0 0 0 0 0 0 0 0 0 0 0 0 0 0 0 0 0 0 0 0 0 0 0 0 0
0 2 1 0 0 0 0 0 0 0 0 0 0 0 0 0 0 0 0 0 0 0 0 0 0 0 0 0 0 0 0 0 0 0 0 0 0 0 0 0 0 0 0 0 0 0 0
0 0 2 0 0 0 0 0 0 0 0 0 0 0 0 0 0 0 0 0 0 0 0 0 0 0 0 0 0 0 0 0 0 0 0 0 0 0 0 0 0 0 0 0 0 0 0
1 0 2 0 0 0 0 0 0 0 0 0 0 0 0 0 0 0 0 0 0 0 0 0 0 0 0 0 0 0 0 0 0 0 0 0 0 0 0 0 0 0 0 0 0 0 0
2 0 0 0 0 0 0 0 0 0 0 0 0 0 0 0 0 0 0 0 0 0 0 0 0 0 0 0 0 0 0 0 0 0 0 0 0 0 0 0 0 0 0 0 0 0 0